     2.11           OBSERVATION DATA    G (GPS)             RINEX VERSION / TYPE
teqc 2010Oct21 OPUS Account 20111026 16:39:14UTC            PGM / RUN BY / DATE
G 1523                                                      MARKER NAME
1187                                                        MARKER NUMBER
CSMIDDLETON NGS                                             OBSERVER / AGENCY
4613K00970 TRIMBLE NETR5 4.17                               REC # / TYPE / VERS
60125046 TRM41249.00 NONE                                   ANT # / TYPE
  -749227.3504 -5509838.3699  3113961.9366                  APPROX POSITION XYZ
        2.0040        0.0000        0.0000                  ANTENNA: DELTA H/E/N
     1     1                                                WAVELENGTH FACT L1/2
     5    L1    L2    C1    P1    P2                        # / TYPES OF OBSERV
    15                                                      LEAP SECONDS
  2011     8     2     0     0    0.0000000     GPS         TIME OF FIRST OBS
                                                            END OF HEADER
 11  8  2  0  0  0.0000000  0  8G28G17G09G10G04G27G02G12
 116765747.676 7  90986479.49545  22219797.148                    22219804.531
 113795303.751 7  88671728.055 7  21654503.625                    21654511.195
 116004625.205 7  90393275.58545  22074947.219                    22074955.785
 119815640.036 6  93362920.41044  22800155.602                    22800164.453
 104523931.109 8  81447329.85946  19890225.461                    19890232.801
 117736589.203 7  91742837.06845  22404524.047                    22404532.156
 114331064.255 7  89089245.07345  21756470.727                    21756477.012
 128354650.932 6 100016648.779 6  24425081.953                    24425090.848
 11  8  2  0  0 30.0000000  0  8G28G17G09G10G04G27G02G12
 116829668.316 7  91036287.74945  22231960.633                    22231968.602
 113829250.421 7  88698179.995 7  21660963.461                    21660970.859
 116000925.961 7  90390393.05045  22074243.406                    22074251.469
 119727225.626 6  93294026.14944  22783330.836                    22783339.672
 104533328.805 8  81454652.73946  19892013.500                    19892021.234
 117744109.071 7  91748696.69245  22405954.531                    22405962.840
 114264790.791 7  89037603.44945  21743859.195                    21743865.637
 128257714.458 6  99941113.902 6  24406636.102                    24406643.855
 11  8  2  0  1  0.0000000  0  8G28G17G09G10G04G27G02G12
 116893955.211 7  91086381.39444  22244193.945                    22244201.738
 113863276.673 7  88724693.941 7  21667438.586                    21667446.184
 115997861.503 7  90388005.16545  22073660.219                    22073668.453
 119638991.649 6  93225272.47644  22766540.164                    22766549.398
 104543267.010 8  81462396.80246  19893904.555                    19893912.152
 117752102.762 7  91754925.54245  22407475.859                    22407484.242
 114198856.355 7  88986226.01145  21731311.711                    21731318.332
 128160774.593 6  99865576.420 6  24388188.398                    24388197.617
 11  8  2  0  1 30.0000000  0  8G28G17G09G10G04G27G02G12
 116958607.483 7  91136759.72744  22256496.992                    22256504.023
 113897382.178 7  88751269.650 7  21673929.039                    21673936.227
 115995431.052 7  90386111.32044  22073197.586                    22073205.824
 119550941.311 7  93156661.89244  22749784.125                    22749794.305
 104553744.395 8  81470561.00446  19895898.758                    19895906.574
 117760569.211 7  91761522.76845  22409086.805                    22409095.109
 114133261.572 7  88935113.23345  21718830.375                    21718836.609
 128063833.202 6  99790037.735 6  24369740.609                    24369750.242
 11  8  2  0  2  0.0000000  0  8G28G17G09G10G04G27G02G12
 117023625.200 7  91187422.82044  22268869.555                    22268877.414
 113931567.843 7  88777907.807 7  21680434.031                    21680441.359
 115993634.415 7  90384711.32545  22072855.977                    22072864.496
 119463078.278 6  93088197.27344  22733064.703                    22733074.270
 104564760.100 8  81479144.67646  19897994.422                    19898002.512
 117769508.063 7  91768488.09245  22410787.922                    22410796.578
 114068007.867 7  88884266.22945  21706412.656                    21706418.723
 127966892.471 6  99714499.564 6  24351293.016                    24351302.766
 11  8  2  0  2 30.0000000  0  8G28G17G09G10G04G27G02G12
 117089007.032 7  91238369.66244  22281311.148                    22281319.086
 113965833.250 8  88804608.103 7  21686954.406                    21686961.977
 115992470.899 7  90383804.68345  22072634.781                    22072642.820
 119375405.870 6  93019881.19444  22716381.516                    22716390.660
 104576312.521 8  81488146.56946  19900192.664                    19900201.145
 117778918.047 7  91775820.53945  22412578.594                    22412587.258
 114003095.799 8  88833685.43445  21694060.406                    21694066.254
 127869954.128 6  99638963.279 6  24332847.125                    24332856.504
 11  8  2  0  3  0.0000000  0  8G28G17G09G10G04G27G02G12
 117154753.382 7  91289600.51744  22293822.148                    22293830.043
 114000178.659 7  88831370.741 7  21693490.164                    21693497.590
 115991940.316 7  90383391.24345  22072533.047                    22072541.625
 119287927.361 6  92951716.21044  22699734.727                    22699743.781
 104588400.890 8  81497566.08546  19902493.602                    19902501.324
 117788798.413 7  91783519.50945  22414459.141                    22414467.254
 113938526.542 7  88783371.77245  21681772.797                    21681778.840
 127773019.909 6  99563430.231 6  24314399.594                    24314409.965
 11  8  2  0  3 30.0000000  0  8G28G17G09G10G04G27G02G12
 117220863.317 7  91341114.71445  22306403.266                    22306410.816
 114034603.654 7  88858195.391 7  21700041.227                    21700048.371
 115992041.691 7  90383470.21444  22072552.773                    22072561.262
 119200645.814 6  92883704.68044  22683125.211                    22683134.773
 104601023.490 8  81507401.87646  19904895.555                    19904903.324
 117799148.169 7  91791584.23345  22416428.289                    22416437.098
 113874300.779 7  88733325.75745  21669551.063                    21669557.863
 127676091.795 6  99487901.877 6  24295955.633                    24295964.563
 11  8  2  0  4  0.0000000  0  8G28G17G09G10G04G27G02G12
 117287335.989 7  91392911.56944  22319052.258                    22319059.988
 114069108.119 7  88885081.967 7  21706607.023                    21706614.465
 115992773.815 7  90384040.69544  22072691.578                    22072699.883
 119113564.756 7  92815849.37544  22666554.852                    22666563.887
 104614178.789 8  81517652.76146  19907398.914                    19907406.648
 117809966.259 7  91800013.88545  22418486.898                    22418495.410
 113810419.023 7  88683547.81145  21657394.891                    21657400.961
 127579171.604 6  99412379.698 6  24277512.695                    24277521.758
 11  8  2  0  4 30.0000000  0  8G28G17G09G10G04G27G02G12
 117354170.914 7  91444990.69444  22331770.164                    22331778.305
 114103692.562 7  88912030.859 7  21713188.313                    21713196.016
 115994136.435 7  90385102.45644  22072951.734                    22072959.109
 119026687.642 7  92748152.98344  22650022.906                    22650031.699
 104627865.453 8  81528317.69846  19910003.172                    19910011.020
 117821251.936 7  91808807.89545  22420634.539                    22420643.242
 113746882.399 7  88634038.79345  21645304.250                    21645310.340
 127482260.602 6  99336864.648 6  24259071.141                    24259079.449
 11  8  2  0  5  0.0000000  0  8G28G17G09G10G04G27G02G12
 117421367.780 7  91497351.86544  22344557.813                    22344565.375
 114138356.971 7  88939042.073 7  21719784.727                    21719792.004
 115996129.038 7  90386655.12144  22073331.109                    22073338.434
 118940017.665 7  92680617.97944  22633529.875                    22633539.105
 104642082.672 8  81539396.05646  19912708.773                    19912716.379
 117833004.345 6  91817965.58445  22422871.164                    22422879.297
 113683691.662 8  88584799.29945  21633279.609                    21633285.398
 127385361.153 6  99261358.620 6  24240631.734                    24240640.332
 11  8  2  0  5 30.0000000  0  8G28G17G09G10G04G27G02G12
 117488925.396 7  91549994.12344  22357413.328                    22357421.332
 114173101.230 7  88966115.505 7  21726396.656                    21726403.496
 115998750.525 7  90388697.82344  22073829.500                    22073837.371
 118853557.959 7  92613246.84544  22617076.883                    22617086.227
 104656828.336 8  81550886.17646  19915514.797                    19915522.508
 117845222.026 7  91827485.83845  22425196.383                    22425204.586
 113620847.683 8  88535830.00645  21621320.477                    21621327.051
 127288474.920 6  99185862.911 6  24222194.375                    24222203.641
 11  8  2  0  6  0.0000000  0  8G28G17G09G10G04G27G02G12
 117556843.468 7  91602917.26844  22370337.977                    22370345.492
 114207925.165 7  88993251.010 7  21733022.883                    21733030.500
 116002000.210 7  90391230.04444  22074447.414                    22074455.727
 118767312.223 7  92546042.42144  22600664.484                    22600674.176
 104672101.455 8  81562787.31946  19918420.813                    19918429.281
 117857904.425 7  91837368.20445  22427609.273                    22427618.410
 113558351.126 8  88487131.43445  21609427.891                    21609433.734
 127191604.007 6  99110379.155 6  24203760.875                    24203769.098
 11  8  2  0  6 30.0000000  0  8G28G17G09G10G04G27G02G12
 117625121.195 7  91656120.65144  22383330.156                    22383338.660
 114242828.981 7  89020448.781 7  21739665.281                    21739672.613
 116005877.225 7  90394251.07144  22075185.867                    22075193.980
 118681283.537 7  92479007.13444  22584293.898                    22584303.094
 104687900.515 8  81575098.27146  19921427.898                    19921435.781
 117871050.237 7  91847611.67845  22430111.133                    22430119.871
 113496202.642 8  88438704.07445  21597601.688                    21597607.777
 127094749.970 6  99034908.532 6  24185330.086                    24185338.699
 11  8  2  0  7  0.0000000  0  8G28G17G09G10G04G27G02G12
 117693757.915 7  91709603.76144  22396391.188                    22396399.715
 114277812.681 7  89047708.793 7  21746321.992                    21746329.480
 116010380.798 7  90397760.34344  22076042.469                    22076051.344
 118595475.486 7  92412143.75844  22567964.930                    22567973.727
 104704224.035 8  81587817.89746  19924533.617                    19924541.457
 117884658.425 7  91858215.42445  22432700.703                    22432709.289
 113434403.037 8  88390548.56645  21585841.195                    21585847.066
 126997914.797 6  98959452.605 6  24166903.336                    24166911.230
 11  8  2  0  7 30.0000000  0  8G28G17G09G10G04G27G02G12
 117762753.197 7  91763366.27844  22409521.219                    22409529.066
 114312876.377 7  89075031.141 7  21752995.008                    21753002.293
 116015510.116 7  90401757.20344  22077018.742                    22077026.848
 118509891.117 7  92345454.69944  22551679.078                    22551687.730
 104721070.426 8  81600944.95946  19927739.445                    19927747.027
 117898727.606 7  91869178.38245  22435377.602                    22435386.516
 113372953.321 7  88342665.71845  21574147.711                    21574153.938
 126901100.494 6  98884012.927 6  24148479.602                    24148487.797
 11  8  2  0  8  0.0000000  0  8G28G17G09G10G04G27G02G12
 117832106.126 7  91817407.48444  22422718.406                    22422725.980
 114348020.145 7  89102415.887 7  21759682.398                    21759689.629
 116021264.295 7  90406240.94645  22078114.086                    22078122.500
 118424534.255 7  92278942.90444  22535435.945                    22535445.004
 104738438.348 8  81614478.39946  19931044.531                    19931052.297
 117913256.878 7  91880499.86144  22438142.375                    22438151.512
 113311853.969 8  88295055.86845  21562520.594                    21562526.957
 126804308.901 6  98808590.938 6  24130060.195                    24130069.129
 11  8  2  0  8 30.0000000  0  8G28G17G09G10G04G27G02G12
 117901815.437 7  91871726.38044  22435983.945                    22435992.105
 114383243.476 7  89129862.636 7  21766385.109                    21766392.531
 116027642.159 7  90411210.71044  22079326.922                    22079335.301
 118339407.724 7  92212610.58844  22519237.039                    22519246.180
 104756325.929 8  81628416.77446  19934448.688                    19934456.414
 117928244.809 7  91892178.72045  22440995.117                    22441003.699
 113251105.291 7  88247719.26146  21550960.875                    21550967.113
 126707541.691 6  98733187.991 6  24111646.508                    24111655.449
 11  8  2  0  9  0.0000000  0  8G28G17G09G10G04G27G02G12
 117971881.108 7  91926322.96444  22449317.188                    22449325.176
 114418547.459 7  89157372.226 7  21773103.289                    21773110.496
 116034642.768 7  90416665.71445  22080659.328                    22080668.059
 118254515.057 7  92146460.51644  22503082.031                    22503091.484
 104774732.367 8  81642759.45446  19937951.297                    19937959.031
 117943690.839 7  91904214.54945  22443933.906                    22443942.809
 113190708.790 7  88200657.08445  21539467.273                    21539473.742
 126610800.938 6  98657805.671 6  24093236.172                    24093245.914
 11  8  2  0  9 30.0000000  0  8G28G17G09G10G04G27G02G12
 118042302.525 7  91981196.76144  22462716.969                    22462725.891
 114453932.248 7  89184944.793 7  21779837.141                    21779844.242
 116042265.636 7  90422605.59445  22082109.977                    22082118.605
 118169859.820 7  92080495.46344  22486972.898                    22486982.094
 104793655.921 8  81657505.07946  19941552.219                    19941559.988
 117959593.964 7  91916606.56245  22446960.102                    22446969.773
 113130665.167 8  88153869.87545  21528041.680                    21528048.195
 126514088.794 6  98582445.617 6  24074833.094                    24074842.324
 11  8  2  0 10  0.0000000  0  8G28G17G09G10G04G27G02G12
 118113078.444 7  92036346.77744  22476186.063                    22476193.887
 114489397.110 7  89212579.752 7  21786585.547                    21786592.992
 116050509.167 7  90429029.10345  22083678.773                    22083687.199
 118085445.040 7  92014717.74744  22470909.086                    22470918.293
 104813094.787 8  81672652.24646  19945251.266                    19945258.875
 117975952.462 7  91929353.40644  22450073.188                    22450082.023
 113070974.533 8  88107357.72146  21516682.953                    21516689.125
 126417407.291 6  98507109.430 6  24056435.414                    24056444.602
 11  8  2  0 10 30.0000000  0  8G28G17G09G10G04G27G02G12
 118184208.046 7  92091772.39644  22489721.727                    22489729.223
 114524942.130 7  89240277.156 7  21793349.305                    21793356.746
 116059372.394 7  90435935.49945  22085365.531                    22085373.594
 118001273.971 7  91949129.96044  22454892.273                    22454901.652
 104833047.234 8  81688199.61846  19949048.383                    19949055.898
 117992764.993 7  91942454.05245  22453272.547                    22453281.676
 113011637.538 8  88061121.12246  21505391.344                    21505397.773
 126320757.663 6  98431798.079 6  24038043.453                    24038052.383
 11  8  2  0 11  0.0000000  0  8G28G17G09G10G04G27G02G12
 118255691.105 7  92147473.42044  22503324.172                    22503332.137
 114560568.012 7  89268037.574 7  21800129.250                    21800136.402
 116068854.593 7  90443324.21044  22087169.805                    22087178.117
 117917350.547 7  91883735.12944  22438922.352                    22438930.828
 104853512.249 8  81704146.39346  19952942.703                    19952950.285
 118010030.859 7  91955907.93244  22456557.875                    22456567.633
 112952655.402 8  88015161.04846  21494167.766                    21494173.766
 126224142.568 6  98356513.633 6  24019658.898                    24019666.520
 11  8  2  0 11 30.0000000  0  8G28G17G09G10G04G27G02G12
 118327525.937 7  92203448.56844  22516994.469                    22517001.980
 114596274.363 7  89295860.712 7  21806924.000                    21806931.000
 116078954.033 7  90451193.90144  22089092.188                    22089100.258
 117833677.139 7  91818535.10744  22422999.461                    22423008.395
 104874487.182 8  81720490.49846  19956933.961                    19956941.363
 118027748.012 7  91969713.49345  22459930.109                    22459938.879
 112894028.007 7  87969477.39046  21483011.211                    21483016.781
 126127563.415 6  98281257.191 6  24001280.195                    24001288.605
 11  8  2  0 12  0.0000000  0  8G28G17G09G10G04G27G02G12
 118399712.124 7  92259697.50644  22530730.430                    22530738.852
 114632061.635 7  89323746.883 7  21813733.633                    21813741.270
 116089670.151 7  90459544.09945  22091130.734                    22091139.363
 117750257.505 7  91753532.85644  22407124.797                    22407134.727
 104895971.184 8  81737231.28146  19961021.773                    19961029.902
 118045915.712 7  91983870.09344  22463386.953                    22463396.508
 112835756.384 7  87924070.96446  21471922.891                    21471928.863
 126031022.410 6  98206030.475 6  23982908.703                    23982917.992
 11  8  2  0 12 30.0000000  0  8G28G17G09G10G04G27G02G12
 118472249.000 7  92316219.68144  22544533.750                    22544542.172
 114667929.824 7  89351696.128 7  21820559.305                    21820566.910
 116101001.399 7  90468373.62744  22093286.922                    22093295.809
 117667095.153 7  91688731.07844  22391300.133                    22391308.707
 104917962.583 8  81754367.44346  19965206.945                    19965214.684
 118064532.925 7  91998376.98844  22466929.578                    22466938.840
 112777841.323 7  87878942.38646  21460901.602                    21460907.664
 125934521.740 7  98130835.201 6  23964545.125                    23964554.102
 11  8  2  0 13  0.0000000  0  8G28G17G09G10G04G27G02G12
 118545135.661 7  92373014.41944  22558403.969                    22558412.063
 114703879.092 7  89379708.540 7  21827400.000                    21827407.563
 116112946.745 7  90477681.67545  22095560.297                    22095569.051
 117584193.402 7  91624132.36844  22375524.703                    22375533.027
 104940459.674 8  81771897.64946  19969487.586                    19969495.621
 118083597.896 7  92013232.78645  22470557.328                    22470566.316
 112720283.334 7  87834092.04646  21449948.578                    21449955.043
 125838063.419 6  98055672.899 6  23946190.453                    23946198.406
 11  8  2  0 13 30.0000000  0  8G28G17G09G10G04G27G02G12
 118618371.354 7  92430081.13544  22572340.250                    22572348.250
 114739909.562 7  89407784.206 7  21834256.063                    21834264.273
 116125504.927 7  90487467.24945  22097950.125                    22097958.680
 117501555.413 7  91559739.17844  22359798.453                    22359807.699
 104963460.931 8  81789820.71046  19973864.555                    19973872.523
 118103109.666 7  92028436.73045  22474271.125                    22474279.582
 112663083.060 7  87789520.44246  21439063.523                    21439069.633
 125741649.311 6  97980545.071 6  23927842.266                    23927851.426
 11  8  2  0 14  0.0000000  0  8G28G17G09G10G04G27G02G12
 118691954.670 7  92487418.74144  22586342.328                    22586350.773
 114776020.975 7  89435922.949 7  21841128.352                    21841135.762
 116138673.626 7  90497728.54445  22100455.867                    22100464.500
 117419183.898 7  91495553.63344  22344123.891                    22344132.672
 104986963.802 8  81808134.63246  19978337.617                    19978345.410
 118123065.999 6  92043987.09145  22478068.516                    22478077.270
 112606239.944 8  87745227.14246  21428247.000                    21428253.191
 125645281.139 6  97905453.046 6  23909504.258                    23909512.871
 11  8  2  0 14 30.0000000  0  8G28G17G09G10G04G27G02G12
 118765884.973 7  92545026.71444  22600410.859                    22600419.242
 114812214.000 7  89464125.266 7  21848015.508                    21848023.082
 116152452.662 7  90508465.44145  22103077.516                    22103086.707
 117337083.070 7  91431579.01044  22328501.133                    22328509.723
 105010967.331 8  81826838.67646  19982905.133                    19982913.020
 118143466.524 7  92059883.57245  22481950.211                    22481959.195
 112549755.856 8  87701213.61746  21417497.930                    21417504.023
 125548961.225 6  97830398.637 6  23891175.141                    23891183.926
 11  8  2  0 15  0.0000000  0  8G28G17G09G10G04G27G02G12
 118840161.814 7  92602904.71344  22614545.563                    22614553.648
 114848489.363 7  89492391.750 7  21854918.523                    21854926.184
 116166841.311 7  90519677.34044  22105815.758                    22105824.613
 117255256.653 7  91367818.23245  22312929.016                    22312938.563
 105035470.690 8  81845932.19846  19987567.852                    19987575.762
 118164310.384 7  92076125.52044  22485916.836                    22485925.734
 112493631.785 7  87657480.61246  21406818.016                    21406824.465
 125452691.973 6  97755383.723 6  23872855.773                    23872864.547
 11  8  2  0 15 30.0000000  0  8G28G17G09G10G04G27G02G12
 118914783.723 7  92661051.59344  22628745.633                    22628753.613
 114884846.332 7  89520721.840 7  21861837.453                    21861844.867
 116181837.544 7  90531362.69544  22108669.875                    22108678.535
 117173707.181 7  91304273.24944  22297410.938                    22297420.445
 105060470.782 8  81865412.79546  19992325.328                    19992333.477
 118185595.189 7  92092711.05345  22489967.758                    22489975.637
 112437867.352 8  87614027.85046  21396206.688                    21396212.570
 125356474.709 6  97680409.270 6  23854546.094                    23854554.883
 11  8  2  0 16  0.0000000  0  8G28G17G09G10G04G27G02G12
 118989749.982 7  92719466.79544  22643011.414                    22643019.508
 114921285.123 7  89549115.669 7  21868771.070                    21868778.750
 116197439.824 7  90543520.28244  22111639.047                    22111647.332
 117092437.740 7  91240946.46945  22281945.953                    22281955.047
 105085966.197 8  81885279.34946  19997176.727                    19997184.855
 118207319.590 7  92109639.13845  22494101.289                    22494110.145
 112382462.850 8  87570855.55346  21385663.258                    21385669.133
 125260311.966 6  97605477.325 6  23836246.586                    23836255.699
 11  8  2  0 16 30.0000000  0  8G28G17G09G10G04G27G02G12
 119065059.294 7  92778149.31344  22657342.813                    22657350.813
 114957806.029 7  89577573.496 7  21875721.031                    21875728.313
 116213646.711 7  90556149.01144  22114723.180                    22114731.637
 117011451.871 7  91177840.66844  22266534.852                    22266543.637
 105111954.990 8  81905530.35146  20002122.250                    20002130.289
 118229482.007 7  92126908.53744  22498318.984                    22498327.320
 112327419.029 7  87527964.29346  21375188.492                    21375194.801
 125164205.369 6  97530589.154 6  23817958.414                    23817967.320
 11  8  2  0 17  0.0000000  0  8G28G17G09G10G04G27G02G12
 119140711.436 7  92837098.97844  22671738.656                    22671747.098
 114994409.617 7  89606095.739 7  21882686.352                    21882693.883
 116230457.103 7  90569247.99745  22117922.000                    22117930.457
 116930753.308 7  91114958.74644  22251177.984                    22251187.227
 105138435.955 8  81926164.86546  20007161.563                    20007169.398
 118252081.468 7  92144518.49145  22502618.820                    22502628.008
 112272737.050 8  87485354.99746  21364783.023                    21364789.121
 125068157.459 6  97455746.688 6  23799680.961                    23799689.789
 11  8  2  0 17 30.0000000  0  8G28G17G09G10G04G27G02G12
 119216704.176 7  92896314.04044  22686199.781                    22686207.863
 115031095.227 7  89634681.893 7  21889667.203                    21889675.035
 116247868.699 7  90582815.45545  22121235.727                    22121244.332
 116850344.249 7  91052302.39144  22235876.422                    22235885.754
 105165406.226 8  81947180.64946  20012293.797                    20012301.820
 118275115.473 7  92162467.04044  22507002.555                    22507011.465
 112218416.088 8  87443027.01746  21354446.438                    21354452.332
 124972169.603 7  97380950.995 6  23781414.922                    23781423.250
 11  8  2  0 18  0.0000000  0  8G28G17G09G10G04G27G02G12
 119293037.095 7  92955794.16644  22700725.320                    22700733.215
 115067863.534 7  89663332.502 7  21896664.227                    21896672.094
 116265880.650 7  90596850.70645  22124663.203                    22124671.691
 116770228.925 7  90989874.92445  22220631.352                    22220640.293
 105192864.511 8  81968576.70946  20017519.172                    20017527.188
 118298583.207 7  92180753.57244  22511468.414                    22511476.707
 112164457.187 8  87400981.15646  21344177.875                    21344184.293
 124876244.425 7  97306204.158 6  23763161.391                    23763169.961
 11  8  2  0 18 30.0000000  0  8G28G17G09G10G04G27G02G12
 119369709.370 7  93015538.74844  22715315.742                    22715323.445
 115104715.029 7  89692047.935 7  21903676.836                    21903684.434
 116284491.743 7  90611352.84544  22128204.719                    22128213.270
 116690410.685 7  90927678.94745  22205442.727                    22205450.938
 105220809.370 8  81990351.91246  20022836.961                    20022844.691
 118322483.640 7  92199377.25644  22516016.086                    22516025.031
 112110861.163 8  87359218.05646  21333979.266                    21333985.176
 124780383.915 7  97231507.697 6  23744920.266                    23744928.047
 11  8  2  0 19  0.0000000  0  8G28G17G09G10G04G27G02G12
 119446720.042 7  93075546.99344  22729970.453                    22729978.289
 115141649.416 7  89720827.971 7  21910705.789                    21910712.773
 116303700.052 7  90626320.31945  22131859.391                    22131868.336
 116610892.631 7  90865716.87944  22190310.844                    22190319.453
 105249238.691 8  82012504.62746  20028246.555                    20028254.871
 118346814.787 7  92218336.56945  22520646.758                    22520655.141
 112057628.260 8  87317737.89946  21323849.289                    21323855.340
 124684590.256 7  97156863.318 6  23726690.609                    23726698.871
 11  8  2  0 19 30.0000000  0  8G28G17G09G10G04G27G02G12
 119524068.102 7  93135818.14844  22744688.984                    22744697.457
 115178667.769 7  89749673.419 7  21917749.383                    21917757.012
 116323504.212 7  90641752.10244  22135627.891                    22135637.023
 116531677.946 7  90803991.21345  22175236.742                    22175245.125
 105278150.956 8  82035033.65946  20033748.563                    20033756.113
 118371575.267 7  92237630.42644  22525358.211                    22525367.391
 112004758.904 8  87276541.03346  21313788.172                    21313794.277
 124588865.542 7  97082272.669 6  23708474.570                    23708482.625
 11  8  2  0 20  0.0000000  0  8G28G17G09G10G04G27G02G12
 119601752.231 7  93196351.17544  22759472.563                    22759480.582
 115215769.514 7  89778583.874 7  21924809.898                    21924817.309
 116343902.363 7  90657646.74945  22139510.250                    22139518.402
 116452770.000 7  90742504.54845  22160221.086                    22160229.566
 105307543.996 8  82057937.32746  20039341.953                    20039349.938
 118396763.316 7  92257257.44344  22530151.125                    22530159.801
 111952253.714 8  87235627.93146  21303797.086                    21303802.496
 124493211.947 7  97007737.438 6  23690272.523                    23690280.820
 11  8  2  0 20 30.0000000  0  8G28G17G09G10G04G27G02G12
 119679771.735 7  93257145.54644  22774318.570                    22774326.770
 115252955.244 7  89807559.752 7  21931885.875                    21931893.613
 116364893.339 7  90674003.34145  22143504.570                    22143513.063
 116374172.270 7  90681259.60345  22145263.922                    22145272.477
 105337416.255 8  82081214.42046  20045026.195                    20045034.246
 118422377.684 7  92277216.66344  22535025.328                    22535034.633
 111900113.206 8  87194999.00446  21293874.898                    21293880.867
 124397631.892 6  96933259.511 6  23672084.016                    23672092.684
 11  8  2  0 21  0.0000000  0  8G28G17G09G10G04G27G02G12
 119758124.993 7  93318199.97344  22789229.070                    22789237.387
 115290224.963 7  89836601.079 7  21938978.094                    21938985.879
 116386474.758 7  90690820.01045  22147611.406                    22147619.707
 116295887.616 7  90620258.61844  22130367.297                    22130375.477
 105367765.335 8  82104863.05146  20050801.508                    20050809.000
 118448416.309 7  92297506.46344  22539980.367                    22539988.977
 111848337.217 8  87154654.10746  21284022.227                    21284028.449
 124302126.949 6  96858840.140 6  23653910.000                    23653918.648
 11  8  2  0 21 30.0000000  0  8G28G17G09G10G04G27G02G12
 119836811.305 7  93379513.90244  22804202.672                    22804210.664
 115327578.965 7  89865708.098 7  21946086.320                    21946094.031
 116408645.677 7  90708096.03145  22151830.445                    22151839.137
 116217919.648 7  90559504.40245  22115530.164                    22115538.684
 105398589.581 8  82128881.94246  20056667.094                    20056674.789
 118474877.935 7  92318125.88245  22545016.570                    22545024.336
 111796926.203 8  87114593.61446  21274239.453                    21274244.996
 124206699.653 6  96784481.285 6  23635750.586                    23635759.102
 11  8  2  0 22  0.0000000  0  8G28G17G09G10G04G27G02G12
 119915829.314 7  93441086.32444  22819239.031                    22819247.609
 115365017.369 7  89894880.868 7  21953210.859                    21953218.207
 116431403.942 7  90725829.73344  22156161.148                    22156169.465
 116140271.170 7  90498999.13344  22100754.164                    22100762.680
 105429886.848 8  82153269.42246  20062622.938                    20062630.512
 118501760.648 7  92339073.43044  22550131.828                    22550140.641
 111745880.431 8  87074817.72146  21264525.258                    21264531.316
 124111351.782 6  96710184.302 6  23617606.430                    23617615.461
 11  8  2  0 22 30.0000000  0  8G28G17G09G10G04G27G02G12
 119995178.679 7  93502916.94744  22834338.547                    22834347.281
 115402540.911 7  89924119.980 7  21960351.539                    21960358.844
 116454748.019 7  90744019.90744  22160603.367                    22160612.090
 116062945.804 7  90438745.65344  22086039.133                    22086047.766
 105461655.759 8  82178024.40946  20068668.531                    20068676.105
 118529063.083 7  92360348.01444  22555327.094                    22555336.113
 111695200.961 8  87035327.25446  21254881.445                    21254887.715
 124016085.898 6  96635951.195 6  23599477.609                    23599486.582
 11  8  2  0 23  0.0000000  0  8G28G17G09G10G04G27G02G12
 120074857.013 7  93565003.90144  22849501.289                    22849509.184
 115440149.521 7  89953425.394 7  21967507.836                    21967515.594
 116478675.961 7  90762665.05145  22165156.281                    22165165.539
 115985946.500 7  90378746.23945  22071387.305                    22071395.664
 105493893.702 8  82203144.88346  20074803.203                    20074810.563
 118556783.211 7  92381948.06544  22560602.242                    22560611.039
 111644887.497 8  86996121.99846  21245306.773                    21245312.340
 123920903.635 6  96561783.265 6  23581365.117                    23581373.633
 11  8  2  0 23 30.0000000  0  8G28G17G09G10G04G27G02G12
 120154863.883 7  93627346.88144  22864725.758                    22864734.352
 115477844.032 7  89982797.722 7  21974680.719                    21974688.773
 116503186.724 7  90781764.33445  22169820.898                    22169829.535
 115909277.142 7  90319003.91844  22056797.336                    22056805.980
 105526599.512 8  82228629.93046  20081026.367                    20081034.172
 118584919.977 7  92403872.78444  22565955.984                    22565965.250
 111594941.236 8  86957202.86646  21235802.773                    21235808.500
 123825808.088 7  96487682.899 6  23563269.344                    23563277.480
 11  8  2  0 24  0.0000000  0  8G28G17G09G10G04G27G02G12
 120235197.719 7  93689944.60344  22880013.188                    22880021.426
 115515623.487 7  90012236.239 7  21981870.305                    21981878.285
 116528277.212 7  90801315.34945  22174595.961                    22174604.113
 115832939.831 7  90259520.33645  22042271.086                    22042279.102
 105559769.999 8  82254477.06146  20087338.875                    20087346.828
 118613470.551 7  92426119.94544  22571389.813                    22571398.336
 111545360.971 8  86918568.92946  21226367.711                    21226373.977
 123730800.443 7  96413651.010 6  23545190.289                    23545198.043
 11  8  2  0 24 30.0000000  0  8G28G17G09G10G04G27G02G12
 120315857.407 7  93752796.28544  22895361.641                    22895370.605
 115553488.753 7  90041741.621 7  21989075.820                    21989083.266
 116553946.349 7  90821317.24945  22179480.141                    22179488.785
 115756938.687 7  90200298.69945  22027808.445                    22027816.543
 105593403.960 8  82280685.34046  20093739.242                    20093747.090
 118642433.938 7  92448688.78845  22576900.898                    22576909.887
 111496147.762 8  86880220.99846  21217003.109                    21217008.629
 123635883.552 7  96339689.809 6  23527128.609                    23527136.426
 11  8  2  0 25  0.0000000  0  8G28G17G09G10G04G27G02G12
 120396841.930 7  93815901.01644  22910773.453                    22910781.855
 115591440.078 7  90071314.057 7  21996297.625                    21996305.484
 116580191.871 7  90841768.31044  22184474.773                    22184483.098
 115681276.686 7  90141341.32845  22013410.516                    22013418.734
 105627499.283 8  82307253.11446  20100227.703                    20100235.293
 118671808.313 7  92471577.85444  22582490.828                    22582499.910
 111447301.945 8  86842159.35746  21207707.648                    21207713.762
 123541059.054 7  96265800.617 6  23509082.727                    23509092.051
 11  8  2  0 25 30.0000000  0  8G28G17G09G10G04G27G02G12
 120478150.194 7  93879258.07844  22926245.398                    22926254.043
 115629478.101 7  90100954.046 7  22003535.852                    22003543.844
 116607012.660 7  90862667.59944  22189578.469                    22189587.406
 115605957.508 7  90082651.09045  21999077.461                    21999086.031
 105662054.178 8  82334179.00946  20106802.789                    20106810.520
 118701592.259 7  92494786.09244  22588158.664                    22588167.176
 111398823.984 8  86804384.34546  21198482.453                    21198488.430
 123446329.516 6  96191985.447 6  23491056.648                    23491065.453
 11  8  2  0 26  0.0000000  0  9G28G17G09G10G04G27G02G12G05
 120559780.622 7  93942866.12944  22941779.219                    22941787.355
 115667603.149 7  90130661.848 7  22010791.492                    22010798.844
 116634406.203 7  90884013.20444  22194791.023                    22194799.434
 115530983.602 7  90024229.91145  21984810.352                    21984818.938
 105697066.224 8  82361461.11546  20113465.188                    20113473.598
 118731783.648 7  92518311.81844  22593904.406                    22593913.164
 111350713.794 8  86766895.91246  21189327.742                    21189333.270
 123351696.929 6  96118245.824 6  23473049.258                    23473057.434
 129718041.34716 101078870.77916  24684488.938                    24684501.758
 11  8  2  0 26 30.0000000  0  9G28G17G09G10G04G27G02G12G05
 120641732.047 7  94006724.32344  22957373.734                    22957382.195
 115705814.679 7  90160437.039 7  22018062.367                    22018070.051
 116662370.240 7  90905803.33145  22200112.641                    22200121.523
 115456358.085 7  89966080.18845  21970609.898                    21970618.082
 105732533.414 8  82389097.89046  20120214.547                    20120222.301
 118762380.545 7  92542153.50044  22599726.570                    22599735.516
 111302971.549 8  86729694.18546  21180242.336                    21180248.023
 123257163.649 6  96044583.548 6  23455060.133                    23455067.051
 129613774.618 6 100997624.231 6  24664647.469                    24664660.250
 11  8  2  0 27  0.0000000  0  9G28G17G09G10G04G27G02G12G05
 120724003.865 7  94070832.17243  22973029.586                    22973038.031
 115744114.078 7  90190280.697 7  22025350.672                    22025358.184
 116690903.395 7  90928036.93345  22205542.508                    22205550.445
 115382085.282 7  89908205.31745  21956475.672                    21956484.086
 105768454.435 8  82417088.28746  20127050.039                    20127058.148
 118793381.793 6  92566310.28244  22605625.539                    22605634.789
 111255598.246 8  86692779.94946  21171227.398                    21171233.051
 123162732.309 7  95971000.696 6  23437089.898                    23437097.426
 129509417.588 6 100916307.336 6  24644789.211                    24644801.184
 11  8  2  0 27 30.0000000  0  9G28G17G09G10G04G27G02G12G05
 120806593.981 7  94135188.05243  22988746.555                    22988754.703
 115782500.911 7  90220192.493 7  22032655.453                    22032662.941
 116720003.340 7  90950712.19545  22211079.352                    22211088.305
 115308167.248 7  89850606.89945  21942409.891                    21942418.379
 105804826.245 8  82445429.96146  20133971.406                    20133979.250
 118824784.883 7  92590780.19244  22611601.125                    22611610.281
 111208593.133 8  86656152.60346  21162282.938                    21162288.723
 123068404.764 6  95897498.743 6  23419139.813                    23419148.008
 129404972.439 6 100834921.744 6  24624914.063                    24624925.801
 11  8  2  0 28  0.0000000  0  9G28G17G09G10G04G27G02G12G05
 120889501.616 6  94199791.36044  23004523.563                    23004531.141
 115820975.929 7  90250173.002 7  22039976.828                    22039984.152
 116749668.419 7  90973827.80644  22216724.250                    22216733.629
 115234607.882 7  89793287.94445  21928411.711                    21928420.449
 105841647.465 8  82474121.81746  20140978.133                    20140985.980
 118856588.327 7  92615562.06044  22617653.414                    22617662.270
 111161956.877 8  86619812.68546  21153408.117                    21153413.824
 122974183.371 6  95824079.518 6  23401209.688                    23401218.223
 129300441.517 6 100753469.359 6  24605021.125                    24605033.922
 11  8  2  0 28 30.0000000  0  9G28G17G09G10G04G27G02G12G05
 120972725.115 7  94264640.75144  23020360.070                    23020368.906
 115859539.663 7  90280222.636 7  22047315.406                    22047322.898
 116779896.947 7  90997382.48044  22222477.016                    22222485.313
 115161410.397 7  89736250.99045  21914482.883                    21914491.113
 105878916.109 8  82503162.32146  20148070.070                    20148077.879
 118888790.667 7  92640654.76844  22623781.695                    22623790.207
 111115689.969 8  86583760.56946  21144603.656                    21144609.797
 122880070.673 7  95750744.982 6  23383301.477                    23383309.629
 129195827.754 6 100671952.366 6  24585114.242                    24585126.434
 11  8  2  0 29  0.0000000  0  9G28G17G09G10G04G27G02G12G05
 121056263.629 7  94329735.63144  23036257.422                    23036265.742
 115898191.895 7  90310341.235 7  22054670.859                    22054678.531
 116810686.211 7  91021374.08644  22228336.320                    22228344.891
 115088577.482 7  89679498.11745  21900623.398                    21900631.629
 105916629.792 8  82532549.60346  20155246.609                    20155254.836
 118921389.561 7  92666056.48044  22629985.094                    22629994.039
 111069792.097 8  86547996.01946  21135870.016                    21135875.555
 122786068.705 7  95677496.743 6  23365413.391                    23365421.039
 129091133.665 6 100590372.781 6  24565190.969                    24565203.656
 11  8  2  0 29 30.0000000  0  9G28G17G09G10G04G27G02G12G05
 121140115.096 7  94395074.37944  23052213.758                    23052222.387
 115936932.729 7  90340528.878 7  22062043.250                    22062050.465
 116842033.878 7  91045800.80744  22234301.430                    22234310.289
 115016111.981 7  89623031.53245  21886833.313                    21886842.145
 105954785.808 8  82562281.56646  20162507.953                    20162515.535
 118954382.712 7  92691765.39844  22636263.344                    22636272.426
 111024263.355 8  86512519.09446  21127205.789                    21127211.645
 122692179.192 7  95604336.128 6  23347546.672                    23347554.543
 128986361.300 6 100508732.187 6  24545253.375                    24545265.457
 11  8  2  0 30  0.0000000  0  9G28G17G09G10G04G27G02G12G05
 121224279.137 7  94460656.67244  23068229.789                    23068237.719
 115975763.192 7  90370786.367 7  22069432.172                    22069439.758
 116873938.641 7  91070661.61844  22240372.773                    22240381.313
 114944017.714 7  89566854.22945  21873114.227                    21873122.559
 105993383.025 8  82592357.31846  20169852.453                    20169860.500
 118987768.687 7  92717780.43545  22642616.438                    22642625.359
 110979104.491 8  86477330.39046  21118612.586                    21118618.484
 122598405.157 7  95531265.467 6  23329702.383                    23329709.977
 128881513.691 6 100427032.991 5  24525301.609                    24525313.234
 11  8  2  0 30 30.0000000  0  9G28G17G09G10G04G27G02G12G05
 121308753.702 7  94526480.90143  23084304.664                    23084313.199
 116014683.048 7  90401113.505 7  22076837.797                    22076845.805
 116906397.667 7  91095954.34344  22246549.508                    22246557.852
 114872297.478 7  89510968.37145  21859466.211                    21859474.980
 106032418.622 8  82622774.66246  20177280.930                    20177288.754
 119021545.236 7  92744099.77344  22649044.281                    22649052.984
 110934314.873 8  86442429.40946  21110089.070                    21110094.887
 122504748.401 7  95458286.227 6  23311879.555                    23311887.797
 128776593.252 6 100345276.992 6  24505336.164                    24505347.445
 11  8  2  0 31  0.0000000  0  9G28G17G09G10G04G27G02G12G05
 121393537.702 7  94592546.29743  23100437.938                    23100446.813
 116053693.139 7  90431510.957 7  22084261.617                    22084269.566
 116939409.442 7  91121677.78144  22252831.500                    22252839.648
 114800954.790 7  89455376.71445  21845890.305                    21845899.047
 106071890.807 8  82653532.20346  20184792.414                    20184799.965
 119055710.647 7  92770722.15544  22655545.117                    22655554.316
 110889895.086 8  86407816.60946  21101636.242                    21101642.340
 122411211.697 7  95385400.537 6  23294080.680                    23294088.234
 128671602.851 6 100263466.558 6  24485356.344                    24485368.535
 11  8  2  0 31 30.0000000  0  9G28G17G09G10G04G27G02G12G05
 121478629.898 6  94658851.79043  23116631.586                    23116639.621
 116092793.675 7  90461978.885 7  22091702.398                    22091710.273
 116972971.408 7  91147829.92544  22259217.820                    22259226.828
 114729992.300 7  89400081.30445  21832386.758                    21832394.621
 106111797.833 8  82684628.58546  20192386.227                    20192393.801
 119090263.151 7  92797646.17744  22662120.258                    22662129.156
 110845845.176 8  86373492.03446  21093253.922                    21093259.613
 122317797.328 7  95312610.180 6  23276304.172                    23276312.156
 128566544.987 6 100181603.543 6  24465364.641                    24465376.258
 11  8  2  0 32  0.0000000  0  9G28G17G09G10G04G27G02G12G05
 121564028.442 6  94725396.03644  23132882.188                    23132890.648
 116131984.560 7  90492517.214 7  22099160.094                    22099167.938
 117007081.156 7  91174408.91444  22265709.164                    22265717.805
 114659413.038 7  89345084.52945  21818954.984                    21818964.469
 106152136.827 8  82716061.56246  20200062.492                    20200070.070
 119125200.341 7  92824869.93845  22668769.078                    22668778.258
 110802164.794 8  86339455.38446  21084941.516                    21084947.352
 122224506.882 7  95239916.380 6  23258551.219                    23258559.363
 128461421.938 6 100099689.749 6  24445360.141                    24445371.750
 11  8  2  0 32 30.0000000  0  9G28G17G09G10G04G27G02G12G05
 121649732.602 6  94792178.42143  23149191.078                    23149199.785
 116171266.949 7  90523126.864 7  22106635.281                    22106643.063
 117041737.074 7  91201413.50444  22272303.539                    22272312.586
 114589220.780 7  89290389.30545  21805598.313                    21805607.266
 106192906.284 8  82747829.96646  20207820.609                    20207828.629
 119160521.002 7  92852392.50744  22675490.406                    22675499.520
 110758855.086 8  86305707.58146  21076700.484                    21076705.980
 122131343.296 7  95167321.413 6  23240823.156                    23240830.578
 128356236.847 6 100017727.589 6  24425343.219                    24425355.648
 11  8  2  0 33  0.0000000  0  9G28G17G09G10G04G27G02G12G05
 121735740.335 7  94859197.34143  23165557.641                    23165566.563
 116210640.724 7  90553807.711 7  22114127.859                    22114135.848
 117076936.237 7  91228841.38944  22279001.773                    22279010.461
 114519417.979 7  89235997.56945  21792315.078                    21792324.109
 106234103.514 8  82779931.69346  20215660.328                    20215668.090
 119196222.582 7  92880211.90544  22682283.641                    22682293.309
 110715915.302 8  86272248.02746  21068529.281                    21068534.930
 122038308.730 7  95094826.991 6  23223118.938                    23223126.824
 128250992.046 6  99935718.894 6  24405316.680                    24405328.012
 11  8  2  0 33 30.0000000  0  9G28G17G09G10G04G27G02G12G05
 121822050.607 6  94926452.00843  23181981.969                    23181990.891
 116250106.273 7  90584560.085 7  22121637.813                    22121645.563
 117112676.770 7  91256691.13244  22285803.711                    22285812.070
 114450007.973 7  89181911.88945  21779107.414                    21779115.668
 106275726.511 8  82812365.18846  20223580.852                    20223588.449
 119232303.278 7  92908326.69944  22689149.984                    22689159.227
 110673345.820 8  86239077.01846  21060428.641                    21060434.352
 121945405.746 7  95022435.098 6  23205440.008                    23205447.867
 128145690.144 6  99853665.707 6  24385277.750                    24385289.660
 11  8  2  0 34  0.0000000  0  9G28G17G09G10G04G27G02G12G05
 121908661.851 7  94993941.20043  23198464.016                    23198472.316
 116289663.874 7  90615384.177 7  22129165.742                    22129173.500
 117148956.170 7  91284960.77644  22292706.977                    22292715.363
 114380993.614 7  89128134.51845  21765974.039                    21765982.477
 106317772.959 8  82845128.64946  20231582.031                    20231590.023
 119268760.936 7  92936735.23944  22696087.602                    22696096.363
 110631146.381 8  86206194.34946  21052398.422                    21052403.609
 121852636.550 7  94950147.468 6  23187786.570                    23187794.582
 128040333.753 6  99771570.046 6  24365229.133                    24365240.727
 11  8  2  0 34 30.0000000  0  9G28G17G09G10G04G27G02G12G05
 121995572.636 6  95061663.82143  23215001.844                    23215010.785
 116329314.266 7  90646280.584 7  22136710.859                    22136718.840
 117185772.322 7  91313648.65944  22299713.219                    22299722.098
 114312378.219 7  89074668.03445  21752916.156                    21752925.445
 106360241.059 8  82878220.66546  20239663.445                    20239670.922
 119305593.723 7  92965436.08545  22703097.219                    22703105.715
 110589317.159 8  86173600.17646  21044438.070                    21044444.242
 121760003.282 7  94877965.730 6  23170159.563                    23170166.488
 127934925.515 6  99689433.965 6  24345170.141                    24345181.301
 11  8  2  0 35  0.0000000  0  9G28G17G09G10G04G27G02G12G05
 122082781.859 6  95129618.96143  23231597.633                    23231606.336
 116369057.731 7  90677249.517 7  22144273.914                    22144281.270
 117223122.832 7  91342752.92744  22306820.289                    22306828.824
 114244165.023 7  89021514.92345  21739936.227                    21739944.973
 106403128.629 8  82911639.54246  20247824.648                    20247832.258
 119342799.661 7  92994427.68744  22710177.109                    22710185.832
 110547858.533 8  86141294.77746  21036549.133                    21036554.793
 121667508.455 7  94805891.865 6  23152558.531                    23152565.344
 127829468.411 6  99607259.810 6  24325101.953                    24325113.199
 11  8  2  0 35 30.0000000  0  9G28G17G09G10G04G27G02G12G05
 122170287.647 6  95197805.20843  23248250.164                    23248258.660
 116408894.393 7  90708291.044 7  22151854.359                    22151861.965
 117261005.126 7  91372271.57344  22314029.523                    22314037.758
 114176356.938 7  88968677.50245  21727032.867                    21727041.484
 106446433.086 8  82945383.26846  20256065.391                    20256073.047
 119380376.488 7  93023708.30044  22717327.594                    22717336.289
 110506769.997 8  86109277.74946  21028730.180                    21028735.703
 121575154.597 7  94733927.863 6  23134983.852                    23134991.758
 127723964.604 6  99525049.245 6  24305025.750                    24305036.527
 11  8  2  0 36  0.0000000  0  9G28G17G09G10G04G27G02G12G05
 122258088.398 6  95266221.30843  23264957.414                    23264966.266
 116448824.567 7  90739405.444 7  22159452.766                    22159460.594
 117299416.721 7  91402202.66044  22321338.859                    22321347.098
 114108956.352 7  88916157.60545  21714206.742                    21714215.238
 106490151.961 8  82979449.92546  20264384.492                    20264392.465
 119418321.650 7  93053275.93144  22724547.984                    22724556.668
 110466051.364 8  86077548.96346  21020981.945                    21020987.352
 121482943.398 7  94662075.035 7  23117435.789                    23117444.340
 127618417.028 6  99442804.571 6  24284940.266                    24284951.762
 11  8  2  0 36 30.0000000  0  9G28G17G09G10G04G27G02G12G05
 122346183.131 6  95334866.47943  23281721.734                    23281730.414
 116488849.414 7  90770593.627 7  22167069.367                    22167077.039
 117338356.157 7  91432545.07544  22328748.133                    22328757.289
 114041967.264 7  88863958.35545  21701459.320                    21701467.977
 106534283.942 8  83013838.47146  20272782.430                    20272790.613
 119456634.122 7  93083129.76144  22731838.914                    22731847.621
 110425703.582 8  86046109.16346  21013303.633                    21013309.359
 121390878.311 7  94590336.043 7  23099917.102                    23099925.246
 127512828.341 6  99360527.899 6  24264847.344                    24264858.512
 11  8  2  0 37  0.0000000  0  9G28G17G09G10G04G27G02G12G05
 122434569.926 7  95403739.22643  23298541.180                    23298549.648
 116528968.941 7  90801855.588 7  22174703.672                    22174711.434
 117377820.309 7  91463296.34044  22336258.531                    22336267.461
 113975392.169 7  88812081.65345  21688790.625                    21688799.328
 106578826.228 8  83048546.75246  20281258.656                    20281266.469
 119495311.036 7  93113267.58044  22739198.781                    22739207.430
 110385726.026 8  86014957.83846  21005696.086                    21005701.652
 121298960.979 7  94518712.156 7  23082425.734                    23082433.313
 127407201.102 6  99278221.135 6  24244747.125                    24244757.875
 11  8  2  0 37 30.0000000  0  9G28G17G09G10G04G27G02G12G05
 122523247.491 6  95472838.55343  23315415.227                    23315424.664
 116569183.345 7  90833191.450 7  22182356.602                    22182364.203
 117417806.740 7  91494454.57144  22343867.641                    22343876.246
 113909234.230 7  88760530.08345  21676200.969                    21676209.816
 106623776.658 8  83083573.05846  20289812.672                    20289820.699
 119534350.306 7  93143687.73844  22746627.836                    22746637.020
 110346118.458 8  85984094.83346  20998158.930                    20998164.938
 121207193.953 7  94447205.414 7  23064962.828                    23064971.035
 127301538.546 6  99195886.864 6  24224640.063                    24224650.363
 11  8  2  0 38  0.0000000  0  9G28G17G09G10G04G27G02G12G05
 122612214.227 6  95542163.18343  23332345.789                    23332355.203
 116609492.884 7  90864601.456 7  22190026.898                    22190034.379
 117458312.864 7  91526017.75944  22351575.781                    22351583.723
 113843496.121 7  88709305.61445  21663691.141                    21663699.676
 106669133.011 8  83118915.67046  20298443.844                    20298451.359
 119573749.907 7  93174388.68244  22754125.781                    22754134.352
 110306881.098 8  85953520.28846  20990692.078                    20990698.051
 121115579.853 7  94375817.839 7  23047528.898                    23047537.426
 127195842.548 5  99113526.523 6  24204526.258                    24204536.988
 11  8  2  0 38 30.0000000  0  9G28G17G09G10G04G27G02G12G05
 122701468.497 6  95611711.89343  23349330.734                    23349339.461
 116649898.596 7  90896086.414 7  22197716.078                    22197724.031
 117499336.823 7  91557984.44644  22359382.570                    22359391.102
 113778181.143 7  88658410.85945  21651262.586                    21651270.855
 106714893.118 8  83154572.89346  20307151.555                    20307159.277
 119613507.940 7  93205368.95444  22761691.172                    22761699.660
 110268014.030 8  85923234.29546  20983296.266                    20983302.066
 121024120.868 7  94304551.129 7  23030125.391                    23030133.168
 127090116.146 6  99031142.471 6  24184407.266                    24184418.000
 11  8  2  0 39  0.0000000  0  9G28G17G09G10G04G27G02G12G05
 122791009.090 6  95681483.72343  23366369.953                    23366378.660
 116690400.635 7  90927646.428 7  22205423.297                    22205430.895
 117540875.841 7  91590352.48444  22367286.664                    22367295.633
 113713292.324 7  88607848.18045  21638914.578                    21638922.773
 106761054.825 8  83190543.04846  20315935.758                    20315943.500
 119653622.290 7  93236626.85144  22769324.695                    22769333.512
 110229517.090 8  85893236.71546  20975970.680                    20975976.219
 120932819.342 7  94233407.128 6  23012750.820                    23012759.234
 126984362.082 6  98948736.853 6  24164282.781                    24164292.738
 11  8  2  0 39 30.0000000  0  9G28G17G09G10G04G27G02G12G05
 122880833.873 6  95751476.96943  23383462.953                    23383471.383
 116730999.399 7  90959281.810 7  22213149.117                    22213157.035
 117582927.031 7  91623119.62344  22375289.219                    22375297.844
 113648832.147 7  88557619.49545  21626648.016                    21626656.215
 106807615.502 8  83226824.08846  20324796.250                    20324803.977
 119694090.270 7  93268160.30544  22777025.336                    22777034.090
 110191389.721 8  85863527.09646  20968715.016                    20968720.828
 120841677.546 7  94162387.561 6  22995406.961                    22995414.543
 126878583.160 6  98866311.877 6  24144153.836                    24144164.359
 11  8  2  0 40  0.0000000  0  9G28G17G09G10G04G27G02G12G05
 122970941.826 6  95821690.87943  23400609.016                    23400618.277
 116771695.463 7  90990993.012 7  22220893.477                    22220901.156
 117625488.264 7  91656284.17444  22383388.313                    22383397.207
 113584803.895 7  88507727.38345  21614463.883                    21614472.461
 106854573.331 8  83263414.59846  20333731.727                    20333739.781
 119734910.043 7  93299967.88744  22784793.477                    22784802.488
 110153632.401 8  85834105.83146  20961529.836                    20961535.422
 120750698.457 7  94091494.753 6  22978094.781                    22978102.551
 126772782.264 6  98783869.767 6  24124020.508                    24124030.914
 11  8  2  0 40 30.0000000  0  9G28G17G09G10G04G27G02G12G05
 123061331.385 6  95892124.21743  23417810.734                    23417818.848
 116812489.011 7  91022780.150 7  22228656.180                    22228663.941
 117668556.660 7  91689843.95544  22391584.031                    22391592.531
 113521210.786 7  88458174.34345  21602362.320                    21602371.195
 106901926.002 8  83300312.77046  20342742.609                    20342750.246
 119776079.494 7  93332047.94144  22792627.664                    22792636.605
 110116244.913 8  85804972.74946  20954415.414                    20954421.129
 120659884.309 7  94020730.516 7  22960813.195                    22960821.180
 126666961.826 6  98701412.466 6  24103883.445                    24103894.328
 11  8  2  0 41  0.0000000  0  9G28G17G09G10G04G27G02G12G05
 123152000.673 6  95962775.52643  23435064.414                    23435072.895
 116853380.411 7  91054643.554 7  22236437.094                    22236444.898
 117712129.528 7  91723796.82844  22399875.398                    22399884.016
 113458054.870 7  88408961.98045  21590344.141                    21590352.977
 106949670.847 8  83337516.54546  20351827.875                    20351836.090
 119817596.134 7  93364398.52744  22800528.086                    22800536.777
 110079226.712 8  85776127.41946  20947370.742                    20947376.863
 120569237.024 7  93950096.313 6  22943563.445                    22943571.340
 126561124.352 6  98618941.859 6  24083742.898                    24083753.758
 11  8  2  0 41 30.0000000  0  9G28G17G09G10G04G27G02G12G05
 123242948.069 6  96033643.54043  23452370.859                    23452379.355
 116894370.471 7  91086583.845 7  22244237.492                    22244245.223
 117756204.836 7  91758141.19144  22408262.398                    22408271.875
 113395339.436 7  88360092.83745  21578409.672                    21578418.535
 106997805.874 8  83375024.35146  20360988.156                    20360995.688
 119859458.016 7  93397018.13744  22808494.125                    22808503.152
 110042578.214 8  85747570.17646  20940396.961                    20940402.484
 120478759.826 7  93879594.620 6  22926346.992                    22926353.840
 126455273.142 6  98536460.585 6  24063599.930                    24063611.188
 11  8  2  0 42  0.0000000  0  9G28G17G09G10G04G27G02G12G05
 123334171.788 6  96104726.87443  23469730.242                    23469738.949
 116935459.254 7  91118601.071 7  22252056.398                    22252064.242
 117800779.310 6  91792874.52544  22416744.820                    22416753.684
 113333067.515 7  88311569.30545  21566559.703                    21566568.137
 107046328.513 8  83412834.19446  20370221.586                    20370229.465
 119901662.320 7  93429904.55544  22816525.406                    22816534.930
 110006298.708 8  85719300.45146  20933493.141                    20933498.773
 120388454.483 7  93809226.824 6  22909162.055                    22909169.441
 126349410.312 6  98453970.254 6  24043455.117                    24043465.926
 11  8  2  0 42 30.0000000  0  9G28G17G09G10G04G27G02G12G05
 123425670.699 6  96176024.65543  23487142.086                    23487150.723
 116976647.604 7  91150695.891 7  22259894.000                    22259902.172
 117845850.906 7  91827995.21544  22425322.219                    22425330.848
 113271242.302 7  88263393.84545  21554794.797                    21554803.418
 107095237.092 8  83450944.76246  20379528.242                    20379536.246
 119944207.681 7  93463056.75244  22824621.414                    22824630.719
 109970388.633 8  85691318.58946  20926659.719                    20926665.566
 120298323.993 7  93738995.320 6  22892010.430                    22892018.996
 126243539.522 6  98371473.691 6  24023308.063                    24023318.633
 11  8  2  0 43  0.0000000  0  9G28G17G09G10G04G27G02G12G05
 123517442.763 6  96247535.25543  23504605.023                    23504614.352
 117017935.607 7  91182868.355 7  22267751.188                    22267759.020
 117891416.371 7  91863500.75944  22433992.984                    22434001.367
 113209865.660 7  88215567.92745  21543114.977                    21543123.371
 107144528.522 8  83489353.65546  20388908.172                    20388915.961
 119987091.323 7  93496472.54044  22832781.758                    22832790.691
 109934847.044 8  85663623.86246  20919896.086                    20919901.609
 120208370.060 7  93668901.396 7  22874892.516                    22874900.922
 126137662.721 6  98288972.479 6  24003160.508                    24003171.160
 11  8  2  0 43 30.0000000  0  9G28G17G09G10G04G27G02G12G05
 123609486.554 6  96319257.59143  23522120.813                    23522129.758
 117059324.058 7  91215119.085 7  22275627.242                    22275635.090
 117937473.406 7  91899389.33344  22442757.414                    22442766.441
 113148941.387 7  88168094.50645  21531521.586                    21531530.234
 107194200.852 8  83528059.35646  20398360.555                    20398368.957
 120030311.175 7  93530150.29644  22841006.086                    22841015.727
 109899674.134 8  85636216.42046  20913203.219                    20913209.160
 120118595.650 7  93598947.362 7  22857809.297                    22857817.035
 126031782.807 6  98206468.848 6  23983011.141                    23983022.105
 11  8  2  0 44  0.0000000  0  9G28G17G09G10G04G27G02G12G05
 123701800.627 6  96391190.54643  23539687.688                    23539697.027
 117100813.295 7  91247448.335 7  22283522.195                    22283530.023
 117984019.515 7  91935658.98944  22451614.781                    22451623.398
 113088472.320 7  88120975.79045  21520014.914                    21520023.465
 107244252.035 8  83567060.26346  20407885.406                    20407893.063
 120073865.171 7  93564088.43644  22849294.680                    22849304.063
 109864870.081 8  85609096.41646  20906580.625                    20906586.129
 120029003.205 7  93529135.083 7  22840760.211                    22840768.113
 125925902.978 6  98123965.262 6  23962863.945                    23962874.074
 11  8  2  0 44 30.0000000  0  9G28G17G09G10G04G27G02G12G05
 123794383.050 6  96463332.60643  23557306.180                    23557315.430
 117142403.859 7  91279856.545 7  22291437.000                    22291444.703
 118031051.788 6  91972307.48544  22460564.836                    22460573.773
 113028460.947 7  88074213.71045  21508594.922                    21508603.746
 107294679.841 8  83606354.64846  20417481.406                    20417489.609
 120117750.888 6  93598285.06244  22857645.438                    22857654.520
 109830434.726 8  85582263.69146  20900027.320                    20900032.906
 119939595.434 7  93459466.745 7  22823746.219                    22823754.504
 125820025.927 6  98041463.863 6  23942715.930                    23942726.484
 11  8  2  0 45  0.0000000  0  9G28G17G09G10G04G27G02G12G05
 123887232.039 6  96535682.37143  23574974.016                    23574983.859
 117184096.018 7  91312343.930 7  22299370.586                    22299378.824
 118078567.345 6  92009332.56744  22469606.406                    22469615.508
 112968909.819 7  88027810.27345  21497263.102                    21497271.398
 107345481.395 8  83645940.25846  20427148.266                    20427156.020
 120161965.583 7  93632738.03444  22866059.430                    22866068.922
 109796367.350 8  85555717.70646  20893544.594                    20893550.082
 119850374.869 7  93389944.277 7  22806768.820                    22806777.148
 125714154.234 6  97958966.616 6  23922569.031                    23922579.242
 11  8  2  0 45 30.0000000  0  9G28G17G09G10G04G27G02G12G05
 123980346.130 6  96608238.71743  23592693.242                    23592702.664
 117225890.288 7  91344910.882 7  22307323.820                    22307331.516
 118126563.507 7  92046732.14444  22478739.555                    22478748.914
 112909822.040 7  87981767.86445  21486018.609                    21486026.574
 107396654.707 8  83685815.55946  20436886.219                    20436894.387
 120206507.125 7  93667445.69544  22874535.516                    22874544.336
 109762667.764 8  85529458.30646  20887131.953                    20887137.238
 119761343.400 7  93320569.164 7  22789826.250                    22789834.145
 125608290.420 6  97876475.507 6  23902423.047                    23902433.703
 11  8  2  0 46  0.0000000  0  9G28G17G09G10G04G27G02G12G05
 124073723.873 6  96681000.49343  23610463.047                    23610471.723
 117267787.649 7  91377558.159 7  22315296.727                    22315304.555
 118175038.214 7  92084504.60344  22487964.352                    22487973.371
 112851200.545 7  87936088.81345  21474863.070                    21474871.551
 107448197.687 8  83725978.90846  20446694.945                    20446702.762
 120251373.818 7  93702406.72144  22883073.328                    22883082.598
 109729336.047 8  85503485.55146  20880789.273                    20880794.906
 119672504.001 7  93251343.684 7  22772920.695                    22772928.438
 125502437.829 6  97793993.154 6  23882279.539                    23882290.867
 11  8  2  0 46 30.0000000  0  9G28G17G09G10G04G27G02G12G05
 124167362.321 6  96753965.43343  23628281.750                    23628290.859
 117309787.667 7  91410285.447 7  22323288.836                    22323296.836
 118223987.010 7  92122646.48344  22497278.602                    22497287.898
 112793046.556 7  87890774.04245  21463797.141                    21463805.590
 107500106.925 8  83766427.65646  20456572.969                    20456581.328
 120296561.857 7  93737618.14844  22891672.414                    22891681.875
 109696370.722 8  85477798.30046  20874515.750                    20874521.535
 119583858.112 7  93182269.000 7  22756052.172                    22756059.590
 125396598.094 6  97711520.778 6  23862139.797                    23862149.676
 11  8  2  0 47  0.0000000  0  9G28G17G09G10G04G27G02G12G05
 124261261.408 6  96827133.44243  23646149.969                    23646159.254
 117351891.578 7  91443093.669 7  22331301.102                    22331309.207
 118273408.898 6  92161157.01544  22506683.266                    22506693.047
 112735364.828 7  87845827.28045  21452820.602                    21452829.063
 107552381.517 8  83807161.09146  20466520.258                    20466528.535
 120342070.580 7  93773079.44344  22900332.367                    22900341.797
 109663773.342 8  85452397.76346  20868312.859                    20868318.715
 119495409.770 7  93113348.238 7  22739221.063                    22739228.578
 125290775.502 7  97629061.758 6  23842001.664                    23842011.863
 11  8  2  0 47 30.0000000  0  9G28G17G09G10G04G27G02G12G05
 124355418.375 6  96900502.44743  23664068.859                    23664076.422
 117394099.609 7  91475983.033 7  22339333.195                    22339340.199
 118323300.324 6  92200033.42644  22516177.617                    22516187.082
 112678157.259 7  87801249.98545  21441935.047                    21441942.730
 107605018.313 8  83848176.76946  20476536.719                    20476544.684
 120387896.751 7  93808788.10344  22909053.039                    22909062.063
 109631542.561 8  85427282.87946  20862179.344                    20862185.438
 119407160.648 7  93044582.727 7  22722427.625                    22722435.371
 125184972.334 7  97546617.892 6  23821867.891                    23821878.375
 11  8  2  0 48  0.0000000  0  9G28G17G09G10G04G27G02G12G05
 124449831.608 6  96974071.05643  23682034.859                    23682043.020
 117436412.061 7  91508953.752 7  22347385.211                    22347392.379
 118373658.254 7  92239273.34444  22525760.578                    22525769.934
 112621426.620 7  87757044.32245  21431139.352                    21431147.516
 107658015.113 8  83889472.95846  20486622.078                    20486629.410
 120434038.040 7  93844742.32344  22917832.906                    22917842.082
 109599677.866 8  85402453.26646  20856115.711                    20856121.629
 119319113.262 7  92975974.417 7  22705672.773                    22705679.965
 125079191.455 7  97464191.375 6  23801738.984                    23801749.004
 11  8  2  0 48 30.0000000  0  9G28G17G09G10G04G27G02G12G05
 124544499.275 6  97047838.03143  23700049.125                    23700058.402
 117478829.686 7  91542006.425 7  22355456.289                    22355464.469
 118424479.861 7  92278874.56544  22535431.953                    22535440.227
 112565175.428 7  87713212.26545  21420434.188                    21420442.980
 107711369.441 8  83931047.75246  20496774.594                    20496782.957
 120480491.986 7  93880940.19344  22926673.352                    22926682.527
 109568179.312 8  85377908.95646  20850121.719                    20850127.652
 119231270.413 7  92907525.465 7  22688956.844                    22688964.316
 124973435.318 7  97381784.141 6  23781613.953                    23781623.848
 11  8  2  0 49  0.0000000  0  9G28G17G09G10G04G27G02G12G05
 124639420.269 6  97121802.37143  23718111.625                    23718120.621
 117521352.890 7  91575141.356 7  22363548.125                    22363556.406
 118475762.693 7  92318835.16944  22545190.336                    22545199.621
 112509406.492 7  87669755.98245  21409822.203                    21409830.430
 107765079.236 8  83972899.53846  20506994.984                    20507003.574
 120527256.365 7  93917379.90044  22935571.602                    22935581.410
 109537046.755 7  85353649.83546  20844197.359                    20844203.086
 119143634.302 7  92839237.618 7  22672280.508                    22672287.598
 124867706.928 7  97299398.507 6  23761494.180                    23761504.195
 11  8  2  0 49 30.0000000  0  9G28G17G09G10G04G27G02G12G05
 124734592.873 6  97195962.71543  23736222.836                    23736231.586
 117563982.741 7  91608359.418 7  22371660.547                    22371668.500
 118527504.177 7  92359153.16844  22555036.367                    22555045.750
 112454123.024 7  87626677.98445  21399302.211                    21399309.973
 107819142.633 8  84015026.85446  20517283.539                    20517291.469
 120574329.539 7  93954060.25844  22944530.180                    22944538.949
 109506280.567 8  85329676.21246  20838342.570                    20838348.477
 119056207.919 7  92771113.190 7  22655643.406                    22655651.402
 124762009.839 7  97217037.308 6  23741380.180                    23741390.773
 11  8  2  0 50  0.0000000  0  9G28G17G09G10G04G27G02G12G05
 124830014.800 6  97270317.40543  23754381.211                    23754389.887
 117606719.574 7  91641660.811 7  22379793.180                    22379801.371
 118579701.105 7  92399826.06244  22564969.328                    22564978.379
 112399327.089 7  87583979.88445  21388874.773                    21388882.395
 107873556.701 8  84057427.42146  20527638.453                    20527646.227
 120621708.440 7  93990978.83444  22953546.164                    22953555.531
 109475879.444 8  85305987.03946  20832557.773                    20832563.266
 118968993.519 7  92703153.945 7  22639046.984                    22639054.625
 124656346.323 6  97134702.272 6  23721273.328                    23721283.770
 11  8  2  0 50 30.0000000  0  9G28G17G09G10G04G27G02G12G05
 124925683.901 6  97344864.66243  23772585.836                    23772595.137
 117649563.014 7  91675045.277 7  22387946.109                    22387954.035
 118632350.246 7  92440851.33044  22574988.383                    22574996.789
 112345021.135 7  87541663.58945  21378540.516                    21378548.848
 107928318.801 8  84100099.18546  20538058.813                    20538066.633
 120669390.098 7  94028133.34944  22962619.320                    22962628.723
 109445842.637 8  85282581.75246  20826841.820                    20826847.578
 118881993.264 7  92635361.560 7  22622491.445                    22622498.762
 124550718.672 6  97052395.162 6  23701172.844                    23701182.941
 11  8  2  0 51  0.0000000  0  9G28G17G09G10G04G27G02G12G05
 125021598.704 6  97419603.36343  23790838.648                    23790847.641
 117692514.036 7  91708513.594 7  22396119.227                    22396127.336
 118685448.617 7  92482226.64944  22585092.609                    22585101.523
 112291207.975 7  87499731.28545  21368300.500                    21368308.480
 107983426.777 8  84143040.46046  20548545.797                    20548553.586
 120717372.533 7  94065522.21844  22971750.422                    22971759.359
 109416170.250 8  85259460.42446  20821195.227                    20821200.891
 118795209.862 7  92567738.147 7  22605977.516                    22605984.688
 124445130.466 6  96970118.788 6  23681079.602                    23681090.219
 11  8  2  0 51 30.0000000  0  9G28G17G09G10G04G27G02G12G05
 125117757.297 6  97494532.08543  23809137.516                    23809145.688
 117735573.295 7  91742066.248 7  22404313.242                    22404321.559
 118738993.392 7  92523949.81144  22595281.328                    22595290.754
 112237890.007 7  87458184.84645  21358154.023                    21358162.457
 108038878.348 8  84186249.46646  20559097.609                    20559105.480
 120765653.226 7  94103143.50244  22980938.141                    22980946.965
 109386861.803 8  85236622.68746  20815618.023                    20815623.688
 118708646.146 7  92500285.927 7  22589504.625                    22589512.438
 124339584.146 6  96887875.057 6  23660995.234                    23661004.891
 11  8  2  0 52  0.0000000  0  9G28G17G09G10G04G27G02G12G05
 125214158.476 6  97569649.77543  23827481.078                    23827490.289
 117778741.369 7  91775703.667 7  22412528.602                    22412536.375
 118792981.812 6  92566018.67244  22605555.930                    22605564.492
 112185070.094 8  87417026.50145  21348102.930                    21348111.242
 108094671.472 8  84229724.61546  20569715.070                    20569722.746
 120814229.920 7  94140995.46244  22990181.641                    22990190.516
 109357917.442 8  85214068.66046  20810110.297                    20810115.891
 118622304.487 7  92433006.741 7  22573074.375                    22573081.945
 124234082.960 6  96805666.487 6  23640918.695                    23640928.816
 11  8  2  0 52 30.0000000  0  9G28G17G09G10G04G27G02G12G05
 125310800.095 6  97644954.82143  23845871.859                    23845880.723
 117822018.655 7  91809426.211 7  22420763.703                    22420771.445
 118847410.976 7  92608430.95944  22615913.352                    22615921.820
 112132750.591 8  87376258.08745  21338146.438                    21338154.570
 108150803.523 8  84273463.86646  20580396.445                    20580404.141
 120863100.201 7  94179076.16944  22999481.227                    22999490.531
 109329336.343 8  85191797.68746  20804671.102                    20804677.152
 118536187.425 7  92365902.547 7  22556687.289                    22556694.699
 124128629.530 6  96723495.142 6  23620852.000                    23620861.813
 11  8  2  0 53  0.0000000  0  9G28G17G09G10G04G27G02G12G05
 125407679.884 6  97720445.46843  23864307.727                    23864316.148
 117865405.656 7  91843234.236 7  22429020.156                    22429028.160
 118902277.409 7  92651183.99744  22626353.516                    22626362.703
 112080934.119 7  87335881.64645  21328286.305                    21328294.664
 108207271.855 8  84317465.15746  20591141.734                    20591149.777
 120912261.231 7  94217383.41044  23008837.031                    23008845.262
 109301117.904 8  85169809.31146  20799301.422                    20799306.973
 118450297.260 7  92298975.182 7  22540342.500                    22540350.336
 124023226.562 7  96641363.099 6  23600793.813                    23600804.125
 11  8  2  0 53 30.0000000  0  9G28G17G09G10G04G27G02G12G05
 125504797.024 6  97796121.08443  23882788.836                    23882797.082
 117908903.343 7  91877128.509 7  22437297.031                    22437304.711
 118957578.914 7  92694276.05244  22636877.227                    22636885.938
 112029623.569 8  87295899.42545  21318522.047                    21318530.129
 108264075.091 8  84361727.40046  20601951.445                    20601958.863
 120961711.296 7  94255915.89844  23018246.484                    23018255.484
 109273262.306 8  85148103.67346  20794000.672                    20794006.488
 118364637.314 7  92232227.194 7  22524041.820                    22524049.523
 123917877.909 7  96559273.397 6  23580746.984                    23580757.238
 11  8  2  0 54  0.0000000  0  9G28G17G09G10G04G27G02G12G05
 125602148.645 6  97871979.37643  23901313.711                    23901322.547
 117952511.305 7  91911108.714 7  22445595.477                    22445603.387
 119013311.617 7  92737704.10244  22647483.406                    22647491.875
 111978820.545 7  87256312.68445  21308854.922                    21308863.051
 108321209.516 8  84406247.72446  20612823.781                    20612831.402
 121011446.955 7  94294670.91344  23027710.516                    23027720.242
 109245768.402 8  85126679.86946  20788768.773                    20788774.551
 118279209.112 7  92165659.790 7  22507785.234                    22507792.719
 123812585.263 7  96477227.307 6  23560710.211                    23560719.664
 11  8  2  0 54 30.0000000  0  9G28G17G09G10G04G27G02G12G05
 125699733.361 6  97948019.36543  23919883.305                    23919892.496
 117996230.952 7  91945175.944 7  22453914.672                    22453922.805
 119069473.252 6  92781466.37644  22658170.297                    22658178.770
 111928528.143 7  87217123.82945  21299284.617                    21299293.078
 108378673.801 8  84451025.07646  20623758.859                    20623766.621
 121061466.558 7  94333647.17744  23037229.180                    23037238.730
 109218636.307 8  85105537.99946  20783605.805                    20783611.184
 118194016.125 7  92099275.664 7  22491573.578                    22491581.266
 123707352.068 7  96395227.546 6  23540684.586                    23540694.234
 11  8  2  0 55  0.0000000  0  9G28G17G09G10G04G27G02G12G05
 125797548.773 6  98024239.06443  23938497.430                    23938506.344
 118040062.186 7  91979330.133 7  22462255.930                    22462263.414
 119126059.990 7  92825559.90544  22668938.500                    22668946.949
 111878748.161 7  87178334.25745  21289811.539                    21289819.852
 108436464.673 8  84496056.91846  20634755.648                    20634763.430
 121111766.778 7  94372842.10144  23046800.594                    23046810.742
 109191864.953 8  85084677.22146  20778511.305                    20778516.914
 118109060.052 7  92033076.150 7  22475406.461                    22475414.484
 123602180.563 7  96313275.859 6  23520671.516                    23520681.066
 11  8  2  0 55 30.0000000  0  9G28G17G09G10G04G27G02G12G05
 125895594.030 6  98100637.94543  23957153.508                    23957163.930
 118084006.359 7  92013572.316 7  22470618.320                    22470625.969
 119183069.767 7  92869983.10044  22679787.367                    22679796.051
 111829484.077 7  87139946.67845  21280436.891                    21280445.105
 108494581.032 8  84541342.37846  20645814.789                    20645822.723
 121162346.030 7  94412254.44844  23056425.680                    23056436.027
 109165454.663 8  85064097.79146  20773485.086                    20773491.164
 118024344.364 7  91967063.958 7  22459285.656                    22459293.461
 123497074.855 7  96231375.429 6  23500670.516                    23500679.648
 11  8  2  0 56  0.0000000  0  9G28G17G09G10G04G27G02G12G05
 125993866.427 6  98177213.65843  23975854.938                    23975864.758
 118128063.133 7  92047902.261 7  22479002.352                    22479009.840
 119240498.606 6  92914732.81344  22690715.664                    22690724.383
 111780737.420 7  87101962.29245  21271160.328                    21271168.781
 108553019.409 8  84586878.76746  20656935.266                    20656943.352
 121213201.048 7  94451881.69644  23066103.445                    23066112.664
 109139404.278 8  85043798.80146  20768528.469                    20768533.941
 117939870.769 7  91901240.401 7  22443211.141                    22443218.777
 123392036.937 7  96149527.821 6  23480682.555                    23480692.121
 11  8  2  0 56 30.0000000  0  9G28G17G09G10G04G27G02G12G05
 126092364.268 6  98253965.22342  23994598.141                    23994607.867
 118172233.461 7  92082320.674 7  22487407.742                    22487415.176
 119298344.029 7  92959807.14244  22701723.094                    22701731.949
 111732510.739 7  87064383.08845  21261983.148                    21261991.488
 108611777.764 7  84632664.48146  20668116.828                    20668124.781
 121264329.590 7  94491722.05244  23075833.297                    23075842.367
 109113713.375 8  85023779.92546  20763639.445                    20763645.195
 117855641.957 7  91835607.581 7  22427182.859                    22427190.316
 123287069.659 7  96067735.255 6  23460707.711                    23460717.109
 11  8  2  0 57  0.0000000  0  9G28G17G09G10G04G27G02G12G05
 126191085.350 6  98330890.61943  24013384.766                    24013394.254
 118216517.367 7  92116827.603 7  22495834.242                    22495842.039
 119356602.687 7  93005203.48144  22712809.563                    22712818.281
 111684806.572 7  87027211.04445  21252905.359                    21252913.660
 108670853.548 8  84678697.54946  20679358.516                    20679366.727
 121315728.916 7  94531773.41844  23085614.648                    23085623.684
 109088381.296 8  85004040.66746  20758818.969                    20758824.773
 117771660.571 7  91770167.571 7  22411201.617                    22411209.512
 123182175.943 7  95986000.007 6  23440747.242                    23440756.375
 11  8  2  0 57 30.0000000  0  9G28G17G09G10G04G27G02G12G05
 126290028.664 6  98407989.24142  24032213.227                    24032222.168
 118260916.695 7  92151424.482 7  22504283.000                    22504290.688
 119415272.166 7  93050919.93344  22723973.695                    22723982.820
 111637627.997 7  86990448.54545  21243927.617                    21243936.152
 108730245.332 8  84724976.85046  20690660.352                    20690668.410
 121367397.285 7  94572034.43544  23095445.883                    23095455.422
 109063408.603 8  84984581.44046  20754066.852                    20754072.164
 117687929.909 7  91704922.935 7  22395268.578                    22395276.477
 123077359.482 6  95904324.936 6  23420801.109                    23420809.840
 11  8  2  0 58  0.0000000  0  9G28G17G09G10G04G27G02G12G05
 126389191.695 6  98485259.05043  24051083.531                    24051093.230
 118305430.980 7  92186110.914 7  22512753.789                    22512761.590
 119474348.593 7  93096953.48744  22735215.273                    22735224.969
 111590976.608 7  86954096.84945  21235050.484                    21235058.512
 108789949.865 8  84771499.85346  20702021.680                    20702029.402
 121419331.474 7  94612502.58244  23105329.648                    23105338.105
 109038793.960 8  84965401.21646  20749382.602                    20749388.063
 117604452.103 7  91639875.311 7  22379383.453                    22379390.934
 122972622.572 6  95822711.893 6  23400869.289                    23400878.898
 11  8  2  0 58 30.0000000  0  9G28G17G09G10G04G27G02G12G05
 126488572.062 6  98562698.18743  24069995.141                    24070004.824
 118350060.371 7  92220887.048 7  22521246.703                    22521254.504
 119533828.560 7  93143301.48944  22746534.227                    22746543.617
 111544853.665 7  86918156.92645  21226273.039                    21226281.504
 108849964.314 8  84818264.34646  20713442.313                    20713450.391
 121471528.053 6  94653175.20244  23115261.258                    23115271.156
 109014536.067 8  84946498.97346  20744766.633                    20744772.523
 117521228.792 7  91575026.008 7  22363546.148                    22363554.332
 122867967.428 6  95741162.552 6  23380954.445                    23380964.293
 11  8  2  0 59  0.0000000  0  9G28G17G09G10G04G27G02G12G05
 126588169.181 6  98640306.25943  24088948.266                    24088957.398
 118394806.861 7  92255754.433 7  22529761.844                    22529769.578
 119593710.438 7  93189962.67344  22757928.719                    22757938.688
 111499263.650 7  86882632.24545  21217597.391                    21217606.043
 108910288.268 8  84865270.01746  20724921.398                    20724929.555
 121523986.602 6  94694051.93244  23125244.523                    23125253.703
 108990636.562 8  84927875.99346  20740218.859                    20740224.445
 117438264.298 7  91510378.377 7  22347758.430                    22347766.098
 122763398.967 7  95659680.748 6  23361055.117                    23361065.313
 11  8  2  0 59 30.0000000  0  9G28G17G09G10G04G27G02G12G05
 126687979.911 6  98718080.77543  24107941.383                    24107950.742
 118439670.012 7  92290712.719 7  22538298.688                    22538306.543
 119653989.713 7  93236933.49844  22769399.742                    22769409.371
 111454207.528 7  86847523.60345  21209023.836                    21209031.910
 108970917.705 8  84912513.72246  20736458.945                    20736467.043
 121576702.902 7  94735129.50944  23135275.477                    23135285.434
 108967092.947 8  84909530.33546  20735738.445                    20735744.160
 117355559.824 7  91445933.359 7  22332020.523                    22332027.906
 122658918.645 7  95578267.631 6  23341173.883                    23341182.973
 11  8  2  1  0  0.0000000  0  9G28G17G09G10G04G27G02G12G05
 126788002.242 6  98796020.14143  24126974.789                    24126984.633
 118484650.502 7  92325762.423 7  22546858.828                    22546866.461
 119714663.316 7  93284211.57744  22780946.078                    22780955.316
 111409687.527 7  86812832.72145  21200551.836                    21200559.977
 109031850.462 8  84959993.78946  20748053.977                    20748061.469
 121629674.631 7  94776406.13144  23145355.609                    23145365.137
 108943905.115 8  84891461.90546  20731326.047                    20731331.688
 117273118.290 7  91381693.231 7  22316332.273                    22316339.934
 122554529.555 7  95496925.600 6  23321308.070                    23321318.043
 11  8  2  1  0 30.0000000  0  9G28G17G09G10G04G27G02G12G05
 126888234.868 6  98874123.42743  24146048.484                    24146058.215
 118529748.962 7  92360904.078 7  22555440.227                    22555448.285
 119775728.768 7  93331795.00944  22792566.523                    22792576.074
 111365706.193 7  86778561.57845  21192182.219                    21192190.555
 109093084.464 8  85007708.57946  20759706.617                    20759714.387
 121682899.380 7  94817879.92844  23155484.492                    23155493.980
 108921072.788 8  84873670.49746  20726981.328                    20726987.043
 117190942.508 7  91317660.180 7  22300694.695                    22300702.262
 122450234.813 7  95415657.085 7  23301461.938                    23301471.816
 11  8  2  1  1  0.0000000  0  9G28G17G09G10G04G27G02G12G05
 126988675.953 6  98952389.10143  24165161.547                    24165171.641
 118574965.763 7  92396137.937 7  22564044.539                    22564052.328
 119837182.395 7  93379680.89744  22804260.922                    22804269.656
 111322265.830 7  86744711.96845  21183916.516                    21183924.344
 109154617.240 8  85055656.18046  20771415.953                    20771423.887
 121736374.843 7  94859549.04544  23165660.727                    23165669.859
 108898595.321 8  84856155.60446  20722704.125                    20722709.320
 117109034.894 7  91253836.085 7  22285108.320                    22285115.832
 122346036.978 7  95334464.087 6  23281634.188                    23281643.574
 11  8  2  1  1 30.0000000  0  9G28G17G09G10G04G27G02G12G05
 127089322.953 6  99030815.23843  24184314.617                    24184323.621
 118620301.360 7  92431464.357 7  22572671.508                    22572679.438
 119899021.183 7  93427866.94244  22816027.922                    22816037.711
 111279368.472 7  86711285.47445  21175752.867                    21175761.004
 109216446.257 8  85103834.61846  20783181.547                    20783189.355
 121790098.106 7  94901411.28144  23175882.906                    23175893.281
 108876471.616 8  84838916.36446  20718493.734                    20718499.504
 117027397.952 7  91190222.909 7  22269573.188                    22269581.000
 122241939.210 7  95253349.056 6  23261824.211                    23261833.926
 11  8  2  1  2  0.0000000  0  9G28G17G09G10G04G27G02G12G05
 127190174.149 6  99109400.47543  24203505.836                    24203515.227
 118665756.724 7  92466884.082 7  22581322.039                    22581329.273
 119961241.856 7  93476350.53444  22827868.555                    22827878.020
 111237016.052 7  86678283.60745  21167693.500                    21167701.809
 109278569.312 8  85152242.17746  20795003.203                    20795011.121
 121844066.653 7  94943464.65144  23186154.281                    23186162.965
 108854701.791 8  84821952.88046  20714350.992                    20714356.324
 116946034.435 7  91126822.784 7  22254090.469                    22254097.449
 122137944.517 7  95172314.333 7  23242035.148                    23242044.285
 11  8  2  1  2 30.0000000  0  9G28G17G09G10G04G27G02G12G05
 127291227.536 6  99188143.27742  24222734.984                    24222745.199
 118711332.147 7  92502397.379 7  22589994.336                    22590002.840
 120023841.560 7  93525129.47544  22839780.609                    22839789.707
 111195210.915 8  86645708.19045  21159738.648                    21159746.652
 109340984.192 8  85200877.13846  20806880.430                    20806888.168
 121898277.973 7  94985707.19844  23196469.945                    23196479.203
 108833284.873 8  84805264.37046  20710275.703                    20710281.035
 116864946.852 7  91063637.676 7  22238660.273                    22238667.563
 122034055.990 7  95091362.352 6  23222265.672                    23222274.813
 11  8  2  1  3  0.0000000  0  9G28G17G09G10G04G27G02G12G05
 127392481.117 6  99267042.18242  24242003.656                    24242013.270
 118757028.348 7  92538004.787 7  22598690.141                    22598697.934
 120086816.838 7  93574201.07044  22851764.156                    22851773.801
 111153955.096 7  86613560.83045  21151887.516                    21151895.313
 109403688.595 8  85249737.70146  20818812.414                    20818820.555
 121952729.394 7  95028136.81044  23206831.711                    23206841.430
 108812220.256 8  84788850.39046  20706266.898                    20706272.582
 116784137.631 7  91000669.461 7  22223282.469                    22223289.613
 121930276.621 7  95010495.407 6  23202517.023                    23202526.418
 11  8  2  1  3 30.0000000  0  9G28G17G09G10G04G27G02G12G05
 127493932.810 5  99346095.34142  24261309.430                    24261319.285
 118802845.621 7  92573706.525 7  22607408.594                    22607417.379
 120150164.325 7  93623562.70644  22863819.266                    22863828.539
 111113250.602 8  86581843.06845  21144142.172                    21144150.027
 109466679.637 8  85298821.62746  20830799.766                    20830808.043
 122007417.714 7  95070751.02144  23217238.523                    23217248.281
 108791507.100 8  84772710.28046  20702325.703                    20702330.898
 116703609.440 7  90937920.248 7  22207958.414                    22207965.680
 121826609.002 7  94929715.565 6  23182789.898                    23182799.043
 11  8  2  1  4  0.0000000  0  9G28G17G09G10G04G27G02G12G05
 127595580.512 5  99425301.24342  24280652.359                    24280661.879
 118848784.806 7  92609503.262 7  22616151.078                    22616158.906
 120213880.704 7  93673211.80244  22875944.289                    22875953.656
 111073099.485 8  86550556.50745  21136501.570                    21136509.680
 109529955.359 8  85348127.37746  20842840.109                    20842848.535
 122062340.578 6  95113548.01744  23227690.086                    23227699.234
 108771144.903 8  84756843.65146  20698450.750                    20698456.391
 116623364.831 7  90875392.010 7  22192688.297                    22192695.477
 121723056.038 7  94849025.051 6  23163084.055                    23163093.512
 11  8  2  1  4 30.0000000  0  9G28G17G09G10G04G27G02G12G05
 127697422.517 5  99504658.59652  24300031.438                    24300042.828
 118894846.534 7  92645395.499 7  22624916.383                    22624924.160
 120277963.155 7  93723146.14644  22888138.578                    22888148.098
 111033504.169 7  86519703.04345  21128966.750                    21128974.891
 109593513.273 8  85397653.01146  20854935.094                    20854943.090
 122117495.629 6  95156525.91144  23238185.375                    23238195.781
 108751133.221 8  84741250.14846  20694642.539                    20694648.363
 116543406.628 7  90813086.946 7  22177472.859                    22177480.355
 121619621.130 7  94768426.530 6  23143401.242                    23143410.480
 11  8  2  1  5  0.0000000  0  9G28G17G09G10G04G27G02G12G05
 127799456.745 6  99584165.70042  24319448.523                    24319459.211
 118941031.294 7  92681383.615 7  22633704.773                    22633713.102
 120342408.427 7  93773363.17544  22900402.094                    22900411.781
 110994466.342 7  86489283.98445  21121538.008                    21121546.219
 109657351.260 8  85447396.88446  20867083.195                    20867091.512
 122172880.257 6  95199682.70443  23248725.281                    23248734.820
 108731471.089 8  84725929.01246  20690901.273                    20690906.836
 116463737.223 7  90751006.929 7  22162311.977                    22162319.180
 121516306.795 7  94687921.920 6  23123741.617                    23123750.246
 11  8  2  1  5 30.0000000  0  8G17G09G10G04G27G02G12G05
 118987340.898 7  92717468.989 7  22642517.672                    22642525.273
 120407214.314 7  93823861.22344  22912734.594                    22912744.047
 110955989.340 8  86459301.93445  21114215.813                    21114223.844
 109721468.216 8  85497358.13946  20879284.102                    20879292.109
 122228492.868 6  95243017.12744  23259307.563                    23259317.430
 108712159.348 8  84710880.90746  20687226.063                    20687231.625
 116384360.244 7  90689154.759 7  22147207.328                    22147214.086
 121413117.533 7  94607514.794 6  23104104.125                    23104113.668
 11  8  2  1  6  0.0000000  0  8G17G09G10G04G27G02G12G05
 119033774.456 7  92753650.970 7  22651353.227                    22651361.160
 120472376.147 7  93874636.64144  22925133.875                    22925143.715
 110918073.796 8  86429757.37545  21107000.914                    21107008.805
 109785860.332 8  85547533.80546  20891537.727                    20891545.793
 122284329.500 6  95286526.13643  23269933.547                    23269942.836
 108693196.038 8  84696104.29946  20683617.461                    20683623.051
 116305277.383 7  90627531.776 7  22132158.203                    22132165.352
 121310054.861 7  94527206.306 6  23084492.391                    23084501.746
 11  8  2  1  6 30.0000000  0  8G17G09G10G04G27G02G12G05
 119080332.519 7  92789929.956 7  22660213.367                    22660221.445
 120537890.949 6  93925687.07544  22937602.055                    22937610.668
 110880722.049 8  86400652.13945  21099892.953                    21099901.082
 109850525.396 8  85597922.16146  20903842.773                    20903850.844
 122340387.636 6  95330207.74444  23280601.258                    23280610.199
 108674580.063 8  84681598.35046  20680075.352                    20680080.727
 116226491.234 7  90566140.011 7  22117165.734                    22117173.156
 121207121.934 7  94446998.928 6  23064904.711                    23064913.629
 11  8  2  1  7  0.0000000  0  8G17G09G10G04G27G02G12G05
 119127015.571 7  92826306.331 7  22669096.680                    22669104.664
 120603754.944 7  93977009.62644  22950134.828                    22950143.793
 110843935.458 8  86371987.29045  21092892.422                    21092900.617
 109915460.371 8  85648520.83046  20916199.602                    20916207.492
 122396664.163 6  95374059.54144  23291309.578                    23291319.895
 108656310.426 8  84667362.28046  20676598.398                    20676604.012
 116148003.580 7  90504980.839 7  22102229.695                    22102237.078
 121104321.327 7  94366894.648 7  23045342.508                    23045351.621
 11  8  2  1  7 30.0000000  0  8G17G09G10G04G27G02G12G05
 119173824.590 7  92862780.849 7  22678003.734                    22678012.234
 120669965.480 7  94028602.19744  22962734.031                    22962743.332
 110807716.440 7  86343764.69745  21085999.930                    21086008.742
 109980663.703 8  85699328.61146  20928607.406                    20928615.313
 122453157.042 6  95418079.89844  23302060.539                    23302069.977
 108638387.074 8  84653396.03846  20673187.883                    20673193.191
 116069817.826 7  90444056.894 7  22087351.227                    22087358.414
 121001656.373 7  94286896.068 7  23025806.031                    23025815.371
 11  8  2  1  8  0.0000000  0  8G17G09G10G04G27G02G12G05
 119220759.509 7  92899353.499 7  22686935.047                    22686943.348
 120736518.584 6  94080461.69944  22975399.070                    22975408.320
 110772065.850 8  86315985.03745  21079216.195                    21079224.629
 110046132.602 8  85750343.32546  20941065.789                    20941073.969
 122509862.972 6  95462266.26344  23312851.250                    23312861.445
 108620808.920 8  84639698.78446  20669842.727                    20669848.293
 115991935.827 7  90383369.650 7  22072531.023                    22072538.285
 120899129.280 7  94207004.914 7  23006295.406                    23006304.598
 11  8  2  1  8 30.0000000  0  8G17G09G10G04G27G02G12G05
 119267821.874 7  92936025.450 7  22695891.711                    22695898.758
 120803411.980 7  94132586.37544  22988128.297                    22988137.691
 110736987.076 7  86288650.94945  21072540.781                    21072549.098
 110111865.711 8  85801563.92846  20953574.156                    20953582.363
 122566780.345 6  95506617.40244  23323682.867                    23323691.973
 108603576.138 8  84626270.65346  20666563.445                    20666569.191
 115914361.295 7  90322921.999 7  22057769.133                    22057776.727
 120796744.332 7  94127224.516 7  22986811.938                    22986821.445
 11  8  2  1  9  0.0000000  0  8G17G09G10G04G27G02G12G05
 119315011.647 7  92972796.693 7  22704871.883                    22704878.789
 120870641.348 7  94184972.82244  23000922.469                    23000931.617
 110702480.875 8  86261763.02045  21065974.664                    21065982.793
 110177859.759 8  85852987.83646  20966132.617                    20966140.789
 122623905.399 6  95551130.36244  23334552.727                    23334562.633
 108586687.001 8  84613110.29146  20663349.953                    20663355.219
 115837095.909 7  90262715.224 7  22043066.195                    22043073.125
 120694503.595 7  94047556.511 7  22967356.813                    22967365.723
 11  8  2  1  9 30.0000000  0  8G17G09G10G04G27G02G12G05
 119362329.408 7  93009667.666 6  22713875.563                    22713883.520
 120938203.494 7  94237618.59144  23013778.672                    23013788.613
 110668549.073 8  86235322.65845  21059517.938                    21059525.730
 110244112.432 8  85904613.28445  20978739.711                    20978748.203
 122681235.535 7  95595803.13344  23345462.719                    23345471.934
 108570140.871 8  84600217.21246  20660200.781                    20660206.535
 115760142.485 7  90202751.543 7  22028422.148                    22028429.738
 120592410.011 7  93968003.153 7  22947928.609                    22947937.930
 11  8  2  1 10  0.0000000  0  8G17G09G10G04G27G02G12G05
 119409775.915 7  93046638.960 6  22722904.250                    22722911.711
 121006095.230 7  94290521.17644  23026697.750                    23026707.941
 110635193.904 8  86209331.63545  21053170.344                    21053178.238
 110310621.645 8  85956438.63846  20991396.133                    20991404.457
 122738768.459 6  95640633.90543  23356410.164                    23356420.492
 108553937.175 8  84587590.96146  20657117.820                    20657123.188
 115683503.504 7  90143032.887 7  22013838.430                    22013846.328
 120490467.068 7  93888567.167 7  22928529.227                    22928538.535
 11  8  2  1 10 30.0000000  0  8G17G09G10G04G27G02G12G05
 119457351.657 7  93083710.940 6  22731957.281                    22731965.320
 121074313.630 7  94343678.32244  23039679.297                    23039688.957
 110602417.136 7  86183791.31546  21046932.719                    21046940.879
 110377385.433 8  86008462.37445  21004101.102                    21004108.996
 122796501.589 6  95685620.71144  23367397.047                    23367406.449
 108538075.221 8  84575231.00246  20654098.969                    20654104.402
 115607181.823 7  90083561.463 7  21999314.430                    21999321.730
 120388677.768 7  93809250.934 7  22909159.719                    22909168.395
 11  8  2  1 11  0.0000000  0  8G17G09G10G04G27G02G12G05
 119505057.444 7  93120884.257 6  22741035.563                    22741043.383
 121142855.485 6  94397087.51844  23052722.500                    23052732.582
 110570220.803 7  86158703.28245  21040806.641                    21040814.473
 110444401.578 8  86060682.73245  21016853.922                    21016862.227
 122854432.315 6  95730761.46543  23378420.922                    23378431.000
 108522554.696 8  84563137.10746  20651145.320                    20651150.906
 115531180.299 7  90024339.520 7  21984852.328                    21984859.098
 120287045.222 7  93730056.818 7  22889819.703                    22889828.488
 11  8  2  1 11 30.0000000  0  8G17G09G10G04G27G02G12G05
 119552893.292 7  93158158.925 6  22750138.828                    22750146.414
 121211716.823 7  94450745.63544  23065826.289                    23065835.805
 110538605.806 7  86134068.24045  21034789.883                    21034798.383
 110511666.828 8  86113097.20845  21029653.406                    21029662.191
 122912557.337 6  95776053.64143  23389481.961                    23389491.484
 108507373.934 8  84551307.93946  20648256.734                    20648262.477
 115455500.570 7  89965368.315 7  21970450.766                    21970458.020
 120185571.591 7  93650986.535 7  22870509.859                    22870518.918
 11  8  2  1 12  0.0000000  0  8G17G09G10G04G27G02G12G05
 119600860.531 7  93195535.977 6  22759266.203                    22759274.254
 121280894.862 7  94504650.52744  23078990.734                    23078999.742
 110507574.515 7  86109888.03245  21028885.031                    21028893.258
 110579179.678 8  86165704.60546  21042500.992                    21042509.461
 122970874.546 6  95821495.56143  23400578.781                    23400588.820
 108492532.841 8  84539743.46446  20645432.461                    20645438.117
 115380146.073 7  89906650.550 7  21956111.391                    21956118.715
 120084260.631 7  93572043.024 7  22851230.313                    22851239.422
 11  8  2  1 12 30.0000000  0  8G17G09G10G04G27G02G12G05
 119648959.206 7  93233015.453 6  22768419.359                    22768427.227
 121350385.889 7  94558799.32944  23092214.273                    23092223.973
 110477128.249 7  86086163.68745  21023091.602                    21023099.703
 110646937.645 8  86218503.01245  21055394.828                    21055403.336
 123029380.822 6  95867084.81343  23411712.266                    23411721.980
 108478030.012 8  84528442.56946  20642672.992                    20642678.496
 115305118.970 7  89848187.897 7  21941834.117                    21941841.637
 119983115.083 7  93493228.385 6  22831983.102                    22831992.441
 11  8  2  1 13  0.0000000  0  8G17G09G10G04G27G02G12G05
 119697189.993 7  93270597.885 6  22777597.336                    22777605.344
 121420186.343 7  94613189.23644  23105497.281                    23105506.969
 110447268.405 8  86062896.29445  21017409.023                    21017417.051
 110714938.118 8  86271490.37445  21068335.117                    21068342.953
 123088073.454 6  95912819.26243  23422880.750                    23422890.504
 108463864.804 8  84517404.75546  20639977.570                    20639982.676
 115230422.299 7  89789982.705 7  21927619.891                    21927626.801
 119882137.717 7  93414544.796 6  22812768.031                    22812776.266
 11  8  2  1 13 30.0000000  0  8G17G09G10G04G27G02G12G05
 119745553.870 7  93308283.999 6  22786800.711                    22786808.766
 121490293.698 7  94667818.30044  23118838.242                    23118847.652
 110417997.430 8  86040087.76045  21011839.234                    21011846.668
 110783179.579 8  86324665.52745  21081321.094                    21081329.230
 123146950.265 6  95958697.21543  23434084.969                    23434094.836
 108450037.114 8  84506629.92946  20637346.008                    20637351.641
 115156057.989 7  89732036.502 7  21913468.461                    21913476.098
 119781332.026 7  93335994.975 7  22793584.820                    22793593.996
 11  8  2  1 14  0.0000000  0  8G17G09G10G04G27G02G12G05
 119794050.861 7  93346073.840 7  22796029.078                    22796037.395
 121560704.031 7  94722683.43744  23132236.883                    23132246.215
 110389316.203 8  86017738.77945  21006381.453                    21006389.371
 110851658.903 8  86378026.02045  21094352.352                    21094360.477
 123206007.778 6  96004715.97843  23445323.445                    23445333.898
 108436545.121 8  84496116.69546  20634778.563                    20634784.086
 115082028.624 7  89674351.299 7  21899381.195                    21899388.730
 119680700.328 7  93257580.748 7  22774435.352                    22774444.375
 11  8  2  1 14 30.0000000  0  8G17G09G10G04G27G02G12G05
 119842681.768 7  93383968.031 7  22805283.680                    22805291.598
 121631414.059 7  94777782.09844  23145692.570                    23145702.215
 110361226.329 7  85995850.58446  21001036.047                    21001043.793
 110920374.126 8  86431570.34645  21107428.734                    21107436.883
 123265243.358 6  96050873.50343  23456595.633                    23456605.621
 108423388.253 8  84485864.59346  20632274.953                    20632280.543
 115008336.889 7  89616929.175 7  21885358.422                    21885365.590
 119580245.867 7  93179304.615 7  22755319.242                    22755328.141
 11  8  2  1 15  0.0000000  0  8G17G09G10G04G27G02G12G05
 119891447.520 7  93421967.301 6  22814563.609                    22814572.035
 121702420.892 7  94833112.04944  23159204.633                    23159214.199
 110333730.077 7  85974424.96745  20995803.281                    20995811.398
 110989323.584 8  86485297.18245  21120549.117                    21120557.117
 123324655.155 6  96097168.32943  23467901.641                    23467911.656
 108410566.497 8  84475873.62846  20629834.984                    20629840.324
 114934986.042 7  89559772.687 7  21871400.164                    21871406.859
 119479972.222 7  93101169.378 7  22736238.250                    22736246.590
 11  8  2  1 15 30.0000000  0  8G17G09G10G04G27G02G12G05
 119940347.832 6  93460071.412 7  22823868.422                    22823876.914
 121773720.287 7  94888669.95444  23172773.219                    23172782.164
 110306827.950 8  85953462.29845  20990684.594                    20990692.262
 111058504.180 8  86539204.12445  21133713.883                    21133721.898
 123384239.503 6  96143597.61144  23479240.461                    23479250.223
 108398078.107 8  84466142.42446  20627458.516                    20627463.883
 114861977.784 7  89502883.168 7  21857506.953                    21857514.492
 119379881.839 7  93023176.939 7  22717191.672                    22717200.039
 11  8  2  1 16  0.0000000  0  8G17G09G10G04G27G02G12G05
 119989383.974 7  93498281.388 7  22833199.953                    22833207.789
 121845309.314 7  94944453.53544  23186395.086                    23186406.125
 110280521.557 8  85932963.81645  20985678.477                    20985686.574
 111127913.763 8  86593289.50245  21146921.750                    21146930.004
 123443993.873 6  96190159.41243  23490610.789                    23490620.934
 108385922.431 8  84456670.47846  20625145.414                    20625150.820
 114789314.862 7  89446262.734 7  21843679.875                    21843687.520
 119279977.544 7  92945329.525 7  22698180.094                    22698188.977
 11  8  2  1 16 30.0000000  0  8G17G09G10G04G27G02G12G05
 120038556.552 7  93536597.662 6  22842557.336                    22842565.402
 121917184.675 7  95000460.24044  23200072.719                    23200083.512
 110254812.924 8  85912931.13945  20980785.914                    20980794.000
 111197550.482 8  86647551.87045  21160173.227                    21160181.672
 123503915.802 6  96236851.75444  23502014.172                    23502024.191
 108374098.700 8  84447457.19046  20622895.055                    20622900.699
 114716999.952 7  89389913.465 7  21829918.719                    21829925.930
 119180262.698 7  92867629.732 7  22679204.898                    22679213.715
 11  8  2  1 17  0.0000000  0  8G17G09G10G04G27G02G12G05
 120087865.452 7  93575020.159 6  22851940.008                    22851948.488
 121989342.451 6  95056687.03044  23213804.398                    23213813.859
 110229702.586 7  85893364.66045  20976007.508                    20976015.941
 111267411.313 7  86701988.86345  21173467.625                    21173475.797
 123564001.822 7  96283671.94144  23513448.484                    23513458.043
 108362605.443 8  84438501.41346  20620708.070                    20620713.613
 114645035.110 7  89333836.979 7  21816224.211                    21816231.598
 119080739.594 7  92790079.330 7  22660266.742                    22660275.039
 11  8  2  1 17 30.0000000  0  8G17G09G10G04G27G02G12G05
 120137312.195 7  93613550.068 7  22861350.227                    22861358.125
 122061780.309 7  95113132.06644  23227589.172                    23227598.652
 110205193.300 8  85874266.53545  20971343.508                    20971351.875
 111337495.168 8  86756599.65745  21186803.930                    21186812.152
 123624250.462 7  96330618.85844  23524912.852                    23524923.426
 108351442.988 8  84429803.38846  20618584.188                    20618589.727
 114573424.059 7  89278036.176 7  21802596.953                    21802604.641
 118981412.523 7  92712681.687 7  22641364.922                    22641374.094
 11  8  2  1 18  0.0000000  0  8G17G09G10G04G27G02G12G05
 120186896.644 7  93652187.280 7  22870785.695                    22870793.789
 122134493.573 7  95169791.69144  23241425.961                    23241435.406
 110181285.154 8  85855636.83245  20966794.094                    20966802.145
 111407798.744 8  86811381.64345  21200182.094                    21200190.770
 123684657.814 6  96377689.43544  23536407.359                    23536418.434
 108340609.303 8  84421361.57546  20616522.516                    20616527.906
 114502168.000 7  89222511.993 7  21789037.234                    21789044.719
 118882283.303 7  92635438.220 7  22622500.648                    22622509.957
 11  8  2  1 18 30.0000000  0  8G17G09G10G04G27G02G12G05
 120236619.748 7  93690932.532 7  22880247.406                    22880255.535
 122207479.311 7  95226663.67244  23255314.023                    23255324.117
 110157980.302 8  85837477.22646  20962358.977                    20962366.973
 111478320.290 8  86866333.47245  21213601.898                    21213610.430
 123745221.519 6  96424881.84944  23547933.172                    23547943.762
 108330103.996 8  84413175.63446  20614523.445                    20614528.977
 114431270.153 7  89167266.925 7  21775546.133                    21775553.344
 118783355.306 7  92558351.552 7  22603676.047                    22603684.754
 11  8  2  1 19  0.0000000  0  8G17G09G10G04G27G02G12G05
 120286481.917 7  93729786.170 6  22889736.102                    22889743.641
 122280734.660 6  95283745.69844  23269254.891                    23269264.094
 110135279.784 7  85819788.52546  20958039.250                    20958047.469
 111549057.662 8  86921453.49545  21227062.797                    21227071.461
 123805938.978 6  96472194.07644  23559486.867                    23559497.727
 108319926.290 8  84405244.96646  20612586.320                    20612591.891
 114360732.949 7  89112302.876 7  21762123.102                    21762130.492
 118684631.716 7  92481424.164 7  22584889.414                    22584898.246
 11  8  2  1 19 30.0000000  0  8G17G09G10G04G27G02G12G05
 120336483.446 7  93768748.391 6  22899250.930                    22899259.492
 122354255.642 6  95341034.74543  23283244.984                    23283254.398
 110113184.541 7  85802571.47445  20953835.047                    20953842.680
 111620008.240 7  86976739.64945  21240564.578                    21240572.965
 123866806.977 6  96519623.60344  23571070.031                    23571080.398
 108310074.656 8  84397568.37846  20610711.531                    20610716.996
 114290558.732 7  89057621.686 7  21748769.648                    21748777.129
 118586115.038 7  92404657.994 7  22566142.367                    22566151.020
 11  8  2  1 20  0.0000000  0  9G25G17G09G10G04G27G02G12G05
 129595312.43816 100983402.96815  24661174.438                    24661184.453
 120386625.630 7  93807820.186 6  22908792.656                    22908800.461
 122428039.442 6  95398528.54244  23297285.883                    23297295.398
 110091696.460 8  85785827.52845  20949745.922                    20949753.492
 111691170.374 7  87032190.65445  21254106.172                    21254114.359
 123927823.503 6  96567168.84843  23582680.641                    23582691.836
 108300549.141 8  84390145.92246  20608899.180                    20608904.598
 114220750.248 7  89003225.480 7  21735485.578                    21735492.414
 118487808.811 7  92328055.787 7  22547435.469                    22547443.527
 11  8  2  1 20 30.0000000  0  9G25G17G09G10G04G27G02G12G05
 129492023.262 6 100902917.917 5  24641518.375                    24641528.992
 120436908.689 7  93847001.778 7  22918361.313                    22918369.488
 122502082.276 7  95456224.21544  23311375.531                    23311384.875
 110070816.593 8  85769557.51645  20945772.617                    20945780.551
 111762541.574 8  87087804.56045  21267687.820                    21267696.188
 123988985.600 6  96614827.55443  23594319.469                    23594330.742
 108291348.633 8  84382976.70546  20607148.547                    20607153.813
 114151310.116 7  88949116.291 7  21722271.555                    21722279.047
 118389715.967 7  92251619.878 7  22528768.656                    22528777.191
 11  8  2  1 21  0.0000000  0  9G25G17G09G10G04G27G02G12G05
 129388841.207 6 100822516.364 5  24621884.039                    24621894.598
 120487333.648 7  93886293.934 6  22927956.758                    22927965.195
 122576381.272 7  95514119.46544  23325514.391                    23325524.285
 110050546.193 8  85753762.41746  20941915.250                    20941923.145
 111834119.904 7  87143579.86645  21281308.695                    21281316.832
 124050290.698 6  96662597.65343  23605985.781                    23605996.453
 108282472.043 8  84376059.89646  20605459.133                    20605464.535
 114082241.131 8  88895296.324 7  21709127.883                    21709135.605
 118291839.811 7  92175352.796 7  22510143.438                    22510151.703
 11  8  2  1 21 30.0000000  0  9G25G17G09G10G04G27G02G12G05
 129285768.551 6 100742200.006 5  24602270.266                    24602280.590
 120537900.521 7  93925696.675 6  22937579.500                    22937587.336
 122650932.603 6  95572211.38844  23339701.297                    23339710.793
 110030886.446 7  85738443.14045  20938174.438                    20938181.867
 111905903.011 7  87199514.73245  21294968.500                    21294976.813
 124111735.893 6  96710476.93543  23617679.281                    23617689.074
 108273918.477 8  84369394.79146  20603831.492                    20603836.762
 114013545.468 7  88841767.258 7  21696055.398                    21696062.906
 118194182.838 7  92099256.506 7  22491559.391                    22491567.898
 11  8  2  1 22  0.0000000  0  9G25G17G09G10G04G27G02G12G05
 129182807.164 6 100661970.419 6  24582676.078                    24582687.820
 120588609.968 7  93965210.494 6  22947229.164                    22947237.059
 122725732.145 6  95630496.67444  23353934.648                    23353944.391
 110011837.832 8  85723600.07745  20934549.047                    20934557.414
 111977887.997 8  87255606.91145  21308666.539                    21308674.973
 124173317.803 6  96758462.78443  23629398.227                    23629407.469
 108265686.547 8  84362980.30746  20602264.961                    20602269.973
 113945225.020 7  88788530.560 7  21683054.633                    21683061.777
 118096747.470 7  92023332.916 7  22473018.031                    22473026.910
 11  8  2  1 22 30.0000000  0  9G25G17G09G10G04G27G02G12G05
 129079959.735 6 100581829.622 6  24563105.523                    24563116.629
 120639462.137 7  94004835.548 6  22956905.922                    22956914.086
 122800776.741 6  95688972.91643  23368215.445                    23368225.262
 109993401.338 8  85709233.99845  20931041.242                    20931048.668
 112050073.086 8  87311855.02645  21322403.406                    21322411.070
 124235033.730 6  96806553.03543  23641141.883                    23641151.582
 108257774.959 8  84356815.44746  20600759.438                    20600764.637
 113877282.368 7  88735588.244 7  21670125.766                    21670133.008
 117999536.901 7  91947584.487 7  22454519.586                    22454528.113
 11  8  2  1 23  0.0000000  0  9G25G17G09G10G04G27G02G12G05
 128977228.996 6 100501779.781 6  24543556.047                    24543567.516
 120690457.766 7  94044572.387 6  22966610.336                    22966617.953
 122876063.406 6  95747637.78944  23382542.367                    23382552.055
 109975578.563 8  85695346.13745  20927649.422                    20927656.977
 112122456.091 7  87368257.34745  21336177.406                    21336185.098
 124296881.242 6  96854745.85943  23652911.484                    23652920.895
 108250183.254 8  84350899.84046  20599314.648                    20599320.305
 113809720.313 7  88682942.499 7  21657268.820                    21657276.633
 117902554.503 7  91872013.832 7  22436064.828                    22436073.121
 11  8  2  1 23 30.0000000  0  9G25G17G09G10G04G27G02G12G05
 128874617.489 6 100421822.866 6  24524030.125                    24524041.660
 120741597.478 7  94084421.511 6  22976342.242                    22976350.039
 122951588.493 6  95806488.43744  23396914.930                    23396924.438
 109958370.818 8  85681937.51145  20924374.750                    20924382.637
 112195034.932 7  87424812.27745  21349988.523                    21349996.477
 124358857.570 6  96903039.07143  23664704.859                    23664715.363
 108242910.872 8  84345233.05846  20597930.883                    20597936.020
 113742541.278 8  88630595.210 7  21644485.336                    21644492.758
 117805803.279 7  91796623.312 7  22417653.258                    22417661.770
 11  8  2  1 24  0.0000000  0  9G25G17G09G10G04G27G02G12G05
 128772127.356 6 100341960.516 6  24504526.648                    24504538.129
 120792881.730 7  94124383.254 6  22986101.063                    22986108.625
 123027348.606 6  95865522.23344  23411331.766                    23411341.059
 109941778.742 8  85669008.63345  20921217.688                    20921225.176
 112267806.967 7  87481517.73845  21363836.414                    21363844.813
 124420959.543 6  96951430.13843  23676522.641                    23676532.953
 108235956.036 8  84339813.71446  20596607.531                    20596613.176
 113675747.672 7  88578548.263 7  21631774.719                    21631782.105
 117709285.632 7  91721414.804 7  22399286.516                    22399295.277
 11  8  2  1 24 30.0000000  0  9G25G17G09G10G04G27G02G12G05
 128669761.442 6 100262194.948 6  24485047.094                    24485058.559
 120844311.414 7  94164458.302 6  22995887.695                    22995895.875
 123103340.452 6  95924736.60044  23425792.016                    23425801.957
 109925803.589 8  85656560.47245  20918177.508                    20918185.488
 112340770.693 8  87538372.56945  21377721.125                    21377729.406
 124483184.939 6  96999917.37143  23688364.211                    23688374.293
 108229318.203 8  84334641.38546  20595344.336                    20595350.148
 113609342.418 7  88526803.911 7  21619138.109                    21619145.430
 117613005.059 7  91646391.028 7  22380965.117                    22380974.203
 11  8  2  1 25  0.0000000  0  9G25G17G09G10G04G27G02G12G05
 128567521.941 6 100182527.880 6  24465591.617                    24465602.539
 120895887.201 6  94204647.199 6  23005702.172                    23005710.320
 123179560.310 7  95984128.63244  23440295.820                    23440305.938
 109910446.210 7  85644593.71045  20915254.797                    20915262.695
 112413923.533 8  87595374.76945  21391641.594                    21391649.945
 124545530.523 6  97048498.24544  23700227.758                    23700238.227
 108222996.407 8  84329715.31346  20594141.383                    20594146.730
 113543327.256 7  88475363.522 7  21606575.906                    21606583.313
 117516964.238 7  91571554.082 7  22362689.297                    22362697.699
 11  8  2  1 25 30.0000000  0  9G25G17G09G10G04G27G02G12G05
 128465411.693 6 100102961.511 6  24446160.281                    24446171.953
 120947609.231 6  94244950.056 6  23015544.227                    23015552.715
 123256005.087 7  96043695.95144  23454842.852                    23454852.230
 109895707.635 7  85633109.11545  20912449.953                    20912458.020
 112487263.606 7  87652522.86745  21405597.992                    21405606.137
 124607993.999 6  97097171.02143  23712114.180                    23712124.793
 108216989.603 8  84325034.69646  20592998.031                    20593003.656
 113477704.751 8  88424229.111 7  21594087.875                    21594095.598
 117421166.418 7  91496906.490 7  22344459.430                    22344467.918
 11  8  2  1 26  0.0000000  0  9G25G17G09G10G04G27G02G12G05
 128363433.134 6 100023497.782 6  24426755.438                    24426766.641
 120999478.028 7  94285367.274 7  23025414.922                    23025423.121
 123332671.382 7  96103435.85144  23469432.125                    23469441.746
 109881588.824 7  85622107.45545  20909763.703                    20909771.371
 112560788.770 8  87709815.18345  21419589.250                    21419597.238
 124670572.603 6  97145933.50443  23724021.820                    23724032.777
 108211296.857 8  84320598.78946  20591914.727                    20591920.359
 113412477.604 7  88373402.780 7  21581675.766                    21581683.492
 117325614.474 7  91422450.500 7  22326276.344                    22326284.984
 11  8  2  1 26 30.0000000  0  9G25G17G09G10G04G27G02G12G05
 128261588.811 6  99944138.630 6  24407374.375                    24407385.293
 121051494.436 7  94325899.539 6  23035313.156                    23035321.676
 123409555.762 6  96163345.69344  23484062.922                    23484072.801
 109868090.692 7  85611589.44045  20907195.313                    20907202.680
 112634496.697 7  87767249.91245  21433615.500                    21433623.660
 124733263.266 6  97194783.30243  23735951.992                    23735962.129
 108205917.254 8  84316406.90246  20590891.320                    20590896.660
 113347648.330 7  88322886.472 7  21569338.813                    21569347.008
 117230311.159 7  91348188.236 7  22308140.648                    22308148.801
 11  8  2  1 27  0.0000000  0  9G25G17G09G10G04G27G02G12G05
 128159880.938 6  99864885.823 6  24388020.531                    24388031.727
 121103658.817 7  94366547.095 6  23045239.352                    23045247.813
 123486654.358 7  96223422.43844  23498734.844                    23498744.516
 109855213.767 8  85601555.48145  20904745.008                    20904752.203
 112708385.187 7  87824825.34545  21447676.070                    21447684.367
 124796063.131 6  97243718.20043  23747902.313                    23747912.938
 108200849.290 8  84312457.84046  20589927.031                    20589932.508
 113283219.089 7  88272681.875 7  21557078.922                    21557086.379
 117135259.537 7  91274122.113 7  22290052.852                    22290061.242
 11  8  2  1 27 30.0000000  0  9G25G17G09G10G04G27G02G12G05
 128058312.598 6  99785741.722 6  24368691.742                    24368703.352
 121155971.860 6  94407310.462 6  23055194.797                    23055202.973
 123563964.356 7  96283663.91544  23513446.773                    23513455.531
 109842959.379 8  85592006.62745  20902412.477                    20902420.445
 112782452.441 7  87882540.07045  21461770.805                    21461778.461
 124858969.859 6  97292736.34343  23759873.828                    23759884.188
 108196092.505 8  84308751.25646  20589021.695                    20589027.332
 113219192.781 7  88222791.255 7  21544895.102                    21544902.566
 117040462.756 7  91200254.566 7  22272013.531                    22272022.250
 11  8  2  1 28  0.0000000  0  9G25G17G09G10G04G27G02G12G05
 127956885.929 6  99706708.024 6  24349391.156                    24349403.352
 121208434.051 6  94448190.072 6  23065177.891                    23065186.137
 123641482.068 6  96344067.27444  23528196.773                    23528207.008
 109831327.731 8  85582943.01945  20900199.313                    20900206.828
 112856696.041 8  87940392.21145  21475898.859                    21475907.023
 124921980.425 6  97341835.39243  23771863.039                    23771874.168
 108191645.712 8  84305286.22446  20588175.516                    20588180.555
 113155571.332 7  88173216.108 7  21532788.102                    21532795.836
 116945923.746 7  91126587.878 7  22254023.086                    22254032.195
 11  8  2  1 28 30.0000000  0  9G25G17G09G10G04G27G02G12G05
 127855603.532 6  99627786.753 6  24330118.188                    24330129.695
 121261046.022 7  94489186.380 6  23075189.492                    23075197.672
 123719204.120 6  96404629.83444  23542986.969                    23542996.758
 109820319.959 8  85574365.55645  20898104.820                    20898112.391
 112931114.144 7  87998380.32745  21490060.133                    21490067.746
 124985092.252 6  97391013.33943  23783874.586                    23783884.879
 108187508.067 8  84302062.07846  20587387.891                    20587393.445
 113092357.462 7  88123958.558 7  21520759.336                    21520766.180
 116851645.299 7  91053124.215 7  22236082.922                    22236091.203
 11  8  2  1 29  0.0000000  0  9G25G17G09G10G04G27G02G12G05
 127754467.950 6  99548979.825 6  24310872.195                    24310884.625
 121313808.161 6  94530299.714 6  23085229.906                    23085237.965
 123797127.209 6  96465349.06843  23557815.414                    23557825.270
 109809936.548 8  85566274.59145  20896128.641                    20896136.102
 113005704.375 7  88056502.57245  21504253.891                    21504261.980
 125048302.392 6  97440267.86443  23795902.555                    23795912.844
 108183678.186 8  84299077.76346  20586659.242                    20586664.449
 113029553.189 7  88075020.172 7  21508807.516                    21508814.836
 116757630.231 7  90979865.785 7  22218192.109                    22218200.645
 11  8  2  1 29 30.0000000  0  9G25G17G09G10G04G27G02G12G05
 127653481.680 6  99470289.258 6  24291655.125                    24291667.438
 121366721.068 6  94571530.521 6  23095298.750                    23095307.359
 123875247.450 6  96526221.92043  23572681.203                    23572690.813
 109800178.533 8  85558670.95545  20894271.828                    20894279.453
 113080464.543 8  88114757.23145  21518480.523                    21518488.508
 125111607.868 6  97489596.68343  23807948.844                    23807959.801
 108180155.171 8  84296332.55446  20585988.844                    20585994.660
 112967161.077 7  88026402.954 7  21496935.203                    21496942.156
 116663881.531 7  90906814.901 7  22200352.352                    22200360.820
 11  8  2  1 30  0.0000000  0  9G25G17G09G10G04G27G02G12G05
 127552647.839 6  99391717.475 6  24272466.859                    24272478.934
 121419785.637 7  94612879.519 6  23105397.109                    23105405.152
 123953562.140 6  96587246.27643  23587584.039                    23587593.676
 109791046.998 7  85551555.48745  20892533.859                    20892541.836
 113155393.371 8  88173143.31245  21532738.531                    21532747.125
 125175006.533 6  97538998.17543  23820013.914                    23820024.453
 108176938.264 8  84293825.87146  20585376.844                    20585382.168
 112905183.963 7  87978109.123 7  21485141.586                    21485148.309
 116570402.614 7  90833974.275 7  22182564.070                    22182572.328
 11  8  2  1 30 30.0000000  0  9G25G17G09G10G04G27G02G12G05
 127451968.674 6  99313266.201 6  24253308.188                    24253319.039
 121473002.049 7  94654346.823 6  23115523.711                    23115531.977
 124032067.560 6  96648419.27043  23602522.688                    23602533.043
 109782542.307 8  85544928.47045  20890915.563                    20890923.176
 113230488.188 7  88231658.73445  21547028.945                    21547036.738
 125238495.365 6  97588469.91043  23832095.055                    23832106.309
 108174026.423 8  84291556.90046  20584822.500                    20584827.840
 112843624.156 7  87930140.465 7  21473426.680                    21473433.930
 116477196.261 7  90761346.025 7  22164827.000                    22164835.031
 11  8  2  1 31  0.0000000  0  9G25G17G09G10G04G27G02G12G05
 127351446.340 6  99234937.120 6  24234179.344                    24234189.906
 121526370.640 7  94695932.714 6  23125680.008                    23125687.758
 124110759.683 6  96709737.73543  23617498.164                    23617508.098
 109774664.651 8  85538790.05145  20889416.922                    20889424.254
 113305746.582 8  88290301.62445  21561350.141                    21561358.000
 125302071.165 6  97638009.39243  23844192.922                    23844203.461
 108171417.769 8  84289524.18146  20584326.625                    20584331.777
 112782483.497 7  87882498.400 7  21461791.922                    21461798.996
 116384264.884 7  90688932.030 7  22147142.688                    22147150.719
 11  8  2  1 31 30.0000000  0  9G25G17G09G10G04G27G02G12G05
 127251083.976 6  99156732.667 6  24215081.250                    24215091.102
 121579892.386 7  94737637.935 6  23135864.234                    23135872.770
 124189635.813 6  96771199.59443  23632507.945                    23632516.859
 109767415.063 8  85533141.03945  20888036.750                    20888044.898
 113381167.196 8  88349070.92045  21575702.195                    21575710.301
 125365731.605 6  97687614.85643  23856307.688                    23856317.664
 108169112.301 8  84287727.70746  20583887.570                    20583892.930
 112721764.555 7  87835184.966 7  21450237.773                    21450245.328
 116291611.867 7  90616734.942 7  22129511.305                    22129519.566
 11  8  2  1 32  0.0000000  0  9G25G17G09G10G04G27G02G12G05
 127150883.958 7  99078654.741 6  24196014.070                    24196024.309
 121633567.440 7  94779462.602 6  23146078.375                    23146086.898
 124268692.251 6  96832801.97143  23647551.438                    23647561.285
 109760793.727 8  85527981.57445  20886776.797                    20886784.395
 113456747.676 8  88407964.78545  21590084.445                    21590092.914
 125429473.719 6  97737283.95943  23868437.945                    23868447.895
 108167108.546 8  84286166.33846  20583506.148                    20583511.598
 112661469.550 7  87788201.869 7  21438763.938                    21438771.090
 116199239.693 7  90544756.682 7  22111933.539                    22111941.898
 11  8  2  1 32 30.0000000  0  9G25G17G09G10G04G27G02G12G05
 127050848.691 7  99000705.180 6  24176977.945                    24176988.082
 121687396.238 7  94821407.097 6  23156321.336                    23156329.621
 124347925.608 6  96894542.15943  23662629.773                    23662638.824
 109754801.187 8  85523312.07745  20885636.852                    20885644.184
 113532485.728 7  88466981.43245  21604496.797                    21604505.305
 125493294.840 6  97787014.59343  23880582.133                    23880592.398
 108165405.062 8  84284838.93946  20583182.273                    20583187.672
 112601600.747 7  87741550.874 7  21427371.133                    21427379.016
 116107151.589 7  90472999.775 7  22094409.648                    22094417.980
 11  8  2  1 33  0.0000000  0  9G25G17G09G10G04G27G02G12G05
 126950980.781 7  98922886.068 6  24157973.344                    24157984.434
 121741379.477 7  94863471.934 6  23166593.719                    23166602.773
 124427332.467 7  96956417.61043  23677740.273                    23677750.016
 109749437.980 7  85519132.96645  20884616.492                    20884624.051
 113608379.480 8  88526119.40245  21618938.805                    21618947.438
 125557192.076 6  97836804.52343  23892742.023                    23892751.340
 108164000.783 8  84283744.70046  20582914.594                    20582920.355
 112542160.598 7  87695233.900 7  21416060.219                    21416067.375
 116015350.341 7  90401466.377 7  22076940.289                    22076949.277
 11  8  2  1 33 30.0000000  0  9G25G17G09G10G04G27G02G12G05
 126851282.818 6  98845199.354 6  24139001.789                    24139012.676
 121795517.864 6  94905657.665 6  23176896.680                    23176904.969
 124506909.410 7  97018425.55343  23692882.602                    23692892.492
 109744704.649 7  85515444.68045  20883715.055                    20883722.918
 113684426.645 7  88585376.91345  21633410.570                    21633418.559
 125621162.828 6  97886651.79443  23904914.500                    23904925.324
 108162895.014 7  84282883.06246  20582704.656                    20582709.895
 112483151.443 7  87649252.761 7  21404831.086                    21404838.523
 115923838.929 7  90330158.811 7  22059526.609                    22059535.285
 11  8  2  1 34  0.0000000  0  9G25G17G09G10G04G27G02G12G05
 126751757.623 6  98767647.290 6  24120062.938                    24120073.500
 121849811.781 6  94947964.603 6  23187227.859                    23187236.813
 124586653.216 7  97080563.50444  23708057.789                    23708067.836
 109740601.821 7  85512247.67345  20882934.766                    20882942.199
 113760625.549 7  88644752.66545  21647910.984                    21647919.406
 125685204.677 6  97936554.41943  23917101.875                    23917112.141
 108162086.901 8  84282253.35846  20582550.383                    20582555.754
 112424575.605 7  87603609.279 7  21393684.266                    21393691.422
 115832620.263 7  90259079.373 7  22042168.180                    22042176.648
 11  8  2  1 34 30.0000000  0  9G25G17G09G10G04G27G02G12G05
 126652407.190 6  98690231.438 6  24101156.281                    24101168.012
 121904261.290 7  94990392.747 6  23197590.492                    23197597.906
 124666559.880 7  97142828.36343  23723263.898                    23723273.480
 109737129.137 7  85509541.70545  20882273.609                    20882281.133
 113836973.711 7  88704244.72745  21662439.102                    21662448.086
 125749313.990 6  97986509.63743  23929300.875                    23929312.438
 108161574.114 8  84281853.78546  20582453.344                    20582458.535
 112366435.047 7  87558304.969 7  21382620.797                    21382628.004
 115741696.909 7  90188230.064 7  22024865.766                    22024874.477
 11  8  2  1 35  0.0000000  0  9G25G17G09G10G04G27G02G12G05
 126553235.417 6  98612954.791 6  24082284.688                    24082295.891
 121958867.945 7  95032943.373 6  23207981.172                    23207989.367
 124746627.138 7  97205218.39144  23738500.320                    23738509.637
 109734288.524 8  85507328.26245  20881732.805                    20881740.402
 113913470.303 7  88763852.43845  21676995.828                    21677004.578
 125813489.100 6  98036516.12543  23941513.984                    23941524.266
 108161357.642 8  84281685.11346  20582411.852                    20582417.113
 112308733.042 7  87513342.387 7  21371640.063                    21371647.496
 115651072.570 7  90117613.749 7  22007620.766                    22007628.945
 11  8  2  1 35 30.0000000  0  9G25G17G09G10G04G27G02G12G05
 126454243.591 6  98535818.343 6  24063447.375                    24063458.246
 122013631.093 7  95075615.941 6  23218402.430                    23218410.422
 124826850.416 7  97267729.95343  23753766.117                    23753775.512
 109732078.989 8  85505606.56546  20881313.289                    20881320.594
 113990111.823 7  88823573.08545  21691580.891                    21691589.184
 125877726.097 6  98086570.81243  23953737.977                    23953748.352
 108161434.538 8  84281745.03046  20582426.711                    20582432.102
 112251470.883 7  87468722.542 7  21360743.750                    21360750.598
 115560749.060 7  90047231.844 7  21990432.813                    21990440.965
 11  8  2  1 36  0.0000000  0  9G25G17G09G10G04G27G02G12G05
 126355434.980 6  98458824.660 6  24044644.664                    24044655.668
 122068552.005 6  95118411.424 6  23228853.063                    23228861.289
 124907226.992 7  97330360.98643  23769061.711                    23769071.176
 109730501.408 8  85504377.30145  20881012.297                    20881020.129
 114066897.003 8  88883405.67445  21706192.234                    21706200.848
 125942023.098 6  98136672.28843  23965972.508                    23965983.801
 108161804.583 8  84282033.38246  20582496.844                    20582502.160
 112194651.085 7  87424447.392 7  21349931.148                    21349938.438
 115470729.943 7  89977087.132 7  21973302.523                    21973310.699
 11  8  2  1 36 30.0000000  0  9G25G17G09G10G04G27G02G12G05
 126256812.288 6  98381975.874 6  24025877.453                    24025888.332
 122123631.041 7  95161330.150 6  23239334.156                    23239343.125
 124987753.321 6  97393108.69744  23784384.453                    23784394.516
 109729556.259 8  85503640.83245  20880832.922                    20880840.723
 114143824.061 7  88943348.82045  21720830.797                    21720839.668
 126006377.074 6  98186818.13443  23978218.961                    23978230.023
 108162466.492 8  84282549.16346  20582622.805                    20582628.074
 112138275.960 7  87380518.743 7  21339202.922                    21339210.438
 115381018.220 7  89907181.948 7  21956231.164                    21956239.574
 11  8  2  1 37  0.0000000  0  9G25G17G09G10G04G27G02G12G05
 126158377.601 6  98305273.565 6  24007145.070                    24007156.270
 122178868.259 7  95204372.145 6  23249845.000                    23249853.984
 125068425.745 6  97455970.25943  23799736.766                    23799746.250
 109729242.966 8  85503396.72945  20880773.141                    20880780.598
 114220890.582 7  89003400.63045  21735496.375                    21735505.023
 126070784.860 5  98237005.87943  23990474.891                    23990486.781
 108163418.811 8  84283291.22546  20582804.180                    20582809.711
 112082347.667 7  87336938.272 7  21328560.273                    21328567.785
 115291616.143 7  89837518.048 7  21939218.453                    21939226.832
 11  8  2  1 37 30.0000000  0  9G25G17G09G10G04G27G02G12G05
 126060133.964 6  98228720.129 6  23988450.289                    23988460.629
 122234264.805 7  95247538.253 6  23260387.461                    23260395.891
 125149241.152 6  97518943.23243  23815114.766                    23815125.215
 109729562.439 8  85503645.69045  20880833.922                    20880841.469
 114298094.717 7  89063559.68945  21750188.078                    21750196.070
 126135244.113 6  98287233.71643  24002741.445                    24002752.703
 108164660.840 8  84284259.04046  20583040.656                    20583045.922
 112026868.370 7  87293707.672 7  21318002.953                    21318010.156
 115202526.884 7  89768097.899 7  21922264.781                    21922273.262
 11  8  2  1 38  0.0000000  0  9G25G17G09G10G04G27G02G12G05
 125962084.232 7  98152317.785 6  23969792.430                    23969802.336
 122289821.084 7  95290828.853 6  23270959.883                    23270967.461
 125230196.280 7  97582025.07644  23830520.055                    23830530.426
 109730515.296 8  85504388.19046  20881015.266                    20881022.934
 114375434.915 7  89123824.75945  21764905.008                    21764913.137
 126199752.290 5  98337499.69243  24015017.945                    24015027.801
 108166191.798 8  84285451.99546  20583331.648                    20583337.242
 111971840.670 8  87250828.952 7  21307531.500                    21307538.746
 115113753.569 7  89698923.930 7  21905372.391                    21905379.859
 11  8  2  1 38 30.0000000  0  9G25G17G09G10G04G27G02G12G05
 125864230.719 7  98076068.326 6  23951172.039                    23951182.027
 122345537.245 7  95334244.023 6  23281561.555                    23281570.094
 125311287.644 7  97645213.07344  23845951.945                    23845961.555
 109732101.115 8  85505623.90846  20881316.875                    20881324.516
 114452908.908 7  89184194.10145  21779647.570                    21779656.398
 126264306.293 6  98387801.40543  24027302.070                    24027312.637
 108168010.228 8  84286868.96346  20583677.539                    20583683.375
 111917266.514 7  87208303.640 7  21297146.422                    21297153.676
 115025298.927 7  89629998.274 7  21888538.938                    21888547.480
 11  8  2  1 39  0.0000000  0  9G25G17G09G10G04G27G02G12G05
 125766576.119 7  97999973.904 6  23932588.281                    23932598.996
 122401413.737 7  95377784.127 6  23292195.133                    23292203.273
 125392511.861 6  97708504.60444  23861408.125                    23861418.582
 109734320.165 8  85507353.05745  20881739.648                    20881746.688
 114530514.774 7  89244666.18445  21794415.680                    21794424.570
 126328903.588 6  98438136.84243  24039595.008                    24039605.305
 108170114.951 8  84288509.00846  20584078.313                    20584083.832
 111863148.519 8  87166133.782 7  21286847.930                    21286855.527
 114937165.667 7  89561323.045 7  21871768.344                    21871776.621
 11  8  2  1 39 30.0000000  0  9G25G17G09G10G04G27G02G12G05
 125669123.084 6  97924036.545 6  23914043.648                    23914055.371
 122457451.388 7  95421449.813 6  23302858.633                    23302867.191
 125473865.478 6  97771896.94144  23876889.078                    23876899.781
 109737172.651 7  85509575.79145  20882281.602                    20882289.395
 114608250.581 7  89305239.51645  21809208.391                    21809216.809
 126393541.419 6  98488503.84943  24051894.945                    24051905.637
 108172504.959 7  84290371.36346  20584533.047                    20584538.445
 111809488.336 7  87124320.656 7  21276636.859                    21276643.992
 114849356.819 7  89492900.622 7  21855059.008                    21855066.918
 11  8  2  1 40  0.0000000  0  9G25G17G09G10G04G27G02G12G05
 125571873.872 6  97848258.020 6  23895537.328                    23895549.086
 122513650.231 7  95465241.101 6  23313552.617                    23313560.863
 125555344.806 6  97835387.25743  23892393.688                    23892404.609
 109740658.309 8  85512291.90645  20882944.867                    20882953.016
 114686114.183 7  89365912.43445  21824025.266                    21824033.852
 126458216.860 6  98538900.15643  24064202.594                    24064213.602
 108175178.736 8  84292454.82546  20585041.633                    20585047.363
 111756287.794 8  87082865.700 7  21266513.055                    21266520.285
 114761874.091 7  89424732.302 7  21838411.430                    21838419.574
 11  8  2  1 40 30.0000000  0  9G25G17G09G10G04G27G02G12G05
 125474831.604 6  97772640.806 6  23877070.375                    23877082.480
 122570010.915 7  95509158.511 6  23324277.633                    23324286.410
 125636946.800 6  97898973.13843  23907922.250                    23907933.309
 109744777.419 7  85515501.61846  20883729.133                    20883736.926
 114764104.050 7  89426683.75745  21838866.203                    21838874.859
 126522927.406 6  98589323.84743  24076516.578                    24076527.535
 108178135.564 8  84294758.85746  20585604.492                    20585609.594
 111703549.580 7  87041770.997 7  21256477.508                    21256484.883
 114674721.603 7  89356821.339 7  21821826.766                    21821835.078
 11  8  2  1 41  0.0000000  0  9G25G17G09G10G04G27G02G12G05
 125377998.631 6  97697186.608 6  23858644.320                    23858656.070
 122626533.866 7  95553202.365 6  23335033.695                    23335042.324
 125718667.974 6  97962651.88443  23923474.055                    23923484.449
 109749529.773 7  85519204.76545  20884633.531                    20884641.188
 114842217.758 7  89487551.58145  21853731.234                    21853739.477
 126587670.252 6  98639772.67843  24088836.836                    24088847.391
 108181373.915 8  84297282.24646  20586220.734                    20586225.918
 111651275.771 7  87001038.152 7  21246529.820                    21246537.309
 114587901.873 7  89289169.649 7  21805306.039                    21805313.789
 11  8  2  1 41 30.0000000  0  9G25G17G09G10G04G27G02G12G05
 125281377.957 6  97621897.836 6  23840258.070                    23840269.309
 122683219.880 7  95597373.225 6  23345820.523                    23345828.266
 125800505.124 6  98026421.01344  23939046.867                    23939057.590
 109754915.888 7  85523401.74545  20885658.430                    20885666.293
 114920454.001 7  89548514.86645  21868619.125                    21868627.293
 126652442.717 6  98690244.60643  24101162.211                    24101173.750
 108184893.018 8  84300024.41446  20586889.961                    20586895.668
 111599469.343 7  86960669.507 7  21236671.297                    21236678.621
 114501417.855 7  89221779.555 7  21788848.477                    21788856.512
 11  8  2  1 42  0.0000000  0  9G25G17G09G10G04G27G02G12G05
 125184971.929 6  97546776.308 6  23821913.031                    23821924.223
 122740069.223 7  95641671.378 6  23356638.719                    23356647.402
 125882454.841 6  98090277.85543  23954641.758                    23954651.641
 109760935.298 7  85528092.19745  20886803.484                    20886811.426
 114998810.481 7  89609571.85045  21883529.602                    21883538.129
 126717241.855 6  98740737.37343  24113492.930                    24113504.164
 108188691.855 8  84302984.56146  20587613.125                    20587618.820
 111548130.968 7  86920665.574 7  21226902.367                    21226909.805
 114415271.857 7  89154652.836 7  21772454.938                    21772463.449
 11  8  2  1 42 30.0000000  0  9G25G17G09G10G04G27G02G12G05
 125088783.376 7  97471824.273 7  23803608.188                    23803620.055
 122797082.415 6  95686097.235 6  23367488.313                    23367496.520
 125964513.847 7  98154219.87343  23970257.367                    23970266.566
 109767588.378 7  85533276.42445  20888069.695                    20888077.285
 115077285.582 7  89670721.26545  21898462.672                    21898471.500
 126782065.402 6  98791249.12343  24125829.875                    24125839.695
 108192769.090 8  84306161.62646  20588388.875                    20588394.762
 111497263.383 7  86881028.495 7  21217222.648                    21217229.582
 114329467.092 7  89087792.020 7  21756126.852                    21756135.004
 11  8  2  1 43  0.0000000  0  9G25G17G09G10G04G27G02G12G05
 124992814.692 7  97397043.553 6  23785346.125                    23785357.410
 122854259.568 6  95730650.841 6  23378368.844                    23378376.695
 126046678.457 7  98218244.20643  23985892.828                    23985901.734
 109774874.495 7  85538953.93845  20889456.359                    20889463.715
 115155877.272 7  89731961.52545  21913418.438                    21913426.254
 126846910.267 6  98841777.45843  24138168.852                    24138179.297
 108197123.200 8  84309554.43946  20589217.758                    20589223.340
 111446868.523 8  86841759.766 7  21207632.797                    21207639.895
 114244005.911 7  89021198.935 7  21739863.859                    21739872.105
 11  8  2  1 43 30.0000000  0  9G25G17G09G10G04G27G02G12G05
 124897068.898 7  97322436.502 6  23767126.203                    23767137.625
 122911601.404 6  95775332.760 6  23389280.172                    23389288.539
 126128945.817 6  98282348.54043  24001547.039                    24001557.223
 109782793.931 8  85545124.94045  20890963.563                    20890971.219
 115234583.767 7  89793291.24045  21928395.867                    21928404.320
 126911773.965 6  98892320.49743  24150511.945                    24150522.895
 108201753.471 8  84313162.45146  20590099.008                    20590104.566
 111396948.715 8  86802861.216 7  21198133.266                    21198140.578
 114158891.501 7  88954876.062 7  21723667.570                    21723675.434
 11  8  2  1 44  0.0000000  0  9G25G17G09G10G04G27G02G12G05
 124801548.243 7  97248004.861 6  23748949.328                    23748960.066
 122969108.252 6  95820143.244 6  23400223.906                    23400232.172
 126211312.268 6  98346530.14643  24017221.188                    24017231.043
 109791346.576 7  85551789.36045  20892590.664                    20892598.469
 115313403.079 7  89854708.88445  21943394.313                    21943403.352
 126976653.410 6  98942875.81242  24162858.086                    24162868.727
 108206658.584 8  84316984.62546  20591032.336                    20591037.719
 111347505.647 8  86764334.150 7  21188724.773                    21188731.863
 114074126.332 7  88888825.328 7  21707537.070                    21707545.398
 11  8  2  1 44 30.0000000  0  9G25G17G09G10G04G27G02G12G05
 124706255.854 7  97173751.076 6  23730815.844                    23730826.879
 123026780.786 6  95865082.849 6  23411198.094                    23411207.055
 126293774.704 6  98410786.51143  24032913.141                    24032923.652
 109800532.278 8  85558947.05645  20894338.703                    20894346.547
 115392333.674 7  89916213.22145  21958415.102                    21958423.355
 127041546.391 6  98993441.66242  24175206.273                    24175217.086
 108211837.883 8  84321020.44746  20592017.688                    20592023.375
 111298541.990 8  86726180.649 7  21179407.227                    21179414.223
 113989713.384 7  88823049.056 7  21691473.734                    21691481.859
 11  8  2  1 45  0.0000000  0  9G25G17G09G10G04G27G02G12G05
 124611194.209 7  97099677.088 6  23712725.867                    23712736.836
 123084619.316 6  95910151.791 6  23422205.016                    23422213.180
 126376329.880 6  98475115.11543  24048623.219                    24048633.613
 109810350.392 7  85566597.54845  20896207.086                    20896215.004
 115471373.527 7  89977802.69245  21973455.398                    21973464.043
 127106449.930 6  99044015.73342  24187558.297                    24187568.168
 108217289.804 8  84325268.70046  20593055.273                    20593060.457
 111250059.396 8  86688402.003 7  21170181.531                    21170188.406
 113905655.285 7  88757549.279 7  21675478.227                    21675485.980
 11  8  2  1 45 30.0000000  0  9G25G17G09G10G04G27G02G12G05
 124516365.807 7  97025784.840 6  23694680.633                    23694690.914
 123142624.101 6  95955350.297 6  23433242.586                    23433250.969
 126458974.081 6  98539513.09043  24064349.797                    24064360.805
 109820800.825 8  85574740.75046  20898195.680                    20898202.961
 115550520.564 7  90039475.68045  21988516.594                    21988525.332
 127171361.249 5  99094595.88142  24199909.398                    24199920.434
 108223013.047 8  84329728.37946  20594143.945                    20594149.918
 111202059.780 8  86650999.704 7  21161046.992                    21161054.156
 113821954.676 7  88692328.075 7  21659550.438                    21659558.383
 11  8  2  1 46  0.0000000  0  9G25G17G09G10G04G27G02G12G05
 124421773.523 7  96952076.574 6  23676679.906                    23676691.387
 123200795.829 6  96000678.892 6  23444312.109                    23444321.016
 126541704.101 6  98603977.94943  24080092.453                    24080104.043
 109831883.393 7  85583376.53245  20900304.594                    20900312.762
 115629773.254 7  90101231.00045  22003597.820                    22003606.457
 127236277.833 5  99145180.08142  24212263.344                    24212274.145
 108229006.670 8  84334398.73246  20595284.789                    20595290.219
 111154545.599 8  86613975.672 7  21152005.516                    21152012.559
 113738614.382 7  88627387.640 7  21643691.383                    21643699.434
 11  8  2  1 46 30.0000000  0  9G25G17G09G10G04G27G02G12G05
 124327420.109 7  96878554.451 6  23658725.797                    23658736.590
 123259134.865 7  96046137.833 6  23455414.063                    23455422.156
 126624516.801 6  98668507.23043  24095851.602                    24095862.891
 109843597.770 8  85592504.63845  20902533.773                    20902541.574
 115709129.998 7  90163067.41145  22018699.148                    22018707.141
 127301197.222 6  99195766.49343  24224616.742                    24224627.840
 108235269.556 8  84339278.90646  20596476.594                    20596482.355
 111107518.631 8  86577331.287 7  21143056.586                    21143063.781
 113655637.250 7  88562730.187 7  21627901.180                    21627909.352
 11  8  2  1 47  0.0000000  0  9G25G17G09G10G04G27G02G12G05
 124233307.456 7  96805219.944 6  23640816.633                    23640827.219
 123317641.004 6  96091726.977 6  23466547.695                    23466556.145
 126707408.213 6  98733097.82543  24111625.406                    24111636.547
 109855943.238 8  85602124.49845  20904882.883                    20904890.852
 115788588.246 7  90224982.91145  22033819.664                    22033827.543
 127366115.735 6  99246352.25243  24236970.711                    24236981.766
 108241799.609 8  84344367.25546  20597719.328                    20597725.090
 111060979.966 8  86541067.405 7  21134200.852                    21134207.781
 113573025.299 7  88498357.285 7  21612180.398                    21612189.012
 11  8  2  1 47 30.0000000  0  9G25G17G09G10G04G27G02G12G05
 124139439.000 7  96732075.708 6  23622953.898                    23622964.633
 123376315.433 6  96137447.274 6  23477712.453                    23477721.102
 126790375.710 6  98797747.75943  24127413.203                    24127424.281
 109868919.882 8  85612236.18146  20907352.484                    20907360.270
 115868146.611 7  90286976.42045  22048958.445                    22048967.230
 127431031.600 6  99296935.90743  24249325.211                    24249334.797
 108248596.496 8  84349663.52946  20599012.445                    20599018.066
 111014932.421 8  86505186.196 7  21125438.133                    21125445.203
 113490781.828 7  88434271.519 7  21596529.977                    21596538.086
 11  8  2  1 48  0.0000000  0  9G25G17G09G10G04G27G02G12G05
 124045817.534 6  96659123.960 6  23605137.781                    23605148.723
 123435158.692 6  96183299.149 6  23488910.117                    23488918.168
 126873416.257 6  98862454.58043  24143215.688                    24143226.711
 109882527.845 8  85622839.80045  20909941.766                    20909949.766
 115947803.879 7  90349046.98745  22064117.648                    22064125.773
 127495942.224 6  99347515.47643  24261676.352                    24261686.285
 108255659.699 8  84355167.33646  20600356.617                    20600362.387
 110969378.421 8  86469689.582 7  21116769.320                    21116776.359
 113408909.782 8  88370475.167 7  21580950.289                    21580958.535
 11  8  2  1 48 30.0000000  0  9G25G17G09G10G04G27G02G12G05
 123952445.591 7  96586366.611 6  23587369.438                    23587380.652
 123494171.012 6  96229282.738 6  23500139.828                    23500148.379
 126956526.167 6  98927215.43243  24159030.758                    24159041.406
 109896766.283 8  85633934.69345  20912651.305                    20912659.336
 116027557.682 7  90411192.81244  22079293.563                    22079302.414
 127560844.571 6  99398088.62643  24274026.953                    24274037.332
 108262987.598 8  84360877.38846  20601751.539                    20601756.695
 110924319.450 8  86434578.705 7  21108194.758                    21108201.922
 113327411.769 7  88306970.237 7  21565441.430                    21565449.527
 11  8  2  1 49  0.0000000  0  9G25G17G09G10G04G27G02G12G05
 123859325.531 7  96513805.534 6  23569649.875                    23569660.234
 123553352.325 6  96275398.016 6  23511402.180                    23511410.445
 127039701.750 6  98992027.46243  24174859.531                    24174869.688
 109911634.313 8  85645520.19046  20915480.844                    20915488.348
 116107406.366 7  90473412.53644  22094488.492                    22094496.742
 127625735.864 6  99448653.13243  24286375.625                    24286385.891
 108270578.250 8  84366792.18846  20603196.008                    20603200.949
 110879757.019 8  86399854.743 7  21099715.141                    21099722.313
 113246290.066 7  88243758.567 7  21550004.703                    21550012.531
 11  8  2  1 49 30.0000000  0  9G25G17G09G10G04G27G02G12G05
 123766460.130 7  96441442.927 6  23551978.016                    23551989.145
 123612703.227 7  96321645.406 6  23522696.266                    23522704.066
 127122940.096 6  99056888.39843  24190699.172                    24190709.852
 109927131.703 8  85657596.09846  20918429.328                    20918437.398
 116187348.039 7  90535704.73244  22109700.891                    22109709.340
 127690613.564 6  99499207.07443  24298720.828                    24298731.816
 108278430.993 8  84372911.20546  20604690.063                    20604695.219
 110835693.059 8  86365519.194 7  21091330.039                    21091337.125
 113165547.407 8  88180842.253 7  21534639.805                    21534647.816
 11  8  2  1 50  0.0000000  0  9G25G17G09G10G04G27G02G12G05
 123673852.309 7  96369281.025 6  23534355.281                    23534366.523
 123672224.087 6  96368025.272 6  23534022.883                    23534031.164
 127206237.871 6  99121795.63543  24206550.484                    24206561.125
 109943258.309 8  85670162.28545  20921498.430                    20921506.602
 116267381.412 7  90598068.38944  22124931.008                    22124939.313
 127755475.384 6  99549748.66443  24311063.578                    24311074.844
 108286544.812 8  84379233.66946  20606234.078                    20606239.820
 110792130.037 8  86331573.990 7  21083040.203                    21083047.332
 113085186.635 7  88118223.523 7  21519347.961                    21519356.277
 11  8  2  1 50 30.0000000  0  9G25G17G09G10G04G27G02G12G05
 123581504.702 7  96297321.887 6  23516782.789                    23516793.250
 123731915.535 6  96414538.039 6  23545381.125                    23545389.973
 127289591.871 6  99186746.71043  24222412.461                    24222422.680
 109960013.405 8  85683218.21345  20924686.641                    20924695.070
 116347504.445 7  90660501.90445  22140178.016                    22140185.699
 127820318.287 6  99600275.49443  24323402.922                    24323414.867
 108294918.383 8  84385758.53346  20607827.578                    20607832.762
 110749069.552 8  86298020.385 7  21074846.078                    21074853.539
 113005210.256 7  88055904.321 7  21504128.688                    21504136.785
 11  8  2  1 51  0.0000000  0  9G25G17G09G10G04G27G02G12G05
 123489420.055 7  96225567.634 6  23499259.164                    23499269.695
 123791777.799 6  96461183.948 6  23556772.914                    23556781.441
 127372998.862 6  99251739.09143  24238283.922                    24238294.531
 109977396.646 8  85696763.60246  20927994.820                    20928002.734
 116427715.626 7  90723004.10845  22155441.727                    22155449.773
 127885139.889 6  99650785.73643  24335738.547                    24335750.027
 108303550.872 8  84392485.14346  20609470.094                    20609475.609
 110706513.556 8  86264859.871 7  21066747.672                    21066755.129
 112925621.142 7  87993886.876 7  21488983.375                    21488991.480
 11  8  2  1 51 30.0000000  0  9G25G17G09G10G04G27G02G12G05
 123397600.296 7  96154019.773 6  23481786.766                    23481796.875
 123851810.942 6  96507962.997 6  23568196.820                    23568205.090
 127456455.199 6  99316769.88243  24254165.664                    24254176.063
 109995406.661 8  85710797.39745  20931421.969                    20931429.809
 116508012.428 7  90785573.01844  22170721.273                    22170730.129
 127949936.736 6  99701276.67843  24348068.898                    24348080.145
 108312440.135 8  84399411.84546  20611161.813                    20611167.371
 110664462.988 8  86232093.201 7  21058745.953                    21058752.746
 112846421.205 7  87932172.695 7  21473911.922                    21473920.402
 11  8  2  1 52  0.0000000  0  9G25G17G09G10G04G27G02G12G05
 123306048.947 7  96082681.060 6  23464365.289                    23464375.246
 123912015.884 6  96554875.917 6  23579653.703                    23579661.488
 127539958.432 6  99381837.26243  24270055.789                    24270065.180
 110014043.201 7  85725319.38945  20934968.289                    20934975.703
 116588394.254 7  90848208.20845  22186017.891                    22186025.813
 128014707.173 6  99751747.03343  24360394.492                    24360405.688
 108321585.981 8  84406538.48446  20612902.180                    20612907.590
 110622920.934 8  86199722.778 7  21050840.844                    21050847.660
 112767613.658 8  87870764.278 7  21458915.086                    21458923.301
 11  8  2  1 52 30.0000000  0  9G25G17G09G10G04G27G02G12G05
 123214768.247 7  96011553.271 6  23446994.547                    23447005.000
 123972392.659 6  96601922.720 6  23591143.094                    23591150.996
 127623504.689 6  99446938.17543  24285953.039                    24285963.953
 110033305.536 8  85740329.01645  20938633.914                    20938641.563
 116668858.730 7  90910907.78544  22201329.969                    22201338.074
 128079448.005 6  99802194.32642  24372713.945                    24372725.180
 108330986.734 8  84413863.74346  20614691.188                    20614696.422
 110581888.388 8  86167749.378 7  21043032.523                    21043039.504
 112689200.843 7  87809663.440 7  21443993.820                    21444002.191
 11  8  2  1 53  0.0000000  0  9G25G17G09G10G04G27G02G12G05
 123123761.026 7  95940638.577 6  23429676.438                    23429686.777
 124032941.457 6  96649103.565 6  23602664.742                    23602673.402
 127707090.919 6  99512070.16343  24301859.945                    24301870.434
 110053193.251 7  85755825.95045  20942417.961                    20942426.066
 116749404.378 7  90973670.62044  22216657.070                    22216665.383
 128144156.833 6  99852616.69042  24385027.578                    24385038.914
 108340641.452 8  84421386.90546  20616528.258                    20616533.738
 110541367.354 8  86136174.550 7  21035321.742                    21035328.641
 112611185.503 8  87748872.318 7  21429148.078                    21429155.988
 11  8  2  1 53 30.0000000  0  9G25G17G09G10G04G27G02G12G05
 123033030.064 7  95869939.165 6  23412411.109                    23412422.086
 124093662.915 6  96696418.951 6  23614219.773                    23614228.203
 127790714.148 6  99577231.00243  24317772.828                    24317783.348
 110073705.610 7  85771809.61045  20946321.461                    20946329.469
 116830029.745 7  91036495.56944  22231999.148                    22232007.387
 128208830.960 6  99903012.00643  24397335.641                    24397346.578
 108350549.045 8  84429107.12146  20618413.789                    20618418.957
 110501360.041 8  86105000.021 7  21027708.391                    21027715.238
 112533570.203 7  87688392.916 7  21414378.359                    21414386.652
 11  8  2  1 54  0.0000000  0  9G25G17G09G10G04G27G02G12G05
 122942578.274 7  95799457.246 6  23395198.938                    23395209.152
 124154557.689 7  96743869.397 6  23625807.461                    23625815.906
 127874370.986 6  99642418.04843  24333692.648                    24333702.938
 110094842.163 8  85788279.65145  20950343.969                    20950351.594
 116910733.118 7  91099381.30044  22247356.977                    22247365.441
 128273468.193 5  99953378.54342  24409635.453                    24409647.141
 108360708.290 8  84437023.41446  20620346.922                    20620352.313
 110461868.159 8  86074227.130 7  21020193.016                    21020200.500
 112456357.712 8  87628227.385 7  21399685.234                    21399693.328
 11  8  2  1 54 30.0000000  0  9G25G17G09G10G04G27G02G12G05
 122852407.573 7  95729194.368 6  23378039.391                    23378050.414
 124215625.454 6  96791454.654 6  23637427.828                    23637436.672
 127958057.714 6  99707628.38143  24349617.758                    24349627.613
 110116601.354 7  85805234.87845  20954484.406                    20954491.934
 116991512.375 7  91162326.17245  22262728.539                    22262736.977
 128338064.856 5 100003713.49042  24421927.297                    24421939.758
 108371117.350 8  84445134.38746  20622327.789                    20622333.102
 110422892.349 8  86043856.373 7  21012776.648                    21012783.605
 112379549.905 7  87568377.195 7  21385069.375                    21385077.219
 11  8  2  1 55  0.0000000  0  9G25G17G09G10G04G27G02G12G05
 122762521.184 7  95659153.044 6  23360934.141                    23360945.543
 124276867.077 7  96839175.379 6  23649082.430                    23649091.215
 128041771.690 6  99772859.95543  24365547.828                    24365557.977
 110138983.002 7  85822675.13645  20958743.273                    20958751.520
 117072366.389 7  91225329.29344  22278114.227                    22278122.684
 128402619.077 6 100054015.38442  24434212.406                    24434223.824
 108381775.728 8  84453439.61746  20624355.781                    20624361.305
 110384435.010 8  86013889.617 7  21005457.984                    21005465.246
 112303150.075 7  87508844.899 7  21370530.492                    21370538.957
 11  8  2  1 55 30.0000000  0  9G25G17G09G10G04G27G02G12G05
 122672921.815 7  95589335.383 6  23343884.813                    23343895.789
 124338282.793 6  96887031.762 6  23660769.328                    23660778.000
 128125509.590 6  99838110.20143  24381482.508                    24381492.148
 110161986.455 7  85840599.92145  20963120.531                    20963128.527
 117153293.532 7  91288389.39244  22293514.336                    22293523.176
 128467128.324 6 100104282.16642  24446488.531                    24446499.797
 108392682.332 8  84461938.27946  20626431.039                    20626436.691
 110346498.223 8  85984328.492 7  20998238.922                    20998246.027
 112227160.686 7  87449632.425 7  21356070.164                    21356078.090
 11  8  2  1 56  0.0000000  0  9G25G17G09G10G04G27G02G12G05
 122583612.030 7  95519743.353 7  23326889.680                    23326900.656
 124399872.794 6  96935023.942 6  23672490.273                    23672497.910
 128209268.172 6  99903376.52743  24397421.688                    24397431.047
 110185610.923 7  85859008.61045  20967616.633                    20967624.527
 117234291.891 7  91351504.98144  22308928.250                    22308936.531
 128531589.840 6 100154511.81242  24458754.859                    24458766.008
 108403835.998 8  84470629.45346  20628553.703                    20628559.137
 110309083.395 8  85955174.078 7  20991119.070                    20991126.203
 112151583.801 7  87390741.390 7  21341688.719                    21341696.488
 11  8  2  1 56 30.0000000  0  9G25G17G09G10G04G27G02G12G05
 122494594.300 7  95450378.903 6  23309950.414                    23309960.828
 124461637.120 6  96983151.956 6  23684242.797                    23684251.602
 128293044.089 6  99968656.38843  24413363.570                    24413373.543
 110209855.107 7  85877900.18945  20972229.922                    20972237.730
 117315359.772 7  91414674.75544  22324354.719                    22324363.273
 128596000.930 6 100204702.11342  24471011.320                    24471022.703
 108415235.008 8  84479511.80246  20630723.164                    20630728.426
 110272191.910 8  85926427.488 7  20984098.906                    20984106.492
 112076421.824 7  87332173.648 7  21327385.648                    21327393.359
 11  8  2  1 57  0.0000000  0  8G25G17G09G10G04G02G12G05
 122405871.754 7  95381244.477 7  23293066.484                    23293077.527
 124523576.730 6  97031416.550 6  23696029.359                    23696038.297
 128376834.437 6 100033947.49342  24429308.422                    24429318.824
 110234718.255 7  85897274.07645  20976961.148                    20976968.969
 117396496.101 7  91477897.85344  22339794.594                    22339802.980
 108426878.748 8  84488584.85246  20632938.422                    20632944.270
 110235825.841 8  85898090.287 7  20977179.016                    20977186.129
 112001677.779 8  87273931.570 7  21313162.594                    21313170.160
 11  8  2  1 57 30.0000000  0  8G25G17G09G10G04G02G12G05
 122317447.302 7  95312342.334 6  23276240.141                    23276250.586
 124585692.270 6  97079818.234 6  23707850.109                    23707859.191
 128460636.527 6 100099247.71043  24445255.859                    24445265.500
 110260199.879 8  85917129.89545  20981810.570                    20981818.191
 117477699.549 7  91541173.27045  22355247.102                    22355255.262
 108438766.163 8  84497847.78046  20635200.680                    20635206.129
 110199987.016 8  85870163.941 7  20970358.898                    20970366.027
 111927354.435 8  87216017.312 7  21299019.430                    21299026.902
 11  8  2  1 58  0.0000000  0  8G25G17G09G10G04G02G12G05
 122229322.894 7  95243673.998 6  23259470.305                    23259481.336
 124647983.031 6  97128356.460 6  23719703.063                    23719712.504
 128544446.646 6 100164554.14143  24461204.039                    24461214.410
 110286298.316 7  85937466.35145  20986776.523                    20986784.520
 117558967.654 7  91604499.04744  22370711.797                    22370720.293
 108450895.655 8  84507299.34046  20637509.109                    20637514.535
 110164676.588 8  85842649.322 7  20963639.680                    20963647.086
 111853453.630 8  87158432.294 7  21284956.484                    21284964.188
 11  8  2  1 58 30.0000000  0  8G25G17G09G10G04G02G12G05
 122141501.561 7  95175241.808 7  23242758.695                    23242769.141
 124710449.930 6  97177031.945 6  23731590.734                    23731598.953
 128628261.842 6 100229864.57143  24477154.156                    24477164.773
 110313013.286 7  85958283.22045  20991860.242                    20991868.105
 117640299.475 7  91667874.46544  22386188.938                    22386197.418
 108463266.264 8  84516938.79046  20639863.039                    20639868.461
 110129896.620 7  85815548.055 7  20957021.289                    20957028.254
 111779977.961 8  87101178.566 7  21270974.180                    21270982.027
 11  8  2  1 59  0.0000000  0  8G25G17G09G10G04G02G12G05
 122053985.252 7  95107047.340 6  23226105.477                    23226115.590
 124773092.410 6  97225844.255 6  23743510.797                    23743520.406
 128712078.182 6 100295175.89243  24493104.398                    24493114.727
 110340342.626 7  85979578.82345  20997060.953                    20997068.344
 117721692.523 7  91731297.59844  22401677.328                    22401686.004
 108475875.877 8  84526764.46146  20642262.680                    20642267.809
 110095647.617 7  85788860.529 7  20950503.383                    20950511.199
 111706929.274 8  87044257.558 7  21257073.578                    21257081.219
 11  8  2  1 59 30.0000000  0  8G25G17G09G10G04G02G12G05
 121966777.041 7  95039092.939 6  23209509.234                    23209519.684
 124835911.143 6  97274793.866 6  23755465.734                    23755474.289
 128795892.703 6 100360485.79843  24509052.961                    24509064.172
 110368285.929 7  86001352.83145  21002378.164                    21002386.098
 117803145.804 7  91794767.66944  22417177.703                    22417185.781
 108488723.819 8  84536775.85846  20644707.656                    20644713.082
 110061931.591 8  85762588.318 7  20944087.922                    20944095.203
 111634310.327 8  86987671.417 7  21243254.305                    21243261.973
 11  8  2  2  0  0.0000000  0  8G25G17G09G10G04G02G12G05
 121879879.735 7  94971380.808 6  23192973.523                    23192983.508
 124898906.580 6  97323881.216 6  23767452.766                    23767461.656
 128879702.589 6 100425792.07343  24525001.328                    24525012.574
 110396842.057 7  86023604.35545  21007812.242                    21007820.285
 117884657.943 7  91858283.60644  22432688.578                    22432697.219
 108501809.263 8  84546972.32646  20647197.516                    20647203.078
 110028750.024 8  85736732.572 7  20937773.484                    20937781.027
 111562123.639 8  86931422.104 7  21229518.203                    21229525.578
 11  8  2  2  0 30.0000000  0  8G25G17G09G10G04G02G12G05
 121793296.075 7  94903913.070 6  23176497.500                    23176507.164
 124962079.218 6  97373106.584 6  23779473.891                    23779482.520
 128963504.890 6 100491092.47343  24540948.297                    24540959.746
 110426010.389 7  86046332.93145  21013362.773                    21013370.801
 117966227.308 7  91921844.11944  22448210.953                    22448219.410
 108515131.092 8  84557352.97146  20649732.633                    20649737.855
 109996104.942 7  85711294.856 7  20931561.445                    20931568.809
 111490371.796 8  86875511.615 7  21215864.102                    21215871.609
 11  8  2  2  1  0.0000000  0  8G25G17G09G10G04G02G12G05
 121707027.832 7  94836691.096 6  23160080.906                    23160090.516
 125025428.266 6  97422469.462 6  23791529.625                    23791538.285
 129047295.697 6 100556383.89943  24556893.359                    24556905.250
 110455788.916 7  86069536.98645  21019029.359                    21019037.129
 118047851.691 7  91985447.51544  22463743.719                    22463751.977
 108528687.063 8  84567916.07646  20652311.867                    20652317.746
 109963996.332 7  85686275.167 7  20925451.117                    20925458.383
 111419056.164 8  86819941.042 7  21202292.453                    21202301.000
 11  8  2  2  1 30.0000000  0  8G25G17G09G10G04G02G12G05
 121621079.305 7  94769718.292 6  23143725.375                    23143735.449
 125088955.840 6  97471971.448 6  23803618.273                    23803626.547
 129131073.604 6 100621665.27743  24572836.336                    24572846.871
 110486177.797 7  86093216.63845  21024812.391                    21024820.230
 118129531.106 7  92049093.79144  22479286.789                    22479295.031
 108542477.763 8  84578662.09346  20654936.516                    20654941.824
 109932427.758 8  85661676.292 7  20919443.852                    20919451.047
 111348181.183 8  86764713.830 7  21188806.219                    21188813.609
 11  8  2  2  2  0.0000000  0  8G25G17G09G10G04G02G12G05
 121535451.991 7  94702995.773 6  23127430.711                    23127441.543
 125152660.821 6  97521611.674 6  23815739.945                    23815748.758
 129214833.909 6 100686932.89143  24588775.148                    24588786.184
 110517174.996 7  86117370.30445  21030711.008                    21030718.418
 118211263.031 7  92112780.97244  22494839.336                    22494848.262
 108556500.986 8  84589589.29246  20657604.711                    20657610.637
 109901399.598 7  85637498.526 7  20913539.570                    20913547.223
 111277747.838 8  86709830.744 7  21175402.602                    21175410.066
 11  8  2  2  2 30.0000000  0  8G25G17G09G10G04G02G12G05
 121450148.881 7  94636525.851 6  23111198.445                    23111208.684
 125216543.958 6  97571390.720 6  23827896.922                    23827905.988
 129298574.290 6 100752184.99743  24604710.156                    24604722.051
 110548779.360 7  86141997.08645  21036725.039                    21036732.750
 118293046.132 7  92176508.03044  22510402.539                    22510410.699
 108570755.695 8  84600696.88146  20660317.461                    20660322.902
 109870913.569 8  85613743.188 7  20907738.461                    20907745.313
 111207758.579 8  86655293.709 7  21162084.258                    21162091.664
 11  8  2  2  3  0.0000000  0  8G25G17G09G10G04G02G12G05
 121365172.280 7  94570310.348 6  23095027.875                    23095038.082
 125280605.268 6  97621308.622 6  23840087.789                    23840096.637
 129382291.203 6 100817418.86643  24620641.570                    24620652.656
 110580989.544 7  86167095.93945  21042854.625                    21042862.410
 118374878.848 7  92240273.78344  22525974.531                    22525983.359
 108585240.527 8  84611983.77846  20663073.922                    20663079.168
 109840970.677 7  85590411.077 7  20902040.195                    20902047.875
 111138215.377 8  86601104.239 7  21148850.461                    21148858.305
 11  8  2  2  3 30.0000000  0  8G25G17G09G10G04G02G12G05
 121280524.777 7  94504351.296 6  23078919.742                    23078930.141
 125344844.511 6  97671365.143 6  23852311.859                    23852320.996
 129465981.601 6 100882632.03143  24636567.898                    24636577.957
 110613804.195 7  86192665.80545  21049098.992                    21049106.434
 118456759.562 7  92304076.91644  22541556.102                    22541564.414
 108599954.106 8  84623448.92346  20665873.922                    20665879.129
 109811572.134 8  85567503.144 7  20896445.688                    20896453.227
 111069120.683 8  86547264.250 7  21135702.039                    21135710.082
 11  8  2  2  4  0.0000000  0  8G25G17G09G10G04G02G12G05
 121196209.680 7  94438651.280 7  23062874.758                    23062885.750
 125409263.140 6  97721561.458 6  23864570.539                    23864579.563
 129549643.074 6 100947822.66343  24652488.445                    24652498.281
 110647222.878 7  86218706.34845  21055458.461                    21055465.813
 118538687.349 7  92367916.72844  22557146.852                    22557155.004
 108614896.128 8  84635092.07446  20668716.578                    20668722.402
 109782720.084 8  85545021.045 7  20890955.375                    20890963.031
 111000477.476 8  86493776.073 7  21122639.664                    21122647.375
 11  8  2  2  4 30.0000000  0  8G25G17G09G10G04G02G12G05
 121112228.980 7  94373211.842 7  23046893.867                    23046905.297
 125473860.465 6  97771897.027 6  23876863.086                    23876871.191
 129633271.698 6 101012987.72643  24668401.625                    24668412.926
 110681243.573 7  86245215.99045  21061932.219                    21061939.672
 118620660.538 7  92431791.91944  22572745.125                    22572753.891
 108630064.668 8  84646911.73146  20671603.609                    20671608.859
 109754415.322 7  85522965.398 7  20885569.703                    20885576.531
 110932287.449 8  86440641.018 7  21109663.477                    21109671.316
 11  8  2  2  5  0.0000000  0  8G25G17G09G10G04G02G12G05
 121028585.325 7  94308035.005 7  23030977.313                    23030988.492
 125538636.770 6  97822372.062 6  23889189.789                    23889198.633
 129716864.600 6 101078124.93543  24684308.328                    24684320.016
 110715864.910 7  86272193.66745  21068520.508                    21068527.816
 118702677.323 7  92495701.10044  22588352.406                    22588360.965
 108645458.479 8  84658906.91946  20674532.789                    20674538.406
 109726659.151 8  85501337.231 7  20880287.328                    20880294.484
 110864552.495 8  86387860.577 7  21096774.414                    21096781.734
 11  8  2  2  5 30.0000000  0  8G25G17G09G10G04G02G12G05
 120945281.498 7  94243122.963 7  23015125.047                    23015136.465
 125603592.439 6  97872986.867 6  23901549.742                    23901559.141
 129800418.982 6 101143232.15043  24700208.039                    24700219.363
 110751085.713 7  86299638.45945  21075222.750                    21075230.879
 118784736.637 7  92559643.41144  22603967.664                    22603976.309
 108661076.657 8  84671076.94446  20677504.953                    20677510.500
 109699452.954 8  85480137.610 7  20875110.328                    20875117.418
 110797274.955 8  86335436.561 7  21083971.688                    21083979.063
 11  8  2  2  6  0.0000000  0  8G25G17G09G10G04G02G12G05
 120862320.392 7  94178477.975 7  22999337.594                    22999349.324
 125668727.876 6  97923741.753 6  23913944.570                    23913953.461
 129883932.206 6 101208307.26843  24716101.563                    24716111.809
 110786905.048 7  86327549.63945  21082038.820                    21082046.270
 118866837.339 7  92623617.97144  22619591.484                    22619599.895
 108676918.447 8  84683421.21146  20680519.461                    20680524.910
 109672798.171 7  85459367.658 7  20870038.289                    20870045.031
 110730458.156 8  86283371.553 7  21071256.852                    21071264.137
 11  8  2  2  6 30.0000000  0  8G25G17G09G10G04G02G12G05
 120779704.384 7  94114101.908 7  22983616.188                    22983627.469
 125734042.988 6  97974636.638 6  23926373.898                    23926383.000
 129967400.707 6 101273347.55043  24731984.461                    24731995.387
 110823321.187 7  86355925.85745  21088968.805                    21088976.539
 118948977.693 7  92687623.43944  22635222.063                    22635230.918
 108692982.258 8  84695938.48046  20683576.539                    20683582.063
 109646696.035 8  85439028.343 7  20865070.961                    20865077.992
 110664103.480 8  86231666.645 7  21058630.336                    21058637.551
 11  8  2  2  7  0.0000000  0  8G25G17G09G10G04G02G12G05
 120697436.223 7  94049996.869 7  22967960.906                    22967972.023
 125799538.271 6  98025671.928 6  23938837.719                    23938846.473
 130050821.680 6 101338350.79043  24747859.313                    24747870.609
 110860333.073 7  86384766.30545  21096011.820                    21096019.977
 119031156.428 7  92751658.79244  22650860.789                    22650868.914
 108709267.108 8  84708627.98046  20686675.023                    20686680.688
 109621147.773 8  85419120.614 7  20860209.656                    20860216.305
 110598213.463 8  86180323.810 7  21046091.273                    21046098.977
 11  8  2  2  7 30.0000000  0  8G25G17G09G10G04G02G12G05
 120615518.085 7  93986164.570 7  22952373.203                    22952383.602
 125865213.304 6  98076847.260 6  23951334.828                    23951344.215
 130134191.823 6 101403314.42043  24763724.680                    24763735.508
 110897938.508 7  86414069.25545  21103167.867                    21103175.230
 119113371.746 7  92815722.66444  22666505.813                    22666513.742
 108725771.373 8  84721488.45446  20689815.969                    20689821.164
 109596154.332 8  85399645.220 7  20855453.047                    20855460.164
 110532789.802 8  86129344.365 7  21033641.633                    21033649.371
 11  8  2  2  8  0.0000000  0  8G25G17G09G10G04G02G12G05
 120533952.952 7  93922607.359 7  22936851.531                    22936862.125
 125931068.782 6  98128163.167 6  23963867.266                    23963875.352
 130217508.417 6 101468236.35943  24779579.055                    24779590.422
 110936136.649 7  86443834.04745  21110436.656                    21110444.316
 119195622.897 7  92879814.46444  22682156.680                    22682165.660
 108742494.582 8  84734519.53546  20692998.258                    20693003.809
 109571717.509 8  85380603.558 7  20850803.047                    20850809.879
 110467834.884 7  86078730.178 7  21021281.055                    21021288.875
 11  8  2  2  8 30.0000000  0  8G25G17G09G10G04G02G12G05
 120452743.115 7  93859326.987 7  22921398.070                    22921408.363
 125997104.711 6  98179619.738 6  23976433.570                    23976441.801
 130300768.096 6 101533113.88943  24795422.539                    24795434.148
 110974925.461 7  86474059.10145  21117818.164                    21117825.699
 119277908.125 7  92943932.80844  22697815.727                    22697824.199
 108759434.813 8  84747719.72646  20696221.680                    20696227.422
 109547837.738 8  85361995.948 7  20846258.945                    20846266.012
 110403350.684 8  86028482.782 7  21009010.063                    21009017.848
 11  8  2  2  9  0.0000000  0  8G25G17G09G10G04G02G12G05
 120371891.501 7  93796325.739 6  22906012.281                    22906022.719
 126063321.311 6  98231217.082 6  23989033.242                    23989042.250
 130383968.223 6 101597945.07343  24811255.188                    24811266.711
 111014303.795 7  86504743.52945  21125311.523                    21125319.211
 119360226.346 7  93008076.86844  22713480.758                    22713488.109
 108776591.516 8  84761088.59846  20699486.547                    20699491.711
 109524516.781 8  85343823.781 7  20841821.297                    20841828.219
 110339339.569 8  85978604.033 7  20996829.219                    20996837.184
 11  8  2  2  9 30.0000000  0  8G25G17G09G10G04G02G12G05
 120291400.424 7  93733605.411 7  22890695.547                    22890706.035
 126129718.580 6  98282955.192 6  24001668.789                    24001677.621
 130467105.746 6 101662727.47543  24827075.875                    24827087.160
 111054269.927 7  86535885.98645  21132916.773                    21132924.199
 119442575.728 7  93072245.21544  22729151.070                    22729158.902
 108793963.295 8  84774625.06046  20702792.602                    20702797.746
 109501755.130 8  85326087.433 7  20837489.820                    20837496.574
 110275803.377 8  85929095.345 7  20984738.680                    20984746.152
 11  8  2  2 10  0.0000000  0  8G25G17G09G10G04G02G12G05
 120211272.166 7  93671167.810 7  22875447.266                    22875457.699
 126196296.565 6  98334834.133 6  24014338.500                    24014346.762
 130550177.479 6 101727458.56943  24842883.570                    24842895.434
 111094822.022 7  86567485.03545  21140633.461                    21140641.211
 119524955.101 7  93136436.92044  22744827.016                    22744835.473
 108811548.661 8  84788327.94946  20706138.484                    20706144.109
 109479554.029 8  85308787.880 7  20833264.883                    20833272.387
 110212744.078 8  85879958.252 7  20972738.898                    20972746.426
 11  8  2  2 10 30.0000000  0  8G25G17G09G10G04G02G12G05
 120131510.424 7  93609015.802 7  22860269.406                    22860279.773
 126263056.392 6  98386854.767 6  24027042.289                    24027051.422
 130633181.297 6 101792136.73543  24858678.750                    24858690.539
 111135959.555 7  86599540.26545  21148461.570                    21148469.422
 119607363.861 7  93200651.52844  22760508.625                    22760516.973
 108829347.410 8  84802197.12046  20709526.031                    20709531.348
 109457915.546 8  85291926.741 7  20829147.242                    20829154.270
 110150164.802 7  85831195.223 7  20960830.219                    20960838.254
 11  8  2  2 11  0.0000000  0  7G25G17G10G04G02G12G05
 120052117.685 7  93547151.341 7  22845161.055                    22845171.996
 126329998.245 6  98439017.209 6  24039781.109                    24039789.879
 111177680.971 7  86632050.46045  21156401.625                    21156408.699
 119689800.837 7  93264888.12444  22776196.180                    22776204.984
 108847358.567 8  84816231.79946  20712953.352                    20712958.406
 109436840.286 8  85275504.459 7  20825136.891                    20825143.969
 110088067.693 8  85782807.891 7  20949013.594                    20949021.266
 11  8  2  2 11 30.0000000  0  7G25G17G10G04G02G12G05
 119973095.794 7  93485575.840 7  22830123.688                    22830134.367
 126397121.223 6  98491320.824 6  24052553.563                    24052562.531
 111219983.898 7  86665013.78045  21164450.789                    21164458.938
 119772264.089 7  93329145.17944  22791888.250                    22791896.457
 108865580.128 8  84830430.41846  20716420.602                    20716425.840
 109416328.684 8  85259521.402 7  20821233.648                    20821240.480
 110026453.964 8  85734797.227 7  20937288.781                    20937296.918
 11  8  2  2 12  0.0000000  0  7G25G17G10G04G02G12G05
 119894447.422 7  93424291.397 7  22815157.461                    22815167.820
 126464425.737 6  98543765.905 6  24065361.492                    24065370.152
 111262866.755 7  86698429.00345  21172611.203                    21172618.777
 119854752.328 7  93393421.74344  22807585.273                    22807593.727
 108884011.171 8  84844792.28446  20719928.094                    20719933.184
 109396382.254 8  85243978.726 7  20817437.883                    20817444.988
 109965325.602 8  85687164.761 7  20925656.453                    20925664.219
 11  8  2  2 12 30.0000000  0  7G25G17G10G04G02G12G05
 119816174.693 7  93363299.665 6  22800262.758                    22800272.828
 126531911.459 6  98596352.154 6  24078204.336                    24078212.496
 111306327.367 7  86732294.43745  21180881.719                    21180888.945
 119937263.919 7  93457716.46144  22823287.102                    22823295.020
 108902650.236 8  84859316.23946  20723474.672                    20723480.484
 109377001.567 8  85228876.903 7  20813749.891                    20813757.180
 109904684.037 8  85639911.625 7  20914116.578                    20914124.164
 11  8  2  2 13  0.0000000  0  7G25G17G10G04G02G12G05
 119738280.218 7  93302602.667 7  22785440.188                    22785450.531
 126599578.619 6  98649079.803 6  24091081.008                    24091089.367
 111350363.925 7  86766608.64845  21189261.664                    21189269.289
 120019797.469 7  93522028.31444  22838992.063                    22839000.855
 108921496.052 8  84874001.29346  20727060.945                    20727066.453
 109358187.374 8  85214216.499 7  20810169.703                    20810176.961
 109844531.742 8  85593039.744 7  20902670.188                    20902677.852
 11  8  2  2 13 30.0000000  0  7G25G17G10G04G02G12G05
 119660766.512 7  93242202.418 7  22770689.563                    22770700.113
 126667427.326 6  98701948.909 6  24103991.656                    24104000.242
 111394974.806 7  86801370.38545  21197750.633                    21197758.391
 120102351.922 7  93586356.42944  22854702.438                    22854710.457
 108940547.396 8  84888846.51246  20730686.328                    20730691.660
 109339940.591 8  85199998.226 7  20806697.086                    20806704.395
 109784870.481 8  85546550.480 7  20891317.133                    20891324.648
 11  8  2  2 14  0.0000000  0  7G25G17G10G04G02G12G05
 119583636.005 7  93182100.733 7  22756011.750                    22756022.824
 126735457.696 6  98754959.577 6  24116936.898                    24116945.914
 111440158.405 7  86836578.37945  21206348.875                    21206356.430
 120184925.870 7  93650699.75444  22870415.445                    22870423.996
 108959803.023 8  84903850.90646  20734350.828                    20734356.094
 109322262.234 8  85186222.893 7  20803333.109                    20803340.242
 109725702.104 8  85500445.282 7  20880057.398                    20880064.934
 11  8  2  2 14 30.0000000  0  7G25G17G10G04G02G12G05
 119506891.949 7  93122300.201 7  22741408.461                    22741419.012
 126803670.383 6  98808112.288 6  24129917.828                    24129926.277
 111485913.692 7  86872231.85345  21215055.555                    21215063.414
 120267518.790 7  93715057.86244  22886132.711                    22886140.848
 108979262.945 8  84919014.48946  20738053.664                    20738058.832
 109305153.541 8  85172891.449 7  20800077.641                    20800084.672
 109667029.379 8  85454726.305 7  20868892.586                    20868900.500
 11  8  2  2 15  0.0000000  0  7G25G17G10G04G02G12G05
 119430536.525 7  93062802.487 7  22726878.219                    22726888.352
 126872065.088 7  98861406.867 6  24142933.156                    24142941.613
 111532238.512 7  86908329.10745  21223871.094                    21223878.469
 120350129.084 7  93779429.53644  22901852.359                    22901861.066
 108998925.565 8  84934336.02346  20741795.281                    20741800.566
 109288615.709 8  85160004.829 7  20796930.586                    20796937.363
 109608853.821 8  85409394.738 7  20857821.977                    20857829.367
 11  8  2  2 15 30.0000000  0  7G25G17G10G04G02G12G05
 119354571.820 7  93003609.238 7  22712422.602                    22712432.844
 126940641.410 6  98914842.965 6  24155982.578                    24155990.895
 111579130.446 7  86944868.29245  21232794.453                    21232802.102
 120432755.289 7  93843813.57444  22917576.164                    22917584.289
 109018789.203 8  84949814.18946  20745575.578                    20745580.590
 109272649.257 8  85147563.439 7  20793892.180                    20793899.230
 109551176.932 8  85364451.733 7  20846846.797                    20846854.195
 11  8  2  2 16  0.0000000  0  7G25G17G10G04G02G12G05
 119279000.604 7  92944722.588 7  22698042.125                    22698052.168
 127009400.078 6  98968421.120 6  24169066.984                    24169075.438
 111626588.208 7  86981848.36445  21241824.875                    21241832.805
 120515396.453 7  93908209.27244  22933301.672                    22933310.578
 109038852.936 8  84965448.27346  20749393.328                    20749398.336
 109257254.395 8  85135567.444 7  20790962.406                    20790969.328
 109494000.913 8  85319899.018 7  20835966.109                    20835973.820
 11  8  2  2 16 30.0000000  0  7G25G17G10G04G02G12G05
 119203824.922 7  92886144.171 7  22683736.797                    22683746.313
 127078340.682 6  99022141.066 6  24182185.922                    24182195.184
 111674609.205 7  87019267.33845  21250963.625                    21250970.945
 120598050.918 7  93972615.36844  22949030.367                    22949039.059
 109059115.390 8  84981237.18846  20753249.023                    20753254.391
 109242431.797 8  85124017.376 7  20788142.023                    20788149.309
 109437327.011 8  85275737.573 7  20825181.063                    20825189.035
 11  8  2  2 17  0.0000000  0  7G25G17G10G04G02G12G05
 119129048.377 7  92827876.764 7  22669507.219                    22669517.512
 127147464.042 6  99076003.437 5  24195339.258                    24195347.938
 111723192.791 7  87057124.66245  21260208.445                    21260216.137
 120680718.566 7  94037031.69544  22964761.578                    22964769.965
 109079576.513 8  84997180.92646  20757142.719                    20757147.949
 109228183.505 8  85112914.805 7  20785430.930                    20785437.730
 109381158.207 8  85231969.704 7  20814492.852                    20814500.398
 11  8  2  2 17 30.0000000  0  7G25G17G10G04G02G12G05
 119054672.660 7  92769921.715 7  22655353.492                    22655364.070
 127216769.547 6  99130007.715 5  24208526.836                    24208537.098
 111772336.449 7  87095418.42245  21269560.148                    21269567.875
 120763397.478 7  94101456.81844  22980494.617                    22980503.488
 109100234.446 8  85013278.02046  20761073.523                    20761079.016
 109214509.506 8  85102259.747 7  20782828.602                    20782835.215
 109325495.770 8  85188596.399 7  20803900.711                    20803908.051
 11  8  2  2 18  0.0000000  0  7G25G17G10G04G02G12G05
 118980700.108 7  92712280.785 7  22641276.930                    22641287.016
 127286257.156 6  99184153.880 6  24221751.031                    24221759.480
 111822038.036 7  87134146.94145  21279018.273                    21279025.660
 120846086.365 7  94165889.71344  22996230.445                    22996238.563
 109121087.829 8  85029527.41446  20765041.945                    20765047.379
 109201410.507 8  85092052.741 7  20780335.703                    20780343.031
 109270341.203 8  85145618.849 7  20793404.906                    20793412.621
 11  8  2  2 18 30.0000000  0  7G25G17G10G04G02G12G05
 118907133.424 7  92654956.140 7  22627277.781                    22627287.340
 127355927.165 6  99238442.129 6  24235009.078                    24235017.605
 111872295.751 7  87173308.78545  21288581.828                    21288589.820
 120928784.467 6  94230329.78844  23011966.828                    23011975.570
 109142135.921 8  85045928.52446  20769047.141                    20769052.832
 109188887.358 8  85082294.445 7  20777952.641                    20777959.910
 109215696.548 8  85103038.631 7  20783006.602                    20783013.672
 11  8  2  2 19  0.0000000  0  7G25G17G10G04G02G12G05
 118833975.170 7  92597949.725 7  22613356.000                    22613366.328
 127425779.509 6  99292872.525 6  24248301.422                    24248309.754
 111923107.893 7  87212902.66245  21298250.945                    21298258.613
 121011490.417 6  94294775.99344  23027705.719                    23027713.887
 109163377.696 8  85062480.56346  20773089.344                    20773094.801
 109176940.764 8  85072985.408 7  20775679.281                    20775686.719
 109161563.755 8  85060857.255 7  20772705.695                    20772712.934
 11  8  2  2 19 30.0000000  0  8G25G17G29G10G04G02G12G05
 118761227.400 7  92541263.187 7  22599512.484                    22599523.168
 127495814.302 6  99347445.074 6  24261628.398                    24261636.844
 129591654.17916 100980546.86115  24660477.055                    24660485.770
 111974472.289 7  87252926.85045  21308025.313                    21308032.992
 121094203.026 6  94359227.35944  23043444.859                    23043453.484
 109184811.772 8  85079182.44546  20777168.633                    20777173.465
 109165571.079 7  85064125.922 7  20773516.109                    20773522.996
 109107944.163 8  85019075.785 7  20762502.109                    20762509.488
 11  8  2  2 20  0.0000000  0  8G25G17G29G10G04G02G12G05
 118688893.253 7  92484898.945 7  22585747.633                    22585758.609
 127566032.009 6  99402160.136 6  24274989.641                    24274999.113
 129511953.741 6 100918442.653 5  24645311.273                    24645318.715
 112026387.519 7  87293380.26645  21317903.898                    21317912.414
 121176921.866 6  94423683.60344  23059185.984                    23059194.664
 109206437.780 7  85096033.88046  20781283.805                    20781288.898
 109154779.699 7  85055717.061 7  20771462.547                    20771469.531
 109054840.237 8  84977696.132 7  20752396.594                    20752404.000
 11  8  2  2 20 30.0000000  0  8G25G17G29G10G04G02G12G05
 118616975.160 7  92428858.915 7  22572062.438                    22572072.711
 127636432.207 6  99457017.432 6  24288386.906                    24288395.867
 129432180.785 6 100856281.922 5  24630130.836                    24630138.449
 112078851.300 7  87334261.13845  21327888.195                    21327895.605
 121259645.772 6  94488143.81544  23074927.758                    23074936.828
 109228254.687 8  85113034.07246  20785435.164                    20785440.625
 109144567.669 8  85047759.637 7  20769519.313                    20769526.258
 109002253.473 8  84936719.459 7  20742389.602                    20742397.109
 11  8  2  2 21  0.0000000  0  8G25G17G29G10G04G02G12G05
 118545475.168 7  92373144.670 7  22558456.227                    22558466.551
 127707015.192 6  99512017.112 6  24301818.297                    24301828.020
 129352335.902 6 100794065.159 5  24614936.711                    24614944.957
 112131861.423 7  87375567.73245  21337975.422                    21337983.316
 121342373.219 7  94552606.74944  23090670.961                    23090679.566
 109250260.984 8  85130181.83946  20789622.820                    20789628.133
 109134934.367 7  85040253.176 7  20767686.063                    20767692.930
 108950185.378 8  84896146.952 7  20732480.805                    20732488.945
 11  8  2  2 21 30.0000000  0  8G25G17G29G10G04G02G12G05
 118474394.811 7  92317757.406 7  22544930.359                    22544940.590
 127777780.082 6  99567158.565 6  24315284.914                    24315293.781
 129272418.776 6 100731792.095 5  24599728.500                    24599737.391
 112185415.243 7  87417297.97345  21348166.383                    21348173.992
 121425102.501 6  94617071.12544  23106413.461                    23106422.004
 109272454.649 8  85147475.61246  20793846.055                    20793851.438
 109125879.568 8  85033197.502 7  20765963.109                    20765969.945
 108898636.696 8  84855979.172 7  20722672.055                    20722679.578
 11  8  2  2 22  0.0000000  0  8G25G17G29G10G04G02G12G05
 118403737.328 7  92262699.660 7  22531484.352                    22531495.125
 127848727.251 6  99622442.048 6  24328785.797                    24328794.785
 129192430.561 6 100669463.640 5  24584507.984                    24584515.543
 112239511.190 7  87459450.65345  21358460.031                    21358468.449
 121507833.249 6  94681536.62143  23122155.914                    23122165.516
 109294835.438 8  85164915.19246  20798105.234                    20798110.555
 109117405.246 8  85026594.139 7  20764350.172                    20764357.238
 108847609.982 8  84816218.120 7  20712961.828                    20712969.328
 11  8  2  2 22 30.0000000  0  8G25G17G29G10G04G02G12G05
 118333504.539 7  92207972.834 7  22518119.430                    22518130.633
 127919856.579 6  99677867.502 6  24342321.359                    24342330.207
 129112371.532 6 100607079.958 5  24569272.578                    24569281.320
 112294146.732 7  87502023.80445  21368857.125                    21368865.133
 121590563.912 6  94746002.08343  23137898.914                    23137908.012
 109317401.920 8  85182499.46846  20802398.906                    20802404.297
 109109511.045 8  85020442.822 7  20762848.023                    20762854.742
 108797106.384 8  84776864.696 7  20703351.234                    20703359.031
 11  8  2  2 23  0.0000000  0  8G25G17G29G10G04G02G12G05
 118263699.316 7  92153579.189 7  22504836.047                    22504846.762
 127991168.347 6  99733435.085 6  24355890.828                    24355900.270
 129032242.573 6 100544641.814 5  24554025.469                    24554033.961
 112349320.564 7  87545016.38145  21379356.797                    21379364.160
 121673293.666 6  94810466.81544  23153642.531                    23153650.934
 109340153.674 8  85200228.11546  20806728.344                    20806733.973
 109102198.070 8  85014744.406 7  20761456.344                    20761463.570
 108747127.783 8  84737920.355 7  20693840.477                    20693848.215
 11  8  2  2 23 30.0000000  0  8G25G17G29G10G04G02G12G05
 118194323.828 7  92099520.391 7  22491634.797                    22491644.734
 128062662.062 7  99789144.488 6  24369496.086                    24369505.070
 128952044.041 6 100482149.462 5  24538763.898                    24538773.191
 112405030.076 7  87588426.39045  21389957.930                    21389965.707
 121756021.430 6  94874930.01944  23169384.664                    23169393.301
 109363089.158 8  85218099.93746  20811093.180                    20811098.676
 109095466.366 8  85009498.939 7  20760175.477                    20760182.453
 108697675.558 8  84699386.182 7  20684430.445                    20684437.707
 11  8  2  2 24  0.0000000  0  8G25G17G29G10G04G02G12G05
 118125380.263 7  92045798.143 7  22478515.086                    22478525.258
 128134337.792 6  99844995.712 6  24383135.703                    24383144.410
 128871776.229 6 100419603.144 5  24523489.422                    24523497.781
 112461273.061 7  87632252.08445  21400660.320                    21400668.102
 121838746.085 6  94939390.79843  23185126.984                    23185135.387
 109386207.220 8  85236114.01546  20815492.680                    20815497.930
 109089316.333 8  85004706.716 7  20759004.977                    20759012.117
 108648751.368 8  84661263.463 7  20675120.109                    20675127.906
 11  8  2  2 24 30.0000000  0  8G25G17G29G10G04G02G12G05
 118056871.000 7  91992414.322 7  22465478.172                    22465488.215
 128206195.540 6  99900988.761 6  24396809.672                    24396818.199
 128791439.888 6 100357003.386 6  24508201.789                    24508210.406
 112518047.161 7  87676491.65245  21411464.273                    21411472.000
 121921466.515 6  95003848.26043  23200868.477                    23200875.984
 109409506.781 8  85254269.52446  20819926.234                    20819931.711
 109083748.617 8  85000368.245 7  20757945.641                    20757952.598
 108600356.610 8  84623553.295 7  20665911.250                    20665918.688
 11  8  2  2 25  0.0000000  0  8G25G17G29G10G04G02G12G05
 117988798.641 7  91939370.945 7  22452524.547                    22452534.797
 128278235.551 6  99957123.797 6  24410518.211                    24410526.867
 128711035.796 6 100294350.872 6  24492901.063                    24492910.227
 112575350.522 7  87721143.61845  21422368.117                    21422376.277
 122004182.333 7  95068302.13144  23216608.945                    23216616.652
 109432987.051 7  85272565.84946  20824394.367                    20824399.738
 109078763.585 7  84996483.820 7  20756996.750                    20757003.465
 108552493.001 8  84586257.007 7  20656802.813                    20656810.340
 11  8  2  2 25 30.0000000  0  8G25G17G29G10G04G02G12G05
 117921165.051 7  91886669.472 7  22439654.203                    22439664.578
 128350457.150 6 100013400.402 6  24424261.195                    24424270.531
 128630564.239 6 100231645.794 6  24477588.305                    24477597.176
 112633180.693 7  87766206.08345  21433373.242                    21433381.508
 122086891.804 6  95132751.04243  23232347.820                    23232355.922
 109456646.620 7  85291001.88346  20828896.313                    20828902.215
 109074361.152 8  84993053.364 7  20756159.023                    20756166.160
 108505161.821 8  84549375.595 7  20647796.016                    20647803.770
 11  8  2  2 26  0.0000000  0  8G25G17G29G10G04G02G12G05
 117853972.672 7  91834311.781 7  22426867.867                    22426878.504
 128422860.545 6 100069818.598 6  24438039.844                    24438048.719
 128550025.915 6 100168888.685 6  24462262.586                    24462271.207
 112691535.708 7  87811677.51445  21444477.953                    21444485.418
 122169594.113 7  95197194.39043  23248085.273                    23248093.180
 109480484.421 8  85309576.80446  20833432.844                    20833438.180
 109070542.063 8  84990077.459 7  20755432.422                    20755439.512
 108458364.467 8  84512910.148 7  20638890.586                    20638898.215
 11  8  2  2 26 30.0000000  0  8G25G17G29G10G04G02G12G05
 117787223.937 7  91782299.793 7  22414165.883                    22414176.629
 128495445.597 6 100126378.371 6  24451852.336                    24451861.078
 128469421.531 6 100106080.082 6  24446923.805                    24446932.652
 112750413.396 7  87857556.22345  21455682.422                    21455689.723
 122252288.442 7  95261631.51244  23263821.664                    23263829.770
 109504499.872 7  85328290.15146  20838002.953                    20838007.984
 109067306.323 7  84987556.104 7  20754816.539                    20754823.301
 108412102.458 8  84476861.857 7  20630087.656                    20630095.125
 11  8  2  2 27  0.0000000  0  8G25G17G29G10G04G02G12G05
 117720921.787 7  91730635.799 7  22401549.625                    22401559.184
 128568212.962 6 100183080.174 6  24465698.750                    24465709.070
 128388752.379 6 100043221.000 6  24431572.391                    24431581.773
 112809812.219 7  87903841.01945  21466985.320                    21466993.090
 122334974.295 6  95326062.06244  23279555.758                    23279564.902
 109528692.682 7  85347141.70446  20842606.688                    20842611.895
 109064655.371 7  84985490.439 7  20754312.133                    20754319.043
 108366378.226 8  84441232.622 8  20621386.305                    20621393.754
 11  8  2  2 27 30.0000000  0  8G25G17G29G10G04G02G12G05
 117655067.221 7  91679320.569 7  22389017.594                    22389027.246
 128641161.177 6 100239922.908 6  24479580.867                    24479589.664
 128308018.034 6  99980311.138 6  24416209.969                    24416218.891
 112869728.701 7  87950529.19445  21478386.703                    21478394.750
 122417649.765 6  95390484.46943  23295288.977                    23295297.543
 109553060.314 7  85366129.48146  20847243.086                    20847248.699
 109062588.010 8  84983879.525 7  20753918.930                    20753925.813
 108321191.607 8  84406022.301 8  20612787.617                    20612794.949
 11  8  2  2 28  0.0000000  0  8G25G17G29G10G04G02G12G05
 117589663.013 7  91628356.272 7  22376570.805                    22376581.918
 128714291.111 6 100296907.227 6  24493497.188                    24493506.016
 128227219.380 6  99917351.140 6  24400834.422                    24400843.250
 112930160.981 7  87997619.27945  21489886.945                    21489894.352
 122500314.502 6  95454898.52544  23311019.242                    23311027.883
 109577602.358 8  85385253.15246  20851913.805                    20851919.309
 109061104.880 7  84982723.846 7  20753636.266                    20753643.504
 108276544.472 8  84371232.346 7  20604291.344                    20604298.930
 11  8  2  2 28 30.0000000  0  8G25G17G29G10G04G02G12G05
 117524711.565 7  91577744.785 7  22364211.391                    22364221.766
 128787602.218 5 100354032.775 5  24507446.945                    24507456.762
 128146357.317 6  99854341.777 6  24385446.609                    24385455.543
 112991106.777 7  88045109.50045  21501484.672                    21501492.301
 122582967.350 6  95519303.32344  23326747.461                    23326756.402
 109602317.807 8  85404511.95146  20856616.781                    20856622.211
 109060206.310 8  84982023.661 7  20753465.500                    20753472.730
 108232438.676 8  84336864.224 8  20595898.242                    20595905.980
 11  8  2  2 29  0.0000000  0  7G25G29G10G04G02G12G05
 117460216.620 7  91527489.005 7  22351938.711                    22351948.922
 128065433.938 6  99791284.631 6  24370047.781                    24370056.680
 113052565.543 7  88092999.43645  21513179.609                    21513187.766
 122665609.028 6  95583699.42043  23342473.719                    23342482.754
 109627207.255 8  85423906.33346  20861352.727                    20861358.586
 109059894.397 8  84981780.622 7  20753406.055                    20753413.598
 108188876.555 8  84302919.743 8  20587608.766                    20587616.570
 11  8  2  2 29 30.0000000  0  7G25G29G10G04G02G12G05
 117396178.362 7  91477589.094 7  22339752.117                    22339762.891
 127984448.020 6  99728178.722 6  24354636.070                    24354645.004
 113114532.585 7  88141285.43845  21524971.859                    21524979.301
 122748236.671 6  95648084.53943  23358197.742                    23358206.043
 109652267.678 7  85443433.94846  20866122.039                    20866127.469
 109060166.669 8  84981992.792 7  20753458.234                    20753465.012
 108145857.932 8  84269398.762 7  20579422.398                    20579429.938
 11  8  2  2 30  0.0000000  0  7G25G29G10G04G02G12G05
 117332599.008 7  91428046.759 7  22327653.523                    22327663.508
 127903400.335 6  99665024.656 5  24339213.328                    24339222.211
 113177005.516 7  88189965.66645  21536859.648                    21536867.203
 122830849.336 6  95712458.04143  23373917.242                    23373926.762
 109677498.263 8  85463094.14746  20870923.328                    20870928.930
 109061023.588 8  84982660.522 7  20753620.883                    20753628.398
 108103383.834 8  84236302.086 8  20571340.055                    20571347.191
 11  8  2  2 30 30.0000000  0  7G25G29G10G04G02G12G05
 117269480.793 7  91378863.750 7  22315642.406                    22315652.727
 127822291.670 6  99601823.087 6  24323778.805                    24323787.770
 113239982.499 7  88239038.64345  21548843.883                    21548851.422
 122913446.146 6  95776819.13743  23389635.750                    23389644.258
 109702897.798 8  85482885.99746  20875756.539                    20875761.535
 109062465.265 7  84983783.913 7  20753895.336                    20753902.172
 108061455.799 8  84203630.919 8  20563361.281                    20563368.820
 11  8  2  2 31  0.0000000  0  7G25G29G10G04G02G12G05
 117206825.918 7  91330041.797 7  22303719.617                    22303729.980
 127741122.679 6  99538574.493 6  24308333.438                    24308342.496
 113303461.012 7  88288502.41145  21560923.250                    21560931.754
 122996026.320 6  95841167.31343  23405350.047                    23405358.781
 109728465.431 8  85502808.83346  20880621.969                    20880627.594
 109064491.813 8  84985363.042 7  20754280.883                    20754288.391
 108020075.028 8  84171386.185 8  20555487.070                    20555494.316
 11  8  2  2 31 30.0000000  0  8G25G01G29G10G04G02G12G05
 117144637.284 7  91281583.148 7  22291885.641                    22291895.594
 131273619.48316 102291208.95716  24980545.352                    24980559.281
 127659894.570 6  99475279.889 6  24292876.766                    24292885.414
 113367439.487 7  88338355.77345  21573097.977                    21573105.645
 123078589.536 6  95905502.24543  23421061.898                    23421069.973
 109754201.022 8  85522862.55246  20885519.281                    20885524.535
 109067104.095 8  84987398.582 7  20754778.133                    20754784.875
 107979242.988 8  84139569.040 8  20547716.539                    20547724.078
 11  8  2  2 32  0.0000000  0  8G25G01G29G10G04G02G12G05
 117082916.196 7  91233488.822 7  22280140.477                    22280150.930
 131204715.485 6 102237517.580 6  24967433.711                    24967448.133
 127578607.352 6  99411939.205 5  24277406.602                    24277416.289
 113431914.395 7  88388595.96745  21585366.625                    21585374.801
 123161134.238 6  95969822.75643  23436768.906                    23436777.363
 109780102.596 8  85543045.61446  20890447.938                    20890453.313
 109070301.336 8  84989889.936 7  20755386.438                    20755393.688
 107938960.478 8  84108180.095 8  20540050.844                    20540058.242
 11  8  2  2 32 30.0000000  0  8G25G01G29G10G04G02G12G05
 117021665.207 7  91185760.813 7  22268484.789                    22268495.266
 131135948.190 6 102183932.731 5  24954347.359                    24954362.195
 127497262.199 6  99348553.428 6  24261928.047                    24261936.805
 113496884.012 7  88439221.63845  21597731.148                    21597738.141
 123243660.072 6  96034128.56943  23452473.617                    23452481.336
 109806169.763 8  85563357.69746  20895408.813                    20895413.961
 109074083.523 8  84992837.095 7  20756106.039                    20756113.156
 107899228.836 8  84077220.402 7  20532490.563                    20532498.098
 11  8  2  2 33  0.0000000  0  8G25G01G29G10G04G02G12G05
 116960885.823 7  91138400.281 7  22256918.430                    22256928.828
 131067316.689 6 102130453.672 5  24941287.922                    24941301.332
 127415859.369 6  99285122.678 6  24246437.648                    24246447.000
 113562345.352 7  88490230.49745  21610187.406                    21610194.813
 123326165.281 6  96098418.30743  23468173.969                    23468182.191
 109832400.647 8  85583797.35146  20900400.047                    20900405.512
 109078450.493 8  84996239.927 7  20756937.133                    20756944.297
 107860048.823 8  84046690.545 8  20525035.008                    20525042.238
 11  8  2  2 33 30.0000000  0  8G25G01G29G10G04G02G12G05
 116900580.143 7  91091408.881 7  22245443.148                    22245453.363
 130998821.267 6 102077080.631 5  24928253.500                    24928266.883
 127334399.748 6  99221647.694 6  24230936.984                    24230945.746
 113628295.841 7  88541620.48645  21622737.445                    21622745.051
 123408649.333 7  96162691.59643  23483870.023                    23483878.816
 109858794.501 8  85604364.00246  20905422.797                    20905428.246
 109083402.109 8  85000098.326 7  20757879.445                    20757886.363
 107821421.767 8  84016591.562 8  20517684.164                    20517691.863
 11  8  2  2 34  0.0000000  0  8G25G01G29G10G04G02G12G05
 116840750.862 7  91044788.697 7  22234057.398                    22234067.535
 130930462.227 5 102023813.876 5  24915244.461                    24915258.738
 127252884.314 6  99158129.220 6  24215424.766                    24215433.395
 113694733.407 7  88593390.02845  21635380.477                    21635387.746
 123491111.731 6  96226947.96443  23499562.539                    23499571.418
 109885350.898 8  85625057.31246  20910476.133                    20910481.504
 109088938.723 8  85004412.575 7  20758932.969                    20758940.090
 107783349.234 8  83986924.686 8  20510439.414                    20510447.016
 11  8  2  2 34 30.0000000  0  8G25G01G29G10G04G02G12G05
 116781399.980 7  90998541.291 7  22222763.617                    22222773.707
 130862239.616 5 101970653.446 5  24902263.109                    24902276.230
 127171314.088 6  99094568.025 6  24199902.594                    24199911.523
 113761655.615 7  88645537.20645  21648114.641                    21648122.543
 123573551.775 7  96291186.92443  23515249.867                    23515259.066
 109912069.132 8  85645876.71646  20915560.547                    20915565.578
 109095060.196 8  85009182.552 7  20760097.789                    20760105.203
 107745832.007 8  83957690.500 8  20503300.086                    20503307.695
 11  8  2  2 35  0.0000000  0  8G25G01G29G10G04G02G12G05
 116722529.246 7  90952668.026 7  22211560.945                    22211571.137
 130794152.374 5 101917598.431 5  24889306.250                    24889319.625
 127089689.142 6  99030964.258 6  24184369.961                    24184379.645
 113829059.938 7  88698060.06245  21660941.422                    21660949.133
 123655968.448 7  96355407.69043  23530933.195                    23530942.484
 109938947.541 8  85666820.94446  20920675.703                    20920680.629
 109101766.148 8  85014407.976 7  20761374.133                    20761381.125
 107708870.875 8  83928889.640 8  20496266.688                    20496273.707
 11  8  2  2 35 30.0000000  0  8G25G01G29G10G04G02G12G05
 116664140.884 7  90907170.642 7  22200449.781                    22200459.773
 130726200.975 6 101864649.336 6  24876375.172                    24876389.059
 127008010.744 7  98967318.825 6  24168826.391                    24168835.555
 113896943.960 7  88750956.71745  21673859.398                    21673866.965
 123738360.959 6  96419609.59643  23546612.125                    23546620.848
 109965985.523 7  85687889.51446  20925820.359                    20925825.703
 109109056.694 8  85020088.927 7  20762761.367                    20762768.121
 107672467.262 8  83900523.210 7  20489339.148                    20489346.355
 11  8  2  2 36  0.0000000  0  8G25G01G29G10G04G02G12G05
 116606236.678 7  90862050.508 7  22189430.961                    22189441.316
 130658385.231 6 101811805.928 6  24863471.117                    24863484.438
 126926279.398 6  98903632.124 6  24153273.641                    24153282.277
 113965304.997 7  88804225.05145  21686867.820                    21686875.457
 123820728.301 6  96483791.93943  23562286.805                    23562294.785
 109993181.740 8  85709081.37846  20930995.695                    20931001.000
 109116931.185 8  85026224.902 7  20764259.641                    20764266.734
 107636621.769 8  83872591.685 8  20482518.031                    20482525.328
 11  8  2  2 36 30.0000000  0  8G25G01G29G10G04G02G12G05
 116548818.350 7  90817308.991 7  22178504.445                    22178515.000
 130590704.618 6 101759067.822 6  24850591.641                    24850605.262
 126844495.747 6  98839904.650 6  24137709.914                    24137720.008
 114034140.225 7  88857862.90045  21699967.156                    21699974.156
 123903069.510 6  96547953.89943  23577955.148                    23577963.992
 110020535.073 7  85730395.66246  20936201.102                    20936206.406
 109125389.136 8  85032815.510 7  20765869.313                    20765876.492
 107601335.271 8  83845095.738 8  20475803.313                    20475810.594
 11  8  2  2 37  0.0000000  0  8G25G01G29G10G04G02G12G05
 116491888.882 7  90772948.394 7  22167671.273                    22167681.633
 130523159.909 6 101706435.631 6  24837737.680                    24837751.695
 126762661.387 6  98776137.684 6  24122138.406                    24122147.227
 114103447.736 7  88911868.75545  21713155.289                    21713163.047
 123985384.687 6  96612095.58443  23593618.883                    23593627.383
 110048045.653 8  85751832.48446  20941436.133                    20941440.840
 109134431.411 8  85039861.454 7  20767589.914                    20767596.953
 107566609.604 8  83818036.811 8  20469195.070                    20469202.391
 11  8  2  2 37 30.0000000  0  8G25G01G29G10G04G02G12G05
 116435449.533 8  90728969.713 7  22156931.266                    22156941.133
 130455750.149 6 101653908.612 6  24824910.289                    24824923.855
 126680776.560 6  98712331.421 6  24106555.719                    24106565.387
 114173224.632 7  88966240.36945  21726433.672                    21726441.141
 124067672.240 6  96676215.74143  23609278.586                    23609285.762
 110075711.726 8  85773390.47146  20946700.367                    20946705.961
 109144056.911 8  85047361.848 7  20769421.938                    20769428.801
 107532444.655 8  83791414.798 8  20462693.656                    20462700.906
 11  8  2  2 38  0.0000000  0  8G25G01G29G10G04G02G12G05
 116379502.256 8  90685374.466 7  22146284.820                    22146294.758
 130388475.397 6 101601486.785 6  24812108.672                    24812122.066
 126598841.785 6  98648486.223 6  24090963.422                    24090973.367
 114243468.083 7  89020975.52745  21739800.477                    21739808.211
 124149931.595 6  96740313.91843  23624931.594                    23624939.047
 110103532.334 8  85795068.87646  20951994.781                    20952000.148
 109154265.644 8  85055316.709 7  20771364.117                    20771371.547
 107498841.921 8  83765230.874 8  20456299.086                    20456306.441
 11  8  2  2 38 30.0000000  0  8G25G01G29G10G04G02G12G05
 116324049.183 8  90642164.314 7  22135732.117                    22135742.398
 130321335.509 6 101549170.040 6  24799331.836                    24799345.832
 126516858.362 6  98584603.116 6  24075362.891                    24075372.078
 114314175.851 7  89076072.49045  21753256.125                    21753263.277
 124232162.170 6  96804389.69143  23640579.336                    23640587.992
 110131506.826 8  85816867.19346  20957317.883                    20957323.254
 109165057.176 8  85063725.707 7  20773417.773                    20773425.094
 107465802.162 8  83739485.635 8  20450011.797                    20450019.199
 11  8  2  2 39  0.0000000  0  8G25G01G29G10G04G02G12G05
 116269092.550 8  90599341.005 7  22125274.492                    22125285.055
 130254330.514 6 101496958.435 6  24786581.227                    24786595.313
 126434827.379 6  98520682.917 6  24059752.406                    24059761.945
 114385345.641 7  89131529.47945  21766799.344                    21766806.891
 124314363.429 7  96868442.59543  23656222.031                    23656230.184
 110159634.804 7  85838785.09746  20962670.719                    20962675.590
 109176431.663 8  85072588.945 7  20775582.266                    20775589.035
 107433326.507 8  83714179.967 8  20443832.211                    20443839.367
 11  8  2  2 39 30.0000000  0  8G25G01G29G10G04G02G12G05
 116214633.367 8  90556905.308 7  22114911.164                    22114921.387
 130187459.446 6 101444851.146 6  24773856.359                    24773869.750
 126352748.725 6  98456725.575 6  24044133.172                    24044143.051
 114456974.185 7  89187343.93045  21780429.422                    21780437.051
 124396533.822 6  96932471.46643  23671858.594                    23671867.031
 110187914.106 8  85860820.92746  20968051.922                    20968057.395
 109188387.546 8  85081905.219 7  20777857.273                    20777864.688
 107401415.002 8  83689313.880 8  20437759.305                    20437766.887
 11  8  2  2 40  0.0000000  0  8G25G01G29G10G04G02G12G05
 116160674.800 8  90514859.700 7  22104643.273                    22104653.090
 130120723.417 6 101392849.105 6  24761156.984                    24761170.324
 126270624.826 6  98392732.987 6  24028505.125                    24028515.156
 114529059.903 7  89243514.60545  21794146.773                    21794154.801
 124478673.957 6  96996476.74643  23687488.195                    23687498.008
 110216345.458 8  85882975.23246  20973462.258                    20973467.762
 109200925.827 8  85091675.313 7  20780243.633                    20780250.406
 107370069.518 8  83664888.850 8  20431794.758                    20431801.840
 11  8  2  2 40 30.0000000  0  8G25G01G29G10G04G02G12G05
 116107217.694 8  90473204.846 7  22094470.758                    22094480.512
 130054121.264 6 101340951.380 6  24748483.070                    24748496.582
 126188455.247 6  98328704.822 6  24012869.711                    24012879.449
 114601599.322 7  89300038.84245  21807950.695                    21807958.766
 124560781.883 6  97060456.93843  23703113.984                    23703122.891
 110244926.465 8  85905246.16046  20978901.281                    20978906.070
 109214045.231 8  85101898.230 7  20782740.305                    20782747.316
 107339290.010 8  83640904.841 8  20425937.438                    20425944.656
 11  8  2  2 41  0.0000000  0  8G25G01G29G10G04G02G12G05
 116054264.351 8  90431942.535 7  22084393.711                    22084403.949
 129987653.349 6 101289158.303 6  24735833.445                    24735848.078
 126106241.669 6  98264642.341 6  23997224.797                    23997234.699
 114674590.254 7  89356914.89345  21821840.047                    21821848.125
 124642857.664 6  97124412.05843  23718731.930                    23718741.555
 110273657.283 8  85927633.82346  20984368.047                    20984373.297
 109227745.520 8  85112573.791 7  20785347.250                    20785354.414
 107309077.585 8  83617362.724 8  20420187.875                    20420195.445
 11  8  2  2 41 30.0000000  0  8G25G01G29G10G04G02G12G05
 116001816.350 8  90391073.991 7  22074413.328                    22074423.313
 129921318.933 6 101237469.221 6  24723211.180                    24723224.941
 126023984.542 6  98200545.912 6  23981571.844                    23981580.793
 114748029.808 7  89414140.52445  21835815.547                    21835823.152
 124724899.988 6  97188341.15143  23734343.906                    23734353.043
 110302536.484 7  85950137.10846  20989863.875                    20989868.855
 109242025.887 8  85123701.356 7  20788064.367                    20788071.297
 107279432.918 8  83594263.012 8  20414546.875                    20414553.992
 11  8  2  2 42  0.0000000  0  8G25G01G29G10G04G02G12G05
 115949875.755 8  90350600.843 7  22064529.242                    22064539.645
 129855118.295 6 101185884.381 6  24710613.195                    24710627.059
 125941684.967 6  98136416.405 6  23965910.281                    23965919.410
 114821915.318 7  89471713.64845  21849875.758                    21849883.379
 124806908.633 6  97252243.98943  23749950.039                    23749957.996
 110331563.470 7  85972755.55246  20995387.258                    20995392.879
 109256886.212 8  85135280.837 7  20790892.398                    20790899.750
 107250356.777 8  83571606.304 8  20409013.766                    20409021.563
 11  8  2  2 42 30.0000000  0  8G25G01G29G10G04G02G12G05
 115898443.250 8  90310523.599 7  22054742.266                    22054752.047
 129789049.929 6 101134402.656 6  24698040.406                    24698054.578
 125859342.434 6  98072253.448 6  23950240.359                    23950250.543
 114896243.060 7  89529631.36545  21864019.836                    21864027.738
 124888881.819 6  97316119.17043  23765549.047                    23765557.355
 110360736.089 7  85995487.47246  21000938.570                    21000944.277
 109272324.792 8  85147310.900 7  20793829.883                    20793837.512
 107221848.733 8  83549392.268 8  20403588.844                    20403595.945
 11  8  2  2 43  0.0000000  0  8G25G01G29G10G04G02G12G05
 115847522.741 8  90270845.327 7  22045052.172                    22045062.242
 129723116.060 6 101083025.660 6  24685494.547                    24685507.293
 125776960.212 6  98008059.564 6  23934563.953                    23934573.902
 114971012.501 7  89587893.25945  21878247.859                    21878255.664
 124970820.959 6  97379967.85443  23781140.711                    23781149.320
 110390055.642 7  86018333.87646  21006518.195                    21006523.574
 109288343.211 8  85159792.794 7  20796878.492                    20796885.465
 107193911.629 8  83527623.123 8  20398272.359                    20398279.848
 11  8  2  2 43 30.0000000  0  8G25G01G29G10G04G02G12G05
 115797114.318 8  90231566.075 7  22035459.789                    22035469.629
 129657314.414 6 101031751.701 6  24672972.750                    24672986.008
 125694538.050 6  97943834.554 6  23918879.633                    23918889.387
 115046219.323 7  89646495.96745  21892559.344                    21892566.828
 125052723.753 7  97443788.18143  23796727.469                    23796736.020
 110419519.567 8  86041292.78346  21012125.492                    21012130.137
 109304939.163 8  85172724.698 7  20800036.578                    20800042.938
 107166544.270 8  83506297.933 8  20393064.930                    20393072.070
 11  8  2  2 44  0.0000000  0  8G25G01G29G10G04G02G12G05
 115747220.607 8  90192687.894 7  22025965.164                    22025975.652
 129591646.008 6 100980581.600 6  24660475.875                    24660489.074
 125612077.602 7  97879579.696 6  23903188.688                    23903196.609
 115121861.924 7  89705438.26345  21906953.781                    21906961.527
 125134590.454 6  97507580.40443  23812306.039                    23812314.719
 110449128.367 8  86064364.58846  21017759.398                    21017764.934
 109322112.968 8  85186106.895 7  20803304.695                    20803311.590
 107139747.923 8  83485417.693 8  20387965.766                    20387972.719
 11  8  2  2 44 30.0000000  0  8G25G01G29G10G04G02G12G05
 115697843.077 8  90154211.933 7  22016569.250                    22016579.203
 129526110.187 6 100929514.799 6  24648004.508                    24648018.070
 125529579.144 6  97815295.213 6  23887489.625                    23887498.297
 115197937.050 7  89764717.57845  21921430.602                    21921437.906
 125216419.902 6  97571343.60143  23827877.859                    23827886.668
 110478880.440 8  86087548.03346  21023421.016                    21023426.395
 109339864.190 8  85199939.018 7  20806682.539                    20806689.730
 107113523.506 8  83464983.112 8  20382975.266                    20382982.902
 11  8  2  2 45  0.0000000  0  8G25G01G29G10G04G02G12G05
 115648983.061 8  90116139.236 7  22007271.500                    22007281.180
 129460706.012 6 100878550.583 6  24635559.328                    24635571.656
 125447043.450 6  97750981.746 6  23871782.844                    23871792.527
 115274441.780 7  89824331.66545  21935988.938                    21935996.063
 125298211.438 6  97635077.18643  23843442.289                    23843451.063
 110508774.497 8  86110842.11346  21029109.617                    21029114.793
 109358190.823 8  85214219.512 7  20810169.914                    20810176.930
 107087871.004 8  83444994.175 8  20378094.023                    20378100.984
 11  8  2  2 45 30.0000000  0  8G25G01G29G10G04G02G12G05
 115600641.922 8  90078470.863 7  21998072.352                    21998082.004
 129395433.479 6 100827688.949 6  24623138.031                    24623150.758
 125364471.135 6  97686639.757 6  23856069.961                    23856079.457
 115351373.192 7  89884278.21444  21950627.898                    21950635.754
 125379964.130 6  97698780.59343  23858998.859                    23859007.863
 110538809.652 8  86134246.13846  21034825.289                    21034830.461
 109377092.769 8  85228948.303 7  20813766.430                    20813773.793
 107062790.633 8  83425451.058 8  20373320.859                    20373327.836
 11  8  2  2 46  0.0000000  0  8G25G01G29G10G04G02G12G05
 115552822.042 8  90041208.651 7  21988972.539                    21988982.738
 129330292.678 6 100776929.988 6  24610741.563                    24610754.328
 125281864.024 6  97622270.667 6  23840349.555                    23840359.941
 115428729.253 7  89944555.67744  21965348.594                    21965356.363
 125461677.858 6  97762453.58043  23874548.367                    23874557.730
 110568985.598 8  86157759.86746  21040567.414                    21040573.184
 109396569.699 8  85244125.129 7  20817473.070                    20817480.180
 107038283.543 8  83406354.647 8  20368657.445                    20368664.602
 11  8  2  2 46 30.0000000  0  8G25G01G29G10G04G02G12G05
 115505525.304 8  90004354.092 7  21979972.234                    21979981.957
 129265283.783 6 100726273.796 6  24598371.219                    24598382.891
 125199223.466 6  97557875.509 6  23824623.625                    23824634.023
 115506507.429 7  90005162.05145  21980149.398                    21980156.844
 125543352.242 6  97826095.90543  23890089.859                    23890099.809
 110599302.038 8  86181383.07146  21046336.063                    21046341.844
 109416620.748 8  85259749.316 7  20821288.883                    20821295.730
 107014350.430 8  83387705.492 8  20364103.047                    20364110.480
 11  8  2  2 47  0.0000000  0  8G25G01G29G10G04G02G12G05
 115458753.345 8  89967908.455 7  21971071.813                    21971081.520
 129200406.572 6 100675720.197 6  24586025.586                    24586037.145
 125116550.184 6  97493454.835 6  23808891.797                    23808901.484
 115584704.618 7  90066094.92744  21995029.766                    21995037.512
 125624986.750 6  97889707.21643  23905625.398                    23905633.746
 110629757.969 8  86205114.97846  21052132.344                    21052137.527
 109437245.606 8  85275820.642 7  20825213.547                    20825220.570
 106990991.575 8  83369503.819 8  20359658.117                    20359665.211
 11  8  2  2 47 30.0000000  0  8G25G01G29G10G04G02G12G05
 115412507.280 8  89931872.592 7  21962271.578                    21962281.441
 129135660.270 6 100625268.640 6  24573704.492                    24573717.047
 125033844.766 6  97429009.116 6  23793153.930                    23793163.512
 115663317.651 7  90127351.84944  22009988.727                    22009996.512
 125706580.415 6  97953286.66543  23921152.281                    23921160.684
 110660352.214 8  86228954.65846  21057954.203                    21057959.238
 109458442.712 8  85292337.855 7  20829247.195                    20829254.082
 106968207.263 8  83351749.829 8  20355322.352                    20355329.508
 11  8  2  2 48  0.0000000  0  8G25G01G29G10G04G02G12G05
 115366788.469 8  89896247.571 7  21953571.234                    21953581.035
 129071044.265 6 100574918.617 6  24561408.352                    24561421.328
 124951108.166 6  97364539.086 6  23777409.617                    23777418.625
 115742343.955 7  90188930.78244  22025027.547                    22025034.824
 125788132.278 6  98016833.53443  23936671.180                    23936679.930
 110691083.496 8  86252901.12146  21063801.953                    21063806.684
 109480211.092 8  85309300.234 7  20833389.469                    20833396.730
 106945997.262 8  83334443.366 8  20351095.750                    20351103.207
 11  8  2  2 48 30.0000000  0  8G25G01G29G10G04G02G12G05
 115321599.426 8  89861035.360 7  21944972.164                    21944981.781
 129006559.316 6 100524670.721 6  24549136.953                    24549149.703
 124868342.150 6  97300046.153 6  23761659.008                    23761668.430
 115821781.492 7  90250830.16444  22040143.555                    22040151.383
 125869642.681 6  98080348.15143  23952182.141                    23952190.641
 110721952.049 8  86276954.55546  21069675.664                    21069681.398
 109502550.838 8  85326707.834 7  20837640.953                    20837647.648
 106924362.760 8  83317585.332 8  20346979.219                    20346986.078
 11  8  2  2 49  0.0000000  0  8G25G01G29G10G04G02G12G05
 115276940.516 8  89826236.244 7  21936474.016                    21936483.688
 128942203.966 6 100474523.782 6  24536890.844                    24536902.773
 124785546.874 6  97235530.429 6  23745904.117                    23745912.930
 115901626.214 7  90313046.84144  22055337.875                    22055345.313
 125951110.110 6  98143829.19143  23967684.875                    23967693.395
 110752955.805 8  86301113.34046  21075576.211                    21075580.891
 109525459.903 8  85344559.049 7  20842000.289                    20842007.457
 106903303.708 8  83301175.703 8  20342971.547                    20342978.629
 11  8  2  2 49 30.0000000  0  8G25G01G29G10G04G02G12G05
 115232813.820 8  89791851.835 7  21928077.023                    21928086.391
 128877978.454 6 100424478.027 6  24524668.875                    24524681.520
 124702723.633 6  97170992.896 6  23730144.070                    23730152.707
 115981875.872 7  90375579.05444  22070609.016                    22070616.293
 126032534.421 6  98207276.67343  23983179.352                    23983187.762
 110784094.618 8  86325377.35446  21081501.391                    21081507.016
 109548937.855 8  85362853.548 7  20846468.070                    20846474.754
 106882820.440 8  83285214.735 8  20339073.313                    20339080.910
 11  8  2  2 50  0.0000000  0  8G25G01G29G10G04G02G12G05
 115189220.929 8  89757883.383 7  21919781.547                    21919790.516
 128813882.649 6 100374533.341 6  24512471.539                    24512484.941
 124619873.373 7  97106434.323 6  23714377.148                    23714386.305
 116062527.951 7  90438424.83744  22085956.172                    22085963.980
 126113915.063 6  98270690.16343  23998664.758                    23998674.176
 110815367.894 8  86349746.14446  21087452.547                    21087458.094
 109572984.021 8  85381590.825 7  20851043.852                    20851050.691
 106862913.679 8  83269702.997 8  20335285.539                    20335292.820
 11  8  2  2 50 30.0000000  0  8G25G01G29G10G04G02G12G05
 115146163.106 8  89724331.865 7  21911587.852                    21911597.047
 128749915.717 6 100324689.086 6  24500299.047                    24500312.426
 124536997.557 7  97041855.802 6  23698606.539                    23698614.711
 116143579.557 7  90501581.94044  22101380.391                    22101387.176
 126195251.438 6  98334069.08843  24014143.500                    24014152.293
 110846774.395 8  86374218.75246  21093428.766                    21093434.219
 109597597.187 8  85400769.905 7  20855727.422                    20855734.461
 106843583.167 8  83254640.284 8  20331606.891                    20331614.168
 11  8  2  2 51  0.0000000  0  8G25G01G29G10G04G02G12G05
 115103641.896 8  89691198.473 7  21903496.367                    21903505.699
 128686078.132 7 100274945.600 6  24488151.406                    24488164.406
 124454097.247 7  96977258.188 6  23682831.672                    23682839.117
 116225027.757 7  90565048.07244  22116879.328                    22116886.691
 126276543.149 6  98397413.27443  24029611.922                    24029621.695
 110878313.742 8  86398794.88646  21099430.266                    21099436.215
 109622776.325 8  85420390.005 7  20860519.094                    20860525.926
 106824829.290 8  83240026.885 8  20328038.258                    20328045.723
 11  8  2  2 51 30.0000000  0  8G25G01G29G10G04G02G12G05
 115061659.261 8  89658484.758 7  21895506.945                    21895516.453
 128622369.339 7 100225302.486 6  24476028.234                    24476041.461
 124371173.621 6  96912642.433 6  23667051.477                    23667059.586
 116306870.218 7  90628821.42544  22132453.313                    22132460.773
 126357789.957 6  98460722.43143  24045072.992                    24045081.945
 110909985.579 8  86423474.25646  21105457.289                    21105463.430
 109648521.210 8  85440450.951 7  20865417.930                    20865425.164
 106806652.699 8  83225863.338 8  20324579.344                    20324586.672
 11  8  2  2 52  0.0000000  0  8G25G01G29G10G04G02G12G05
 115020215.866 8  89626191.219 7  21887620.766                    21887630.074
 128558788.655 6 100175759.188 6  24463928.859                    24463942.398
 124288227.274 6  96848008.976 6  23651266.883                    23651275.480
 116389103.295 7  90692899.15744  22148101.508                    22148108.895
 126438990.840 6  98523995.81343  24060525.836                    24060534.027
 110941788.464 8  86448255.72846  21111509.664                    21111514.898
 109674830.016 8  85460951.322 7  20870424.492                    20870431.711
 106789052.773 8  83212149.121 8  20321230.023                    20321237.750
 11  8  2  2 52 30.0000000  0  8G25G01G29G10G04G02G12G05
 114979313.373 8  89594319.173 7  21879837.109                    21879846.680
 128495336.213 7 100126315.808 6  24451853.578                    24451866.824
 124205259.569 7  96783358.879 6  23635479.727                    23635486.832
 116471724.278 7  90757279.15544  22163823.859                    22163831.305
 126520145.228 6  98587232.98743  24075968.438                    24075977.371
 110973721.514 8  86473138.64046  21117586.023                    21117591.313
 109701701.946 8  85481890.490 7  20875537.828                    20875545.027
 106772030.223 8  83198884.816 8  20317991.195                    20317998.184
 11  8  2  2 53  0.0000000  0  8G25G01G29G10G04G02G12G05
 114938953.547 8  89562869.977 7  21872156.813                    21872166.652
 128432011.731 6 100076972.173 6  24439804.008                    24439817.309
 124122271.867 7  96718693.182 6  23619686.648                    23619694.766
 116554730.851 7  90821959.60444  22179619.125                    22179627.148
 126601253.427 6  98650434.16043  24091402.727                    24091411.688
 111005784.787 8  86498123.01446  21123687.281                    21123692.520
 109729135.759 8  85503267.484 7  20880758.688                    20880765.844
 106755585.500 8  83186070.764 8  20314861.750                    20314868.965
 11  8  2  2 53 30.0000000  0  8G25G01G29G10G04G02G12G05
 114899137.409 8  89531844.434 7  21864580.398                    21864590.074
 128368814.749 6 100027727.884 6  24427777.898                    24427791.031
 124039265.005 6  96654012.599 6  23603890.719                    23603899.996
 116638120.200 7  90886938.30044  22195487.734                    22195495.180
 126682314.434 6  98713598.51343  24106828.813                    24106837.570
 111037977.111 7  86523207.95846  21129813.391                    21129818.992
 109757130.435 8  85525081.517 7  20886085.570                    20886092.371
 106739718.364 8  83173706.774 8  20311842.031                    20311849.422
 11  8  2  2 54  0.0000000  0  8G25G01G29G10G04G02G12G05
 114859866.691 8  89501243.908 7  21857106.961                    21857116.535
 128305745.243 6  99978582.900 6  24415775.602                    24415789.520
 123956240.837 6  96589318.551 6  23588091.633                    23588100.719
 116721889.525 7  90952213.09044  22211428.750                    22211436.523
 126763327.908 6  98776725.90043  24122245.094                    24122253.988
 111070298.002 8  86548393.08746  21135963.789                    21135969.102
 109785685.270 8  85547332.039 7  20891519.539                    20891526.277
 106724429.238 8  83161793.194 8  20308932.961                    20308939.828
 11  8  2  2 54 30.0000000  0  8G25G01G29G10G04G02G12G05
 114821142.178 8  89471068.965 7  21849738.117                    21849747.695
 128242802.388 6  99929536.626 6  24403797.922                    24403811.332
 123873199.639 7  96524611.189 6  23572290.398                    23572297.980
 116806035.848 7  91017781.65844  22227440.797                    22227448.848
 126844293.128 6  98839815.65343  24137651.938                    24137660.957
 111102746.213 8  86573677.41446  21142138.547                    21142143.910
 109814798.567 8  85570017.721 7  20897059.617                    20897066.465
 106709717.482 8  83150329.513 8  20306133.219                    20306140.383
 11  8  2  2 55  0.0000000  0  8G25G01G29G10G04G02G12G05
 114782965.696 8  89441321.079 7  21842473.547                    21842483.250
 128179986.423 6  99880589.214 6  24391845.438                    24391857.543
 123790143.217 6  96459891.976 6  23556484.313                    23556493.000
 116890556.916 7  91083642.24044  22243525.164                    22243532.641
 126925210.127 6  98902867.81643  24153049.594                    24153058.785
 111135321.732 7  86599060.94346  21148337.656                    21148342.988
 109844469.734 7  85593138.120 7  20902706.055                    20902712.988
 106695583.992 8  83139316.427 8  20303443.492                    20303450.977
 11  8  2  2 55 30.0000000  0  8G25G01G29G10G04G02G12G05
 114745337.837 8  89412000.694 7  21835313.008                    21835322.309
 128117296.358 6  99831739.898 6  24379915.141                    24379928.363
 123707072.195 7  96395161.382 6  23540676.680                    23540685.594
 116975448.609 7  91149791.60244  22259679.469                    22259687.176
 127006077.868 6  98965881.62043  24168438.625                    24168447.469
 111168023.300 8  86624542.70146  21154560.148                    21154565.684
 109874697.007 8  85616691.839 7  20908458.203                    20908464.707
 106682027.966 8  83128753.303 8  20300864.117                    20300871.445
 11  8  2  2 56  0.0000000  0  8G25G01G29G10G04G02G12G05
 114708260.065 8  89383108.937 7  21828257.039                    21828267.023
 128054732.250 6  99782988.765 6  24368009.055                    24368022.004
 123623987.840 7  96330420.410 6  23524865.859                    23524874.348
 117060708.467 7  91216227.85544  22275903.758                    22275911.520
 127086896.096 6  99028856.78643  24183818.281                    24183826.020
 111200850.101 7  86650122.04246  21160806.695                    21160812.262
 109905479.134 8  85640677.931 7  20914315.453                    20914322.219
 106669049.651 8  83118640.359 8  20298394.391                    20298400.965
 11  8  2  2 56 30.0000000  0  8G25G01G29G10G04G02G12G05
 114671733.999 8  89354647.085 7  21821306.438                    21821316.379
 127992294.126 6  99734335.804 6  24356128.109                    24356141.066
 123540891.939 7  96265670.449 6  23509053.313                    23509062.051
 117146334.256 7  91282949.24544  22292198.219                    22292205.203
 127167664.631 6  99091793.28543  24199187.906                    24199196.066
 111233802.009 8  86675798.86746  21167077.320                    21167083.004
 109936815.285 8  85665095.706 7  20920278.664                    20920285.676
 106656649.594 8  83108977.996 8  20296034.664                    20296041.879
 11  8  2  2 57  0.0000000  0  8G25G01G29G10G04G02G12G05
 114635760.431 8  89326615.750 7  21814461.289                    21814470.641
 127929980.867 6  99685780.165 6  24344269.570                    24344282.563
 123457785.132 6  96200911.962 6  23493238.516                    23493247.598
 117232322.512 7  91349953.07044  22308561.227                    22308568.516
 127248382.631 6  99154690.42643  24214547.867                    24214556.652
 111266877.732 7  86701572.16246  21173371.945                    21173376.672
 109968703.866 8  85689943.950 7  20926346.984                    20926353.676
 106644827.049 8  83099765.649 8  20293784.602                    20293792.090
 11  8  2  2 57 30.0000000  0  8G25G01G29G10G04G02G12G05
 114600340.694 8  89299015.972 7  21807720.844                    21807730.852
 127867792.384 6  99637321.755 6  24332435.453                    24332448.539
 123374668.760 7  96136146.031 6  23477422.172                    23477431.125
 117318670.405 7  91417237.12444  22324992.719                    22325000.293
 127329050.035 6  99217548.06843  24229899.344                    24229907.699
 111300076.814 8  86727441.59646  21179688.922                    21179694.461
 110001143.726 8  85715221.764 7  20932519.617                    20932526.688
 106633582.147 8  83091003.410 8  20291644.695                    20291652.520
 11  8  2  2 58  0.0000000  0  8G25G01G29G10G04G02G12G05
 114565475.846 8  89271848.581 7  21801086.094                    21801096.457
 127805728.503 6  99588960.390 6  24320624.773                    24320638.191
 123291543.701 7  96071373.314 6  23461603.820                    23461611.871
 117405375.332 7  91484799.42444  22341491.633                    22341499.625
 127409666.112 6  99280365.79243  24245239.359                    24245248.031
 111333398.587 8  86753406.62046  21186029.805                    21186035.352
 110034133.616 8  85740928.171 7  20938797.359                    20938804.145
 106622914.833 8  83082691.240 8  20289615.000                    20289622.234
 11  8  2  2 58 30.0000000  0  8G25G01G29G10G04G02G12G05
 114531167.711 8  89245114.991 7  21794557.750                    21794567.477
 127743789.390 6  99540696.269 6  24308838.102                    24308851.664
 123208412.057 6  96006595.441 6  23445784.172                    23445792.344
 117492434.828 7  91552637.98344  22358058.305                    22358066.461
 127490231.231 6  99343143.77143  24260570.859                    24260579.242
 111366842.928 8  86779467.16446  21192394.578                    21192399.738
 110067672.416 8  85767062.299 7  20945179.773                    20945186.848
 106612825.213 8  83074829.227 8  20287695.375                    20287702.102
 11  8  2  2 59  0.0000000  0  8G25G01G29G10G04G02G12G05
 114497416.599 7  89218815.440 7  21788134.797                    21788145.195
 127681973.798 6  99492528.394 6  24297075.188                    24297088.355
 123125274.267 6  95941812.785 6  23429963.734                    23429971.785
 117579845.306 7  91620750.03444  22374692.047                    22374699.859
 127570744.316 6  99405881.18743  24275891.570                    24275900.191
 111400408.522 8  86805622.18446  21198781.680                    21198786.566
 110101758.141 8  85793622.608 7  20951665.953                    20951672.918
 106603312.655 8  83067416.866 8  20285885.195                    20285892.063
 11  8  2  2 59 30.0000000  0  8G25G01G29G10G04G02G12G05
 114464223.730 8  89192950.884 7  21781818.367                    21781828.734
 127620281.286 6  99444456.436 6  24285335.688                    24285347.949
 123042131.774 6  95877026.486 6  23414141.961                    23414150.855
 117667603.950 7  91689133.37744  22391392.172                    22391399.922
 127651204.989 6  99468577.77643  24291202.703                    24291211.109
 111434094.709 8  86831871.16246  21205192.258                    21205197.070
 110136389.674 8  85820608.227 7  20958256.227                    20958263.383
 106594377.078 8  83060454.103 8  20284184.664                    20284191.648
 11  8  2  3  0  0.0000000  0  8G25G01G29G10G04G02G12G05
 114431590.353 8  89167522.307 7  21775608.547                    21775618.629
 127558712.198 6  99396480.619 6  24273619.031                    24273632.191
 122958985.952 6  95812237.578 6  23398319.828                    23398328.164
 117755708.024 7  91757785.89144  22408158.125                    22408165.691
 127731612.954 6  99531233.27042  24306503.633                    24306512.895
 111467901.162 8  86858213.86946  21211625.328                    21211630.293
 110171565.698 8  85848018.110 7  20964949.938                    20964957.336
 106586018.408 8  83053940.875 8  20282593.555                    20282601.035
 11  8  2  3  0 30.0000000  0  9G25G01G29G10G04G26G02G12G05
 114399517.410 8  89142530.424 7  21769505.320                    21769515.570
 127497265.849 7  99348600.429 6  24261926.703                    24261938.965
 122875838.103 6  95747447.081 6  23382497.602                    23382505.984
 117844154.578 7  91826705.28344  22424989.266                    22424995.984
 127811967.910 6  99593847.54943  24321795.070                    24321803.984
 130396759.34015 101607922.39952  24813685.961                    24813694.797
 111501827.077 8  86884649.66245  21218080.852                    21218086.121
 110207284.878 8  85875851.240 7  20971747.406                    20971754.211
 106578236.278 8  83047876.900 8  20281112.789                    20281120.258
 11  8  2  3  1  0.0000000  0  9G25G01G29G10G04G26G02G12G05
 114368006.602 8  89117976.571 7  21763508.984                    21763518.992
 127435942.344 7  99300815.969 6  24250257.477                    24250268.902
 122792690.105 6  95682656.452 6  23366675.156                    23366683.148
 117932941.517 7  91895889.91744  22441884.094                    22441891.852
 127892270.069 6  99656420.62443  24337075.789                    24337084.504
 130302926.948 6 101534806.33642  24795830.813                    24795840.246
 111535872.544 7  86911178.60445  21224559.469                    21224565.008
 110243546.357 8  85904106.939 7  20978647.781                    20978654.477
 106571031.276 8  83042262.627 8  20279742.195                    20279749.156
 11  8  2  3  1 30.0000000  0  9G25G01G29G10G04G26G02G12G05
 114337058.443 8  89093861.147 7  21757619.531                    21757629.859
 127374740.849 6  99253126.584 6  24238611.023                    24238623.063
 122709542.896 6  95617866.453 6  23350852.313                    23350861.051
 118022065.401 7  91965337.07544  22458844.313                    22458851.883
 127972518.713 6  99718952.02143  24352346.383                    24352355.484
 130208969.379 6 101461592.70042  24777950.680                    24777960.621
 111570036.171 7  86937799.61646  21231060.531                    21231066.164
 110280347.908 8  85932783.463 7  20985650.875                    20985657.461
 106564402.356 8  83037097.263 8  20278480.250                    20278487.434
 11  8  2  3  2  0.0000000  0  9G25G01G29G10G04G26G02G12G05
 114306673.799 8  89070184.816 7  21751837.422                    21751847.691
 127313661.256 6  99205532.179 6  24226988.094                    24226999.566
 122626397.484 6  95553077.902 6  23335030.641                    23335039.387
 118111523.180 7  92035044.42644  22475867.914                    22475875.215
 128052713.307 6  99781441.26642  24367607.195                    24367616.270
 130114889.275 5 101388283.63242  24760046.961                    24760057.563
 111604317.570 7  86964512.39945  21237584.180                    21237589.270
 110317687.756 8  85961879.451 7  20992756.148                    20992763.090
 106558349.475 8  83032380.754 8  20277328.672                    20277335.641
 11  8  2  3  2 30.0000000  0  9G25G01G29G10G04G26G02G12G05
 114276853.680 8  89046948.381 7  21746163.289                    21746173.145
 127252702.874 6  99158032.219 6  24215387.813                    24215399.883
 122543255.467 6  95488291.984 6  23319208.844                    23319217.582
 118201311.961 7  92105009.70844  22492954.141                    22492961.293
 128132853.517 6  99843888.17642  24382856.500                    24382866.461
 130020689.593 6 101314881.35243  24742122.023                    24742131.922
 111638716.042 7  86991316.41046  21244130.156                    21244135.203
 110355565.039 8  85991394.209 7  20999963.680                    20999970.746
 106552872.277 8  83028112.825 8  20276286.359                    20276293.500
 11  8  2  3  3  0.0000000  0  9G25G01G29G10G04G26G02G12G05
 114247598.801 8  89024152.393 7  21740596.047                    21740605.832
 127191865.315 6  99110626.407 6  24203810.148                    24203822.441
 122460117.747 7  95423509.398 6  23303388.961                    23303397.438
 118291429.084 7  92175230.82944  22510102.500                    22510109.773
 128212938.941 6  99906292.37842  24398097.633                    24398105.953
 129926373.005 6 101241388.01342  24724173.422                    24724183.781
 111673230.712 7  87018210.96746  21250697.875                    21250703.160
 110393977.669 8  86021326.133 7  21007273.563                    21007280.695
 106547969.863 8  83024292.778 8  20275352.867                    20275360.305
 11  8  2  3  3 30.0000000  0  9G25G01G29G10G04G26G02G12G05
 114218910.055 8  89001797.538 7  21735136.586                    21735146.699
 127131147.917 6  99063314.215 6  24192255.711                    24192268.289
 122376985.750 6  95358731.293 6  23287569.445                    23287577.500
 118381871.061 7  92245705.10344  22527312.844                    22527320.203
 128292969.278 6  99968653.65843  24413326.219                    24413335.203
 129831942.333 6 101167805.82642  24706204.625                    24706213.969
 111707861.040 7  87045195.64346  21257287.977                    21257292.988
 110432924.075 8  86051673.974 7  21014685.063                    21014691.574
 106543641.943 8  83020920.398 8  20274529.703                    20274536.891
 11  8  2  3  4  0.0000000  0  9G25G01G29G10G04G26G02G12G05
 114190789.080 7  88979885.104 7  21729785.328                    21729795.125
 127070551.542 6  99016096.335 6  24180724.797                    24180736.898
 122293861.389 7  95293959.167 6  23271750.578                    23271759.145
 118472635.900 7  92316430.93744  22544584.359                    22544592.445
 128372944.746 6 100030972.19743  24428545.164                    24428554.180
 129737401.214 6 101094137.53043  24688214.516                    24688223.324
 111742607.328 8  87072270.67746  21263899.625                    21263905.344
 110472403.670 8  86082437.289 7  21022197.563                    21022204.500
 106539889.175 8  83017996.182 8  20273815.375                    20273822.609
 11  8  2  3  4 30.0000000  0  9G25G01G29G10G04G26G02G12G05
 114163235.679 7  88958414.946 7  21724542.406                    21724552.043
 127010074.279 6  98968971.259 6  24169216.461                    24169228.512
 122210745.319 7  95229193.492 6  23255933.820                    23255942.727
 118563719.817 7  92387405.38644  22561917.898                    22561925.230
 128452864.230 6 100093247.10143  24443753.031                    24443762.145
 129642751.636 6 101020384.69943  24670202.242                    24670212.418
 111777467.831 8  87099434.70246  21270533.820                    21270538.996
 110512413.577 8  86113613.835 7  21029811.141                    21029818.301
 106536709.665 8  83015518.660 8  20273210.734                    20273217.586
 11  8  2  3  5  0.0000000  0  9G25G01G29G10G04G26G02G12G05
 114136251.333 8  88937388.207 7  21719407.289                    21719417.113
 126949716.686 6  98921939.425 6  24157730.727                    24157743.012
 122127639.336 7  95164435.673 6  23240119.867                    23240128.172
 118655120.484 7  92458626.66544  22579311.195                    22579317.996
 128532727.947 6 100155478.56643  24458950.945                    24458959.379
 129547997.264 6 100946550.27243  24652171.172                    24652181.027
 111812442.549 7  87126687.73546  21277189.109                    21277194.414
 110552952.778 8  86145202.812 7  21037525.422                    21037532.633
 106534103.922 8  83013488.232 8  20272714.711                    20272721.969
 11  8  2  3  5 30.0000000  0  9G25G01G29G10G04G26G02G12G05
 114109836.740 8  88916805.414 7  21714380.633                    21714391.043
 126889477.974 6  98875000.243 6  24146267.484                    24146279.434
 122044544.777 7  95099686.762 6  23224307.828                    23224315.320
 118746835.110 6  92530092.59944  22596763.031                    22596771.180
 128612535.555 6 100217666.31943  24474138.102                    24474146.668
 129453140.700 6 100872636.13643  24634120.148                    24634129.984
 111847530.921 8  87154029.31945  21283866.039                    21283871.391
 110594019.455 8  86177202.814 7  21045340.211                    21045347.691
 106532071.346 8  83011904.432 8  20272327.602                    20272334.969
 11  8  2  3  6  0.0000000  0  9G25G01G29G10G04G26G02G12G05
 114083992.267 8  88896666.886 7  21709463.000                    21709472.805
 126829357.533 6  98828153.208 6  24134826.445                    24134839.156
 121961462.673 6  95034947.578 6  23208497.008                    23208505.531
 118838860.044 6  92601800.31144  22614274.945                    22614282.418
 128692286.465 6 100279809.88343  24489314.227                    24489322.984
 129358184.593 6 100798644.49843  24616051.469                    24616060.563
 111882731.981 8  87181458.73246  21290564.945                    21290569.926
 110635611.477 8  86209612.179 7  21053255.086                    21053262.313
 106530610.953 8  83010766.484 8  20272049.914                    20272057.145
 11  8  2  3  6 30.0000000  0  9G25G01G29G10G04G26G02G12G05
 114058719.277 8  88876973.661 7  21704653.516                    21704663.855
 126769355.695 6  98781398.611 6  24123408.188                    24123421.605
 121878394.902 6  94970219.551 6  23192689.242                    23192697.887
 118931193.134 6  92673748.15844  22631845.727                    22631853.223
 128771980.804 6 100341909.35143  24504478.984                    24504488.820
 129263132.541 6 100724578.03843  24597963.023                    24597972.906
 111918045.674 8  87208975.90646  21297284.813                    21297289.426
 110677727.681 8  86242429.992 7  21061269.711                    21061276.414
 106529722.585 8  83010074.273 8  20271881.063                    20271887.797
 11  8  2  3  7  0.0000000  0  9G25G01G29G10G04G26G02G12G05
 114034018.093 8  88857725.988 7  21699953.492                    21699963.039
 126709471.183 6  98734735.425 6  24112013.469                    24112025.637
 121795342.603 6  94905503.561 6  23176885.969                    23176893.645
 119023831.024 6  92745933.50944  22649473.813                    22649481.414
 128851618.130 6 100403964.43343  24519634.180                    24519642.438
 129167987.054 6 100650438.73543  24579857.016                    24579867.504
 111953470.832 8  87236579.94246  21304026.172                    21304031.746
 110720366.204 8  86275654.808 7  21069383.773                    21069390.832
 106529405.512 8  83009827.222 8  20271820.961                    20271827.488
 11  8  2  3  7 30.0000000  0  9G25G01G29G10G04G26G02G12G05
 114009889.780 8  88838924.718 7  21695361.484                    21695371.414
 126649704.375 6  98688163.966 6  24100638.977                    24100652.207
 121712307.288 7  94840800.785 6  23161084.648                    23161092.301
 119116771.241 6  92818354.44144  22667159.313                    22667167.789
 128931198.331 6 100465974.97242  24534776.742                    24534786.395
 129072751.608 6 100576229.34343  24561735.414                    24561745.078
 111989007.658 8  87264270.98746  21310788.430                    21310793.586
 110763525.605 8  86309285.500 7  21077596.086                    21077603.480
 106529659.381 8  83010025.068 8  20271868.688                    20271876.246
 11  8  2  3  8  0.0000000  0  9G25G01G29G10G04G26G02G12G05
 113986334.773 8  88820570.174 7  21690879.039                    21690888.898
 126590054.467 6  98641683.576 6  24089288.898                    24089301.652
 121629290.315 6  94776112.317 6  23145286.547                    23145294.930
 119210010.805 6  92891008.62644  22684902.313                    22684910.367
 129010721.054 6 100527940.73142  24549910.250                    24549919.102
 128977428.923 6 100501951.96743  24543595.922                    24543605.480
 112024655.387 7  87292048.44446  21317571.648                    21317577.270
 110807204.118 8  86343320.698 7  21085908.195                    21085915.164
 106530483.702 8  83010667.413 8  20272025.648                    20272032.699
 11  8  2  3  8 30.0000000  0  9G25G01G29G10G04G26G02G12G05
 113963354.019 8  88802663.099 7  21686505.891                    21686516.176
 126530521.470 6  98595294.324 6  24077959.219                    24077971.961
 121546293.376 6  94711439.481 6  23129492.898                    23129500.965
 119303546.739 6  92963893.73744  22702702.461                    22702710.230
 129090186.311 6 100589861.68242  24565032.305                    24565040.527
 128882022.318 6 100427609.22043  24525440.180                    24525450.184
 112060413.661 7  87319912.04646  21324376.617                    21324381.637
 110851399.964 8  86377759.002 7  21094318.070                    21094325.383
 106531877.848 8  83011753.786 8  20272290.930                    20272297.855
 11  8  2  3  9  0.0000000  0  9G25G01G29G10G04G26G02G12G05
 113940947.594 8  88785203.562 7  21682242.578                    21682251.883
 126471104.051 6  98548995.097 6  24066653.453                    24066665.262
 121463317.225 7  94646782.801 6  23113702.664                    23113710.676
 119397375.454 6  93037007.01044  22720556.727                    22720564.813
 129169593.189 6 100651737.22242  24580142.109                    24580151.184
 128786534.269 6 100353203.01143  24507268.789                    24507278.730
 112096281.392 7  87347860.93246  21331201.742                    21331206.723
 110896110.445 8  86412598.327 7  21102826.195                    21102833.391
 106533840.644 8  83013283.256 8  20272664.430                    20272671.598
 11  8  2  3  9 30.0000000  0  9G25G01G29G10G04G26G02G12G05
 113919116.239 8  88768192.136 7  21678088.000                    21678097.383
 126411802.271 6  98502785.995 6  24055368.344                    24055380.586
 121380363.819 6  94582143.849 6  23097917.063                    23097925.102
 119491494.479 6  93110346.50544  22738467.328                    22738474.852
 129248941.655 6 100713567.13742  24595241.570                    24595251.023
 128690967.951 6 100278735.86542  24489083.594                    24489092.730
 112132257.975 7  87375894.65046  21338048.063                    21338053.285
 110941334.485 8  86447837.834 7  21111432.414                    21111438.988
 106536371.370 8  83015255.275 8  20273146.008                    20273153.211
 11  8  2  3 10  0.0000000  0  9G25G01G29G10G04G26G02G12G05
 113897861.048 8  88751629.658 7  21674042.922                    21674052.711
 126352616.003 6  98456666.913 7  24044105.078                    24044118.602
 121297434.861 6  94517523.953 6  23082136.594                    23082144.703
 119585901.638 6  93183910.48444  22756432.617                    22756439.832
 129328231.971 6 100775351.88642  24610330.281                    24610338.621
 128595327.021 6 100204210.50643  24470884.047                    24470893.254
 112168343.713 7  87404013.40846  21344914.719                    21344920.168
 110987070.230 8  86483476.067 7  21120135.602                    21120142.430
 106539469.984 8  83017669.794 8  20273735.422                    20273742.367
 11  8  2  3 10 30.0000000  0  9G25G01G29G10G04G26G02G12G05
 113877182.265 8  88735516.343 7  21670107.945                    21670117.617
 126293544.688 6  98410637.393 6  24032864.602                    24032876.945
 121214531.554 6  94452924.071 6  23066360.125                    23066368.875
 119680593.761 6  93257696.54844  22774451.805                    22774459.504
 129407463.571 6 100837090.78342  24625407.500                    24625416.930
 128499613.921 6 100129628.91243  24452670.195                    24452678.563
 112204537.870 7  87432216.65046  21351802.047                    21351807.664
 111033315.747 8  86519511.530 7  21128935.641                    21128942.605
 106543135.533 8  83020526.084 8  20274432.672                    20274440.113
 11  8  2  3 11  0.0000000  0  9G25G01G29G10G04G26G02G12G05
 113857080.569 8  88719852.694 7  21666282.914                    21666292.906
 126234588.207 6  98364697.378 7  24021645.758                    24021658.039
 121131655.337 6  94388345.277 6  23050589.055                    23050597.555
 119775567.684 6  93331702.16144  22792524.734                    22792531.758
 129486636.553 5 100898784.02142  24640473.297                    24640482.973
 128403831.990 6 100054993.69942  24434443.344                    24434452.324
 112240839.825 7  87460503.88446  21358710.578                    21358715.777
 111080069.331 8  86555942.896 7  21137832.789                    21137839.699
 106547367.393 8  83023823.654 8  20275238.273                    20275245.832
 11  8  2  3 11 30.0000000  0  9G25G01G29G10G04G26G02G12G05
 113837556.424 8  88704639.099 7  21662567.555                    21662577.379
 126175745.813 6  98318846.233 6  24010448.023                    24010460.473
 121048807.936 6  94323788.937 6  23034824.352                    23034831.969
 119870820.705 7  93405925.28944  22810650.594                    22810658.219
 129565750.593 6 100960431.28752  24655528.164                    24655537.180
 128307984.500 6  99980307.39542  24416204.148                    24416213.406
 112277249.267 7  87488874.89546  21365638.461                    21365644.188
 111127328.838 8  86592768.476 7  21146825.828                    21146833.012
 106552164.705 8  83027561.847 8  20276151.063                    20276158.371
 11  8  2  3 12  0.0000000  0  9G25G01G29G10G04G26G02G12G05
 113818609.755 8  88689875.478 7  21658962.281                    21658972.043
 126117016.615 6  98273083.312 7  23999272.016                    23999284.523
 120965990.388 6  94259255.836 6  23019064.125                    23019072.285
 119966349.399 7  93480363.21044  22828829.031                    22828836.750
 129644804.996 6 101022032.22442  24670573.203                    24670580.559
 128212073.795 6  99905571.86042  24397952.313                    24397961.621
 112313764.950 8  87517328.67846  21372587.805                    21372592.691
 111175092.102 8  86629986.605 7  21155914.969                    21155921.863
 106557526.174 8  83031739.631 8  20277171.281                    20277178.496
 11  8  2  3 12 30.0000000  0  9G25G01G29G10G04G26G02G12G05
 113800242.015 8  88675562.972 7  21655466.836                    21655476.449
 126058400.973 6  98227408.893 6  23988117.547                    23988130.715
 120883205.055 6  94194747.867 6  23003310.914                    23003318.637
 120062151.799 7  93555014.40844  22847059.547                    22847067.328
 129723800.532 6 101083587.17542  24685604.555                    24685612.672
 128116103.970 6  99830790.20043  24379690.398                    24379699.473
 112350387.454 8  87545865.69446  21379556.781                    21379561.859
 111223358.045 8  86667596.411 7  21165099.172                    21165107.133
 106563452.014 8  83036357.183 8  20278298.891                    20278306.313
 11  8  2  3 13  0.0000000  0  8G25G01G29G10G26G02G12G05
 113782453.394 8  88661701.727 7  21652081.477                    21652091.391
 125999898.407 7  98181822.554 6  23976985.727                    23976997.324
 120800453.316 7  94130266.050 6  22987563.609                    22987572.145
 120158224.682 6  93629876.34443  22865341.758                    22865349.082
 128020077.977 6  99755964.83543  24361416.914                    24361426.551
 112387116.129 8  87574485.44446  21386545.672                    21386550.910
 111272124.302 8  86705596.089 7  21174379.539                    21174387.000
 106569941.190 8  83041413.707 8  20279534.016                    20279540.703
 11  8  2  3 13 30.0000000  0  8G25G01G29G10G26G02G12G05
 113765243.740 8  88648291.636 7  21648807.156                    21648816.773
 125941507.938 7  98136323.582 6  23965874.094                    23965885.625
 120717736.165 7  94065811.192 7  22971822.867                    22971830.910
 120254564.730 7  93704946.50044  22883674.805                    22883681.844
 127923998.268 6  99681097.57643  24343133.773                    24343142.840
 112423950.025 8  87603187.19246  21393555.211                    21393560.301
 111321388.336 8  86743983.645 7  21183754.094                    21183760.969
 106576992.095 8  83046907.935 8  20280875.883                    20280882.617
 11  8  2  3 14  0.0000000  0  8G25G01G29G10G26G02G12G05
 113748614.214 8  88635333.581 7  21645641.922                    21645652.262
 125883229.767 7  98090912.125 6  23954783.547                    23954795.145
 120635055.869 7  94001385.050 6  22956089.070                    22956097.043
 120351169.835 6  93780223.19244  22902058.453                    22902065.703
 127827868.911 6  99606191.67443  24324840.734                    24324850.395
 112460889.527 7  87631971.21045  21400584.633                    21400589.488
 111371149.052 8  86782758.222 7  21193223.023                    21193230.422
 106584604.891 8  83052839.997 8  20282324.094                    20282331.477
 11  8  2  3 14 30.0000000  0  8G25G01G29G10G26G02G12G05
 113732564.038 8  88622826.977 7  21642587.641                    21642597.980
 125825062.521 7  98045587.082 6  23943714.742                    23943726.441
 120552412.683 7  93936987.821 6  22940362.391                    22940370.660
 120448035.878 7  93855703.21644  22920491.281                    22920499.293
 127731692.008 6  99531248.72743  24306538.594                    24306548.461
 112497933.091 7  87660836.34045  21407633.133                    21407638.688
 111421403.242 8  86821917.322 7  21202786.359                    21202793.023
 106592776.920 8  83059207.814 8  20283879.086                    20283886.371
 11  8  2  3 15  0.0000000  0  8G25G01G29G10G26G02G12G05
 113717094.576 8  88610772.871 7  21639644.203                    21639653.941
 125767006.750 7  98000348.958 6  23932666.500                    23932678.766
 120469809.260 7  93872621.538 6  22924644.117                    22924651.082
 120545161.212 7  93931385.27444  22938973.383                    22938981.180
 127635471.552 6  99456271.82043  24288228.617                    24288238.074
 112535081.315 7  87689783.01045  21414702.391                    21414707.949
 111472150.110 8  86861460.335 7  21212443.078                    21212450.008
 106601508.801 8  83066011.896 8  20285541.078                    20285547.891
 11  8  2  3 15 30.0000000  0  8G25G01G29G10G26G02G12G05
 113702205.169 8  88599170.759 7  21636810.813                    21636820.813
 125709061.240 7  97955196.732 6  23921640.297                    23921652.434
 120387246.332 7  93808286.834 6  22908932.617                    22908940.574
 120642541.838 6  94007266.25844  22957504.383                    22957511.855
 127539210.020 6  99381262.92143  24269910.859                    24269919.895
 112572332.643 8  87718810.02545  21421790.883                    21421796.176
 111523386.163 8  86901384.516 7  21222193.023                    21222199.984
 106610798.608 8  83073250.721 8  20287308.641                    20287315.883
 11  8  2  3 16  0.0000000  0  8G25G01G29G10G26G02G12G05
 113687897.222 8  88588021.725 7  21634088.258                    21634098.078
 125651226.249 7  97910130.615 6  23910634.539                    23910646.480
 120304726.712 6  93743985.878 6  22893229.531                    22893238.145
 120740175.858 6  94083344.67744  22976084.055                    22976091.426
 127442911.416 6  99306225.14143  24251585.203                    24251594.438
 112609688.055 7  87747918.13845  21428899.523                    21428904.996
 111575110.335 8  86941689.065 7  21232036.156                    21232042.848
 106620646.568 8  83080924.462 8  20289182.969                    20289189.852
 11  8  2  3 16 30.0000000  0  8G25G01G29G10G26G02G12G05
 113674170.105 8  88577325.281 7  21631475.875                    21631485.949
 125593500.675 7  97865149.754 6  23899649.398                    23899660.871
 120222251.104 7  93679719.195 6  22877534.078                    22877542.172
 120838059.875 6  94159617.93643  22994710.445                    22994718.336
 127346578.198 6  99231160.38743  24233253.406                    24233262.348
 112647146.067 7  87777106.20645  21436027.664                    21436033.316
 111627320.162 8  86982372.041 7  21241970.898                    21241977.594
 106631050.864 8  83089031.723 8  20291162.648                    20291169.809
 11  8  2  3 17  0.0000000  0  8G25G01G29G10G26G02G12G05
 113661024.373 8  88567081.866 7  21628974.680                    21628984.488
 125535884.526 7  97820254.169 6  23888685.891                    23888696.973
 120139821.301 7  93615488.218 6  22861849.211                    22861856.809
 120936191.220 6  94236083.92244  23013384.180                    23013391.828
 127250213.691 6  99156071.25843  24214916.961                    24214925.043
 112684706.554 7  87806374.12645  21443175.344                    21443180.539
 111680014.075 8  87023432.226 7  21251998.555                    21252005.324
 106642010.595 8  83097571.775 8  20293248.336                    20293255.445
 11  8  2  3 17 30.0000000  0  8G25G01G29G10G26G02G12G05
 113648460.559 8  88557291.901 7  21626583.609                    21626593.574
 125478377.561 7  97775443.673 6  23877742.539                    23877754.480
 120057439.341 7  93551294.509 6  22846172.047                    22846179.836
 121034567.209 6  94312740.50744  23032104.164                    23032112.020
 127153821.691 6  99080960.69243  24196573.102                    24196583.109
 112722369.440 8  87835721.83145  21450342.633                    21450347.539
 111733189.647 8  87064867.732 7  21262116.984                    21262124.383
 106653525.337 8  83106544.313 8  20295439.383                    20295446.484
 11  8  2  3 18  0.0000000  0  8G25G01G29G10G26G02G12G05
 113636478.624 8  88547955.338 7  21624303.313                    21624313.148
 125420978.974 7  97730717.613 6  23866819.563                    23866831.125
 119975106.630 7  93487139.191 6  22830505.070                    22830513.395
 121133184.942 6  94389585.45844  23050870.438                    23050878.266
 127057405.099 6  99005830.96543  24178225.125                    24178235.254
 112760134.050 8  87865148.79946  21457528.820                    21457534.141
 111786844.948 8  87106677.052 7  21272327.570                    21272334.957
 106665593.459 8  83115948.053 8  20297735.703                    20297743.313
 11  8  2  3 18 30.0000000  0  8G25G01G29G10G26G02G12G05
 113625078.190 8  88539071.893 7  21622134.063                    21622143.410
 125363688.002 6  97686075.429 6  23855916.531                    23855928.977
 119892824.234 7  93423023.104 7  22814847.039                    22814854.625
 121232041.085 6  94466616.21143  23069682.266                    23069690.477
 126960966.537 6  98930684.13743  24159874.445                    24159883.410
 112797999.712 8  87894654.51445  21464734.195                    21464739.602
 111840976.988 8  87148857.860 7  21282628.508                    21282635.965
 106678213.384 8  83125781.775 8  20300137.313                    20300144.656
 11  8  2  3 19  0.0000000  0  8G25G01G29G10G26G02G12G05
 113614259.543 8  88530641.788 7  21620075.023                    21620085.129
 125306504.133 7  97641516.691 6  23845035.766                    23845047.383
 119810594.168 7  93358947.768 6  22799199.211                    22799207.004
 121331132.863 6  94543830.57843  23088538.766                    23088546.797
 126864509.667 6  98855523.02343  24141518.945                    24141528.172
 112835966.347 8  87924238.90345  21471959.086                    21471964.180
 111895583.871 8  87191408.663 7  21293020.133                    21293027.094
 106691384.181 8  83136044.748 8  20302643.797                    20302650.871
 11  8  2  3 19 30.0000000  0  8G25G01G29G10G26G02G12G05
 113604022.865 8  88522665.159 7  21618127.352                    21618137.156
 125249427.194 6  97597041.233 6  23834173.672                    23834185.707
 119728417.994 7  93294914.414 6  22783561.234                    22783569.605
 121430457.535 6  94621226.40744  23107439.977                    23107447.719
 126768037.875 6  98780350.28543  24123160.727                    24123170.012
 112874033.558 8  87953901.67145  21479203.125                    21479208.602
 111950663.466 8  87234327.818 7  21303501.258                    21303508.547
 106705104.940 8  83146736.255 8  20305254.289                    20305261.484
 11  8  2  3 20  0.0000000  0  8G25G01G29G10G26G02G12G05
 113594368.550 8  88515142.320 7  21616289.984                    21616300.258
 125192457.270 6  97552649.215 6  23823333.164                    23823344.652
 119646297.821 7  93230924.725 7  22767934.883                    22767942.266
 121530012.873 6  94698801.99443  23126384.695                    23126392.496
 126671554.505 6  98705168.52143  24104800.820                    24104809.777
 112912201.146 7  87983642.66045  21486465.898                    21486471.227
 112006214.072 8  87277614.003 7  21314072.156                    21314079.457
 106719374.862 8  83157855.686 8  20307969.750                    20307976.973
 11  8  2  3 20 30.0000000  0  8G25G01G29G10G26G02G12G05
 113585295.838 8  88508072.686 7  21614563.602                    21614573.375
 125135592.791 7  97508339.330 6  23812512.125                    23812523.652
 119564234.443 7  93166979.305 6  22752318.805                    22752326.031
 121629794.761 6  94776554.10343  23145372.266                    23145380.266
 126575061.985 6  98629979.60443  24086438.961                    24086447.352
 112950468.091 7  88013461.05746  21493747.781                    21493752.703
 112062232.418 8  87321264.651 7  21324732.563                    21324739.727
 106734191.788 8  83169401.347 8  20310789.625                    20310796.852
 11  8  2  3 21  0.0000000  0  8G25G01G29G10G26G02G12G05
 113576805.829 8  88501457.105 7  21612948.039                    21612957.711
 125078834.640 7  97464112.328 6  23801710.250                    23801723.063
 119482230.670 7  93103080.311 6  22736713.586                    22736721.051
 121729801.643 7  94854481.55143  23164403.508                    23164410.961
 126478564.798 6  98554787.09043  24068076.273                    24068084.598
 112988835.197 7  88043357.52045  21501048.789                    21501053.934
 112118717.104 8  87365278.686 7  21335480.875                    21335487.945
 106749555.952 8  83181373.439 8  20313713.625                    20313720.527
 11  8  2  3 21 30.0000000  0  8G25G01G29G10G26G02G12G05
 113568897.960 8  88495295.135 7  21611442.891                    21611453.203
 125022181.610 7  97419967.189 7  23790930.711                    23790942.609
 119400287.465 7  93039228.498 6  22721119.656                    22721127.746
 121830030.257 7  94932581.73843  23183476.211                    23183484.039
 126382065.796 6  98479593.12343  24049712.383                    24049721.703
 113027301.408 8  88073331.18945  21508368.898                    21508373.734
 112175665.431 7  87409653.994 7  21346317.039                    21346324.727
 106765465.313 8  83193770.351 8  20316740.742                    20316747.973
 11  8  2  3 22  0.0000000  0  8G25G01G29G10G26G02G12G05
 113561572.227 8  88489586.780 7  21610048.695                    21610059.273
 124965632.864 7  97375903.313 6  23780169.453                    23780181.637
 119318406.723 7  92975425.377 6  22705538.781                    22705546.516
 121930477.668 6  95010852.44943  23202590.984                    23202598.668
 126285567.878 6  98404400.01943  24031349.344                    24031358.582
 113065866.411 7  88103381.84845  21515707.367                    21515712.449
 112233075.473 7  87454389.088 7  21357242.563                    21357249.938
 106781918.695 8  83206591.183 8  20319871.500                    20319878.641
 11  8  2  3 22 30.0000000  0  8G25G01G29G10G26G02G12G05
 113554828.665 8  88484332.052 7  21608765.891                    21608775.883
 124909188.853 7  97331921.074 7  23769428.203                    23769440.445
 119236590.321 7  92911672.386 6  22689969.711                    22689977.383
 122031140.963 6  95089291.37243  23221746.438                    23221753.574
 126189074.893 6  98329210.76043  24012987.359                    24012997.125
 113104530.280 8  88133509.53745  21523064.773                    21523070.258
 112290944.932 8  87499482.157 7  21368255.008                    21368261.813
 106798914.969 8  83219835.034 8  20323106.148                    20323113.160
 11  8  2  3 23  0.0000000  0  8G25G01G29G10G26G02G12G05
 113548667.025 8  88479530.785 7  21607593.523                    21607603.016
 124852848.382 7  97288019.503 7  23758706.914                    23758719.289
 119154839.691 7  92847970.662 6  22674413.141                    22674419.926
 122132017.326 7  95167896.31443  23240942.555                    23240950.195
 126092589.859 6  98254027.71343  23994626.664                    23994635.844
 113143292.504 8  88163713.87145  21530441.398                    21530446.555
 112349271.030 7  87544931.062 7  21379353.805                    21379360.926
 106816452.940 8  83233501.004 8  20326443.563                    20326450.391
 11  8  2  3 23 30.0000000  0  8G25G01G29G10G26G02G12G05
 113543087.613 8  88475183.200 7  21606531.578                    21606541.652
 124796611.809 7  97244198.898 7  23748005.633                    23748017.855
 119073157.154 7  92784321.997 6  22658869.023                    22658876.398
 122233104.270 6  95246665.37043  23260178.344                    23260186.285
 125996116.612 6  98178853.81443  23976268.578                    23976277.934
 113182152.967 7  88193994.74945  21537836.305                    21537841.484
 112408051.966 7  87590734.387 7  21390539.336                    21390546.734
 106834531.473 8  83247588.182 8  20329883.664                    20329890.699
 11  8  2  3 24  0.0000000  0  8G25G01G29G10G26G02G12G05
 113538089.889 8  88471288.881 7  21605580.352                    21605590.535
 124740478.117 7  97200458.451 7  23737323.172                    23737335.496
 118991544.095 7  92720727.443 6  22643339.000                    22643346.207
 122334398.747 6  95325596.08744  23279454.469                    23279462.059
 125899657.879 6  98103691.26043  23957912.664                    23957922.156
 113221110.898 8  88224351.58145  21545249.641                    21545254.516
 112467285.039 8  87636890.021 7  21401810.961                    21401818.238
 106853149.141 8  83262095.462 8  20333426.594                    20333433.645
 11  8  2  3 24 30.0000000  0  8G25G01G29G10G26G02G12G05
 113533673.642 8  88467847.663 7  21604740.258                    21604749.789
 124684446.711 7  97156797.709 7  23726660.820                    23726672.652
 118910001.980 7  92657188.206 6  22627821.320                    22627829.469
 122435897.888 6  95404686.32743  23298769.063                    23298776.613
 125803217.218 6  98028542.78043  23939560.836                    23939570.063
 113260166.199 8  88254784.28745  21552681.789                    21552686.445
 112526967.664 8  87683395.950 7  21413168.469                    21413175.535
 106872304.347 8  83277021.613 8  20337071.500                    20337078.543
 11  8  2  3 25  0.0000000  0  8G25G01G29G10G26G02G12G05
 113529838.896 8  88464859.557 7  21604010.570                    21604020.254
 124628517.526 7  97113216.585 7  23716018.023                    23716030.023
 118828532.907 7  92593705.887 6  22612318.570                    22612325.773
 122537598.976 6  95483933.90643  23318122.578                    23318130.242
 125706798.160 6  97953411.10043  23921213.391                    23921222.043
 113299318.881 8  88285292.87545  21560132.531                    21560137.418
 112587097.902 7  87730250.672 7  21424610.570                    21424617.809
 106891995.992 8  83292365.760 8  20340818.680                    20340825.801
 11  8  2  3 25 30.0000000  0  8G25G01G29G10G26G02G12G05
 113526585.386 8  88462324.368 7  21603391.156                    21603401.238
 124572690.111 7  97069714.782 7  23705394.508                    23705406.145
 118747138.451 7  92530281.699 6  22596829.945                    22596836.992
 122639499.370 6  95563336.80044  23337513.289                    23337520.645
 125610404.033 6  97878298.89243  23902870.102                    23902878.426
 113338568.551 8  88315877.03045  21567601.203                    21567606.371
 112647673.414 8  87777452.352 7  21436137.984                    21436145.266
 106912222.685 8  83308126.834 8  20344667.695                    20344674.598
 11  8  2  3 26  0.0000000  0  8G25G01G29G10G26G02G12G05
 113523912.554 8  88460241.650 7  21602882.734                    21602892.559
 124516963.369 7  97026291.411 7  23694790.086                    23694801.957
 118665820.445 7  92466917.074 7  22581355.258                    22581362.984
 122741595.936 6  95642892.55143  23356941.422                    23356949.480
 125514037.648 6  97803208.26543  23884532.156                    23884540.113
 113377914.388 8  88346536.12545  21575088.609                    21575093.418
 112708691.094 7  87824998.594 7  21447749.430                    21447756.445
 106932982.563 8  83324303.373 8  20348618.219                    20348624.961
 11  8  2  3 26 30.0000000  0  8G25G01G29G10G26G02G12G05
 113521820.498 8  88458611.487 7  21602484.695                    21602494.145
 124461337.375 7  96982946.550 7  23684204.758                    23684216.574
 118584580.783 7  92403613.497 7  22565896.227                    22565903.770
 122843886.004 6  95722599.06843  23376406.898                    23376414.488
 125417702.918 6  97728142.29943  23866200.289                    23866208.605
 113417356.840 8  88377270.50945  21582593.883                    21582599.074
 112770149.199 7  87872888.012 7  21459444.273                    21459451.801
 106954274.667 8  83340894.628 8  20352669.953                    20352676.988
 11  8  2  3 27  0.0000000  0  8G25G01G29G10G26G02G12G05
 113520308.613 8  88457433.410 7  21602197.148                    21602206.672
 124405811.406 7  96939679.630 7  23673638.680                    23673649.691
 118503421.055 7  92340372.203 7  22550452.086                    22550459.344
 122946366.883 6  95802454.29343  23395907.742                    23395916.000
 125321403.017 6  97653103.50643  23847874.445                    23847883.391
 113456895.222 8  88408079.63845  21590118.047                    21590122.730
 112832044.915 7  87921118.435 7  21471222.680                    21471229.723
 106976097.215 8  83357899.224 8  20356822.961                    20356829.547
